     2.10           OBSERVATION DATA    G (GPS)             RINEX VERSION / TYPE
teqc 2000Feb29 Ken Austin CWU Geolo20000726 21:00:38UTC     PGM / RUN BY / DATE
Solaris 2.7|Ultra 2|cc SC5.0|=+-|*Sparc                     COMMENT
BIT 2 OF LLI FLAGS DATA COLLECTED UNDER A/S CONDITION       COMMENT
PION PIONEER 1963                                           MARKER NAME
PION                                                        MARKER NUMBER
DJ Central Washington University                            OBSERVER / AGENCY
24361 TRIMBLE 4000SSI NP 7.28; SP 3.07                      REC # / TYPE / VERS
16 DORNE MARGOLIN TRIM                                      ANT # / TYPE
 -2351353.0000 -4645134.0000  3673723.0000                  APPROX POSITION XYZ
        0.1830        0.0000        0.0000                  ANTENNA: DELTA H/E/N
     1     1                                                WAVELENGTH FACT L1/2
     9    L1    L2    C1    P2    P1    D1    D2    S1    S2# / TYPES OF OBSERV
    30.0000                                                 INTERVAL
                                                            COMMENT
PANGA GPS Data Analysis Center                              COMMENT
Department of Geology                                       COMMENT
Central Washington University                               COMMENT
Ellensburg, WA 98926                                        COMMENT
                                                            COMMENT
http://www.panga.cwu.edu                                    COMMENT
ftp://panga.cwu.edu                                         COMMENT
                                                            COMMENT
SNR is mapped to RINEX snr flag value [1-9]                 COMMENT
L1: 3 -> 1; 8 -> 5; 40 -> 9                                 COMMENT
L2: 1 -> 1; 5 -> 5; 60 -> 9                                 COMMENT
  1999     4    23     0     0   30.0000000     GPS         TIME OF FIRST OBS
                                                            END OF HEADER
 99  4 23  0  0 30.0000000  0  7G30G17G10G22G 6G26G23
   4037191.56956   3301504.65355  23904897.8594   23904903.5784
     -3796.9064      -2958.6284         12.0004         10.5004
 -17386323.50458 -13401552.55957  21282277.9224   21282281.5434
       739.5634        576.2824         31.0004         28.2504
   7142486.85155  13190852.40455  24660955.7664   24660960.7814
     -3839.7974      -2992.0504          9.5004          7.5004
  -4124294.80855   -493708.28055  23455611.9924   23455617.3714
       360.3284        280.7754         11.2504         10.5004
 -17468742.97356  -8705659.72557  20415011.7664   20415014.4844
     -1031.4064       -803.6934         18.7504         33.5004
 -11418067.56056  -8751391.82456  22139356.0634   22139359.9654
      1074.7664        837.4804         19.0004         16.2504
 -13712889.64857 -10541513.35956  21886416.0314   21886420.3674
      1893.2504       1475.2604         27.0004         23.2504
 99  4 23  0  1  0.0000000  0  7G30G17G10G22G 6G26G23
   4151116.62846   3390277.25245  23926577.9384   23926584.1254
     -3797.8594      -2959.3714         12.5004         10.0004
 -17408429.54148 -13418778.00247  21278071.2114   21278074.8914
       734.4534        572.3014         32.0004         28.2504
   7257704.72045  13280632.57545  24682881.1174   24682885.9344
     -3841.1564      -2993.1094          9.0004          8.0004
  -4134865.31345   -501945.00345  23453600.3054   23453605.6604
       344.4844        268.4294         11.2504         10.5004
 -17437579.21246  -8681376.26947  20420942.0554   20420944.8554
     -1046.1254       -815.1624         19.0004         33.5004
 -11450049.61746  -8776312.84446  22133269.7114   22133273.3794
      1057.5164        824.0384         19.2504         16.2504
 -13769493.19247 -10585619.93446  21875644.5474   21875648.6374
      1880.6414       1465.4344         27.2504         23.2504
 99  4 23  0  1 30.0000000  0  7G30G17G10G22G 6G26G23
   4265063.77045   3479067.10945  23948261.1174   23948266.0984
     -3798.6564      -2959.9924         11.7504         10.2504
 -17430390.26648 -13435890.22647  21273892.0784   21273895.7344
       729.4384        568.3934         32.0004         28.5004
   7372952.82445  13370436.19945  24704812.1334   24704817.2074
     -3842.1094      -2993.8514          9.0004          8.0004
  -4144964.20445   -509814.25145  23451678.3594   23451683.2814
       328.7194        256.1444         11.7504         11.0004
 -17405963.09146  -8656740.32847  20426958.2814   20426961.1174
     -1061.7664       -827.3504         18.7504         33.5004
 -11481515.26946  -8800831.46346  22127281.8594   22127285.5634
      1040.0944        810.4634         18.7504         16.5004
 -13825731.08547 -10629441.59346  21864943.0864   21864947.2234
      1868.5314       1455.9984         27.2504         23.2504
 99  4 23  0  2  0.0000000  0  7G30G17G10G22G 6G26G23
   4379045.67445   3567884.01845  23969951.0554   23969956.5044
     -3800.0624      -2961.0884         11.7504         10.5004
 -17452188.41948 -13452875.76847  21269744.0394   21269747.5084
       723.7974        563.9984         32.2504         28.5004
   7488227.12445  13460260.33845  24726747.9924   24726754.0984
     -3842.6414      -2994.2654          9.5004          7.7504
  -4154588.25946   -517313.49245  23449846.9774   23449851.0784
       312.8134        243.7504         12.2504         10.5004
 -17373870.57146  -8631733.17547  20433065.4454   20433068.2584
     -1077.6724       -839.7444         18.7504         33.2504
 -11512452.04846  -8824937.96146  22121395.0084   22121398.5004
      1022.4534        796.7174         19.7504         16.2504
 -13881609.63447 -10672983.23546  21854309.7664   21854314.2774
      1856.7504       1446.8184         27.7504         23.5004
 99  4 23  0  2 30.0000000  0  7G30G17G10G22G 6G26G23
   4493071.92445   3656735.45545  23991649.6334   23991655.8674
     -3801.5004      -2962.2084         11.7504         10.5004
 -17473818.68348 -13469730.49047  21265627.8134   21265631.4694
       718.5004        559.8704         31.2504         28.7504
   7603517.60645  13550097.04745  24748687.3914   24748693.5084
     -3843.3594      -2994.8254          8.5004          8.0004
  -4163719.93945   -524429.02945  23448109.2194   23448112.9454
       295.9534        230.6134         11.7504         10.7504
 -17341289.10046  -8606345.01147  20439265.4064   20439268.3364
     -1094.5314       -852.8814         18.7504         33.0004
 -11542861.55747  -8848633.61246  22115608.0234   22115611.5164
      1005.1094        783.2024         20.2504         16.2504
 -13937133.09247 -10716248.18646  21843743.6804   21843747.8984
      1845.0474       1437.6994         27.7504         23.7504
 99  4 23  0  3  0.0000000  0  7G30G17G10G22G 6G26G23
   4607134.79646   3745615.48245  24013355.3364   24013360.9964
     -3802.5784      -2963.0484         12.0004         10.2504
 -17495295.80048 -13486465.87747  21261540.9614   21261544.6054
       713.2974        555.8164         30.2504         28.7504
   7718833.10745  13639953.24345  24770630.5784   24770636.9884
     -3844.3124      -2995.5684          9.0004          7.5004
  -4172326.87145   -531135.70045  23446471.4304   23446475.2274
       277.7664        216.4414         11.7504         10.0004
 -17308191.24846  -8580554.48347  20445563.5474   20445566.4654
     -1111.9534       -866.4574         18.5004         33.2504
 -11572756.88247  -8871928.61046  22109919.4064   22109923.1094
       988.0004        769.8704         20.0004         16.7504
 -13992309.81148 -10759242.95646  21833243.9774   21833248.3594
      1833.4694       1428.6774         28.0004         24.0004
 99  4 23  0  3 30.0000000  0  8G30G17G10G21G22G 6G26G23
   4721223.76045   3834515.81645  24035065.9844   24035072.5234
     -3803.2194      -2963.5474         11.7504         10.5004
 -17516619.11248 -13503081.41947  21257483.2194   21257486.8634
       708.3594        551.9684         30.5004         29.0004
   7834177.63645  13729832.04745  24792580.3054   24792586.5394
     -3845.2974      -2996.3354          8.0004          7.2504
    -47923.21355                  25194906.1414
      2818.4064                          9.2504
  -4180393.96745   -537421.69445  23444935.9774   23444941.0274
       260.1724        202.7314         11.5004          9.7504
 -17274571.25046  -8554357.08647  20451961.3594   20451964.2194
     -1129.1724       -879.8744         18.7504         33.0004
 -11602143.40546  -8894827.13946  22104326.7424   22104330.8204
       971.2504        756.8184         19.7504         16.5004
 -14047139.02148 -10801966.93546  21822810.4224   21822814.6414
      1821.7814       1419.5704         28.2504         23.7504
 99  4 23  0  4  0.0000000  0  8G30G17G10G21G22G 6G26G23
   4835324.52446   3923425.35045  24056778.3444   24056783.4774
     -3803.3594      -2963.6574         12.2504         10.0004
 -17537793.18048 -13519580.66947  21253453.9304   21253457.5634
       703.2504        547.9874         28.0004         29.0004
   7949553.37745  13819735.23845  24814535.5474   24814541.8984
     -3846.3914      -2997.1874          8.5004          6.7504
   -132432.94245                  25178823.5704
      2815.5314                         10.7504
  -4187931.93045   -543295.41545  23443501.5234   23443506.0124
       242.3134        188.8154         11.5004         10.0004
 -17240441.71646  -8527762.64447  20458455.9614   20458458.7274
     -1146.0474       -893.0244         18.7504         33.0004
 -11631028.16647  -8917334.67946  22098830.2894   22098834.0864
       954.4694        743.7424         20.0004         16.5004
 -14101614.93548 -10844415.62346  21812443.7194   21812448.1024
      1809.9064       1410.3174         28.5004         24.2504
 99  4 23  0  4 30.0000000  0  8G30G17G10G21G22G 6G26G23
   4949425.92046   4012335.36445  24078490.9924   24078497.5904
     -3803.3124      -2963.6204         12.0004         10.5004
 -17558811.74247 -13535958.74847  21249454.2344   21249457.8444
       698.0474        543.9334         26.7504         29.2504
   8064964.00745  13909665.57045  24836497.9924   24836502.9734
     -3847.5474      -2998.0884          8.0004          6.5004
   -216848.87745    -41648.83055  25162759.7664   25162770.0704
      2812.2504       2191.3644         11.7504          8.7504
  -4194929.55646   -548748.07945  23442170.1804   23442175.7234
       224.3284        174.8014         12.2504         10.7504
 -17205806.18646  -8500773.92247  20465046.9534   20465049.7424
     -1162.9844       -906.2224         18.5004         33.0004
 -11659411.77746  -8939451.71646  22093429.4694   22093433.7704
       937.8284        730.7754         19.7504         16.7504
 -14155726.84648 -10886580.66746  21802146.5084   21802150.8094
      1797.6094       1400.7354         28.2504         24.2504
 99  4 23  0  5  0.0000000  0  8G30G17G10G21G22G 6G26G23
   5063516.53446   4101236.97345  24100202.4304   24100208.4654
     -3802.7974      -2963.2184         12.2504          9.7504
 -17579667.02447 -13552209.59547  21245485.4304   21245489.1684
       692.1094        539.3064         24.7504         29.5004
   8180397.81245  13999613.92845  24858463.9614   24858469.9494
     -3847.9844      -2998.4294          7.7504          7.5004
   -301164.73145   -107348.95845  25146714.2974   25146724.3674
      2808.7664       2188.6494         10.7504          8.5004
  -4201394.93646   -553785.99745  23440940.1024   23440944.1214
       206.8284        161.1654         12.7504         11.0004
 -17170673.77946  -8473398.01947  20471732.5634   20471735.4924
     -1179.0314       -918.7264         18.2504         32.5004
 -11687290.81346  -8961175.57446  22088123.8284   22088127.7664
       920.6724        717.4074         19.2504         17.2504
 -14209467.88548 -10928456.72346  21791919.9064   21791924.1954
      1785.0634       1390.9584         28.5004         24.5004
 99  4 23  0  5 30.0000000  0  8G30G17G10G21G22G 6G26G23
   5177596.69546   4190130.47245  24121911.1334   24121917.8014
     -3802.4694      -2962.9634         12.2504         10.2504
 -17600336.40347 -13568315.58547  21241552.3834   21241555.9924
       685.9224        534.4854         24.7504         29.2504
   8295845.12844  14089572.86545  24880432.6174   24880438.6054
     -3848.2974      -2998.6734          7.0004          6.5004
   -385367.74845   -172961.13645  25130690.6484   25130701.5274
      2804.7504       2185.5194          8.7504          6.7504
  -4207349.48046   -558425.89245  23439806.8444   23439811.4614
       190.1414        148.1624         12.7504         11.0004
 -17135069.36346  -8445654.32647  20478507.6174   20478510.5234
     -1194.5164       -930.7914         18.2504         32.5004
 -11714645.45547  -8982490.80946  22082918.4064   22082922.4844
       903.1254        703.7344         20.5004         16.5004
 -14262827.25948 -10970035.37846  21781765.8594   21781769.9614
      1772.3754       1381.0714         29.0004         24.5004
 99  4 23  0  6  0.0000000  0  8G30G17G10G21G22G 6G26G23
   5291660.70646   4279011.34945  24143616.6644   24143623.4964
     -3801.7664      -2962.4154         12.2504         10.0004
 -17620818.84747 -13584275.91447  21237654.6954   21237658.1994
       679.4694        529.4564         23.7504         29.5004
   8411287.29545  14179527.80145  24902401.0084   24902405.9884
     -3847.7814      -2998.2714          7.7504          6.7504
   -469447.44045   -238477.25845  25114691.0314   25114699.5204
      2800.4844       2182.1964          9.5004          6.5004
  -4212795.03646   -562669.14545  23438770.4454   23438775.3094
       172.8444        134.6834         13.0004         11.0004
 -17099001.76046  -8417549.71447  20485371.1174   20485374.1414
     -1209.9534       -942.8214         18.2504         32.2504
 -11741480.26247  -9003400.98046  22077812.0314   22077815.8984
       885.8284        690.2564         20.2504         16.7504
 -14315812.56748 -11011322.54746  21771683.1724   21771687.3794
      1759.9534       1371.3924         29.0004         24.7504
 99  4 23  0  6 30.0000000  0  8G30G17G10G21G22G 6G26G23
   5405702.82846   4367875.19245  24165318.9454   24165326.0514
     -3801.2814      -2962.0374         12.7504         10.2504
 -17641113.76247 -13600090.10847  21233792.4384   21233795.9184
       673.3134        524.6594         26.7504         29.2504
   8526710.51744  14269467.93145  24924364.9534   24924369.6414
     -3847.3914      -2997.9674          6.7504          6.5004
   -553397.59645   -303892.52645  25098714.8754   25098725.1804
      2796.0474       2178.7384         11.5004          8.0004
  -4217725.81146   -566511.30745  23437832.1644   23437836.6414
       155.7814        121.3884         12.7504         10.5004
 -17062475.49046  -8389087.68847  20492321.8134   20492324.8364
     -1225.4064       -954.8624         18.2504         32.2504
 -11767800.12647  -9023909.89646  22072803.5474   22072807.1334
       868.5634        676.8024         20.7504         17.2504
 -14368422.66148 -11052317.34746  21761671.7344   21761675.8134
      1747.1884       1361.4454         29.2504         25.0004
 99  4 23  0  7  0.0000000  0  8G30G17G10G21G22G 6G26G23
   5519729.37646   4456726.85145  24187016.9534   24187023.0944
     -3800.7194      -2961.5994         12.2504          9.7504
 -17661223.31747 -13615759.86247  21229965.8444   21229969.4884
       667.2814        519.9594         26.7504         29.2504
   8642125.81144  14359401.84145  24946327.9694   24946333.7464
     -3847.1094      -2997.7484          7.0004          6.2504
   -637217.47045   -369206.18745  25082764.1414   25082773.8954
      2791.8754       2175.4874          9.5004          8.0004
  -4222142.14746   -569952.58045  23436992.2034   23436997.6294
       138.6094        108.0074         12.5004         11.0004
 -17025481.93246  -8360261.54147  20499361.5554   20499364.4614
     -1240.8754       -966.9164         18.2504         32.5004
 -11793593.77347  -9044008.76646  22067894.7504   22067898.5354
       850.9844        663.1054         21.0004         17.5004
 -14420649.68548 -11093013.65546  21751733.2034   21751737.1994
      1734.5474       1351.5954         29.7504         25.0004
 99  4 23  0  7 30.0000000  0  8G30G17G10G21G22G 6G26G23
   5633751.36046   4545574.99045  24208714.6174   24208722.0634
     -3800.6414      -2961.5384         12.5004         10.0004
 -17681154.80348 -13631290.86647  21226172.7814   21226176.5084
       661.5944        515.5284         29.5004         29.0004
   8757547.91944  14449341.20045  24968291.7664   24968296.0204
     -3847.6254      -2998.1494          7.2504          6.5004
   -720909.57545   -434420.28745  25066838.0394   25066846.5164
      2787.7504       2172.2734         10.2504          7.7504
  -4226034.85046   -572985.84945  23436251.1954   23436256.5864
       120.7664         94.1034         12.5004         10.7504
 -16988016.71246  -8331067.86847  20506490.9454   20506493.7934
     -1256.8124       -979.3344         18.2504         32.5004
 -11818859.76447  -9063696.49846  22063086.9064   22063090.7034
       833.4694        649.4564         21.5004         17.2504
 -14472493.39748 -11133411.27446  21741867.5944   21741871.6024
      1721.7974       1341.6604         29.2504         25.0004
 99  4 23  0  8  0.0000000  0  8G30G17G10G21G22G 6G26G23
   5747768.65846   4634419.49345  24230412.1024   24230418.4184
     -3800.4534      -2961.3924         12.5004         10.2504
 -17700911.56248 -13646685.70947  21222413.4304   21222417.1214
       655.4844        510.7674         28.0004         29.2504
   8872987.21244  14539293.88945  24990259.1564   24990265.9304
     -3848.3754      -2998.7344          6.2504          6.2504
   -804476.86145   -499537.25845  25050935.1884   25050943.7344
      2783.5004       2168.9614         11.5004          8.2504
  -4229376.98745   -575590.09345  23435614.6334   23435620.5164
       102.0944         79.5544         11.5004         10.2504
 -16950060.35846  -8301491.48947  20513713.8754   20513716.6994
     -1273.5784       -992.3994         18.5004         32.2504
 -11843590.55647  -9082967.17246  22058380.7894   22058384.7854
       815.0784        635.1264         20.7504         17.2504
 -14523951.66348 -11173508.55146  21732075.4224   21732079.6294
      1708.6254       1331.3964         29.5004         25.5004
 99  4 23  0  8 30.0000000  0  8G30G17G10G21G22G 6G26G23
   5861782.01746   4723260.87545  24252108.1954   24252113.3404
     -3800.4694      -2961.4044         12.7504          9.5004
 -17720485.80247 -13661938.33447  21218688.3674   21218692.0824
       649.5474        506.1404         27.7504         29.2504
   8988450.07644  14629264.91945  25012231.1094   25012236.6524
     -3849.1414      -2999.3304          6.7504          6.0004
   -887921.97045   -564558.93545  25035055.4064   25035064.9384
      2779.4534       2165.8084          9.7504          8.0004
  -4232175.17946   -577770.47845  23435082.1564   23435086.3984
        84.5164         65.8564         12.2504         10.7504
 -16911608.99646  -8271529.39747  20521030.8444   20521033.7154
     -1289.9374      -1005.1464         18.2504         32.2504
 -11867765.29447  -9101804.57646  22053780.5314   22053784.1294
       796.5474        620.6864         21.7504         17.7504
 -14575016.00748 -11213298.87146  21722358.0004   21722362.1374
      1695.8284       1321.4254         29.7504         25.5004
 99  4 23  0  9  0.0000000  0  8G30G17G10G21G22G 6G26G23
   5975793.99546   4812101.21245  24273803.5084   24273810.4734
     -3800.3594      -2961.3194         12.5004          9.7504
 -17739873.14947 -13677045.32747  21214999.2344   21215002.8914
       642.8754        500.9424         27.2504         29.5004
   9103936.86044  14719254.60445  25034207.8914   25034210.3984
     -3849.8914      -2999.9154          7.0004          5.7504
   -971236.56545   -629478.99345  25019201.1174   25019210.0044
      2774.6724       2162.0824         11.2504          8.5004
  -4234445.18145   -579539.28445  23434650.0704   23434655.1564
        66.7814         52.0374         11.7504         10.0004
 -16872659.55446  -8241179.18847  20528442.7734   20528445.5864
     -1306.6564      -1018.1744         18.2504         32.0004
 -11891376.94547  -9120203.21246  22049287.4774   22049290.7464
       777.5784        605.9054         21.5004         17.7504
 -14625702.36848 -11252794.67047  21712712.6254   21712716.4924
      1683.1884       1311.5754         30.0004         25.7504
 99  4 23  0  9 30.0000000  0  8G30G17G10G21G22G 6G26G23
   6089798.19346   4900935.46945  24295498.4614   24295505.2704
     -3799.9064      -2960.9664         12.7504         10.2504
 -17759063.83947 -13691999.07947  21211347.2664   21211350.8284
       636.3594        495.8644         27.0004         29.5004
   9219440.85043  14809257.72245  25056187.2194   25056194.2894
     -3850.3594      -3000.2804          5.5004          4.7504
  -1054398.85345   -694280.37545  25003375.5084   25003382.9064
      2769.4694       2158.0284          9.7504          7.7504
  -4236188.71246   -580897.83445  23434318.9924   23434324.4534
        49.3134         38.4254         12.7504         11.0004
 -16833213.93146  -8210442.34347  20535948.9384   20535951.7734
     -1323.2344      -1031.0924         18.2504         32.2504
 -11914425.74347  -9138163.25046  22044901.1334   22044904.2974
       758.8444        591.3074         21.5004         17.7504
 -14676007.50648 -11291993.41347  21703139.9304   21703143.8794
      1670.3754       1301.5914         30.2504         25.7504
 99  4 23  0 10  0.0000000  0  8G30G17G10G21G22G 6G26G23
   6203785.33846   4989756.43745  24317189.1024   24317196.2774
     -3799.2974      -2960.4914         12.7504         10.2504
 -17778060.82547 -13706801.89147  21207732.3364   21207735.9574
       630.0474        490.9464         25.0004         29.2504
   9334946.59743  14899262.23345  25078167.2814   25078169.6134
     -3850.0474      -3000.0374          5.0004          4.7504
  -1137407.70645   -758962.18845  24987578.8984   24987588.5594
      2764.4064       2154.0834         10.5004          8.5004
  -4237414.76646   -581853.16345  23434085.1414   23434089.7584
        32.4384         25.2764         12.2504         10.2504
 -16793268.75046  -8179316.23147  20543550.1954   20543552.9494
     -1339.6874      -1043.9124         18.2504         32.2504
 -11936914.97747  -9155687.27346  22040621.4384   22040624.9064
       740.5314        577.0374         21.0004         17.7504
 -14725931.61148 -11330895.25047  21693639.6804   21693643.6294
      1657.8914       1291.8634         30.5004         26.0004
 99  4 23  0 10 30.0000000  0  8G30G17G10G21G22G 6G26G23
   6317755.89246   5078564.46445  24338877.4064   24338883.9574
     -3798.9374      -2960.2114         12.7504          9.5004
 -17796875.46547 -13721462.61547  21204151.8754   21204155.5084
       624.1414        486.3434         26.2504         29.7504
   9450437.89544  14989255.41245  25100144.3204   25100153.0554
     -3849.5474      -2999.6474          6.2504          5.7504
  -1220269.86745   -823529.74945  24971810.7274   24971820.0234
      2759.5944       2150.3334          9.7504          8.0004
  -4238139.40646   -582417.76645  23433947.7814   23433951.5664
        15.6414         12.1884         13.2504         11.0004
 -16752847.94346  -8147819.50147  20551241.9384   20551244.7854
     -1355.3284      -1056.1004         18.5004         32.2504
 -11958872.28547  -9172796.80346  22036443.2344   22036446.5164
       723.2034        563.5354         21.5004         17.5004
 -14775488.20048 -11369510.71547  21684209.3674   21684213.2234
      1645.6564       1282.3304         30.5004         26.0004
 99  4 23  0 11  0.0000000  0  8G30G17G10G21G22G 6G26G23
   6431717.60746   5167365.62845  24360563.6334   24360571.4184
     -3798.3284      -2959.7364         12.5004         10.0004
 -17815506.65747 -13735980.39747  21200606.5634   21200609.9734
       618.0944        481.6314         26.5004         29.7504
   9565915.81044  15079238.12345  25122119.1024   25122122.2304
     -3848.7974      -2999.0624          6.2504          5.0004
  -1302993.36245   -887989.23945  24956068.3204   24956077.6764
      2755.6254       2147.2404         10.0004          8.5004
  -4238342.08346   -582575.64745  23433909.0394   23433913.3984
        -2.0164         -1.5714         13.2504         11.0004
 -16711947.62746  -8115949.13047  20559025.2424   20559028.0784
     -1371.1414      -1068.4214         18.5004         32.2504
 -11980303.84547  -9189496.67146  22032365.0314   22032368.3834
       705.7974        549.9724         22.2504         17.7504
 -14824660.78348 -11407826.95547  21674852.0164   21674855.9414
      1632.5164       1272.0904         30.7504         26.0004
 99  4 23  0 11 30.0000000  0  8G30G17G10G21G22G 6G26G23
   6545659.31146   5256151.14445  24382246.3054   24382252.1174
     -3798.2814      -2959.7004         12.2504          9.5004
 -17833970.42248 -13750367.71447  21197093.0314   21197096.6884
       612.3444        477.1514         28.0004         29.5004
   9681367.15244  15169200.21745  25144089.3284   25144095.0474
     -3848.3914      -2998.7464          6.5004          6.2504
  -1385617.12345   -952371.02445  24940345.3834   24940351.9804
      2752.4064       2144.7324          9.7504          7.7504
  -4238012.85146   -582319.07145  23433971.2504   23433975.4694
       -20.4374        -15.9254         13.2504         11.0004
 -16670581.46046  -8083715.75847  20566896.8984   20566899.7114
     -1387.0624      -1080.8284         18.2504         32.2504
 -12001224.22247  -9205798.21046  22028383.9844   22028387.1024
       688.3914        536.4084         22.7504         18.0004
 -14873439.27348 -11445836.10847  21665569.7194   21665573.5744
      1619.0004       1261.5584         30.7504         26.2504
 99  4 23  0 12  0.0000000  0  8G30G17G10G21G22G 6G26G23
   6659599.74446   5344935.70645  24403928.6564   24403935.2664
     -3797.9844      -2959.4684         12.2504          9.5004
 -17852257.88347 -13764617.65647  21193613.0004   21193616.6214
       606.6094        472.6834         24.0004         29.7504
   9796802.40943  15259149.81445  25166054.9614   25166060.8794
     -3847.6254      -2998.1494          6.0004          4.7504
  -1468159.88845  -1016689.72545  24924637.7894   24924646.4534
      2750.1254       2142.9554          9.0004          7.7504
  -4237130.75546   -581631.68145  23434139.0944   23434143.6884
       -38.4224        -29.9394         13.2504         11.0004
 -16628743.74846  -8051114.94947  20574858.3834   20574861.1844
     -1402.2814      -1092.6874         18.5004         32.2504
 -12021623.03247  -9221693.32446  22024502.1564   22024505.2384
       671.3134        523.1014         21.7504         17.7504
 -14921822.09748 -11483536.94647  21656362.6484   21656366.6334
      1606.3134       1251.6724         30.5004         26.2504
 99  4 23  0 12 30.0000000  0  8G30G17G10G21G22G 6G26G23
   6773540.45946   5433720.48345  24425610.9304   24425618.0354
     -3797.7974      -2959.3224         12.2504         10.0004
 -17870353.00247 -13778717.72547  21190169.3444   21190172.8834
       599.9224        467.4724         26.0004         29.7504
   9912237.23942  15349098.93545  25188022.3984   25188026.4064
     -3847.9064      -2998.3694          4.7504          4.7504
  -1550618.20445  -1080942.58945  24908946.3834   24908956.0904
      2747.2974       2140.7514          9.5004          8.7504
  -4235696.18646   -580513.81045  23434412.1644   23434416.8984
       -56.8914        -44.3304         12.2504         10.5004
 -16586431.59246  -8018144.44947  20582910.2114   20582913.0704
     -1418.4694      -1105.3004         18.5004         32.0004
 -12041490.76747  -9237174.62346  22020721.4064   22020725.0394
       653.2344        509.0144         21.7504         18.0004
 -14969804.73048 -11520925.95647  21647231.8834   21647235.6804
      1592.7194       1241.0804         30.2504         26.5004
 99  4 23  0 13  0.0000000  0  8G30G17G10G21G22G 6G26G23
   6887468.29845   5522495.19845  24447291.1954   24447297.6764
     -3797.2814      -2958.9204         11.7504          9.2504
 -17888248.75847 -13792662.44647  21186764.0234   21186767.6334
       593.1414        462.1884         23.7504         29.7504
  10027683.55242                  25209990.2034
     -3848.5624                          3.7504
  -1632985.29445  -1145124.39745  24893271.8594   24893282.0824
      2743.6254       2137.8904          9.5004          8.7504
  -4233712.37345   -578967.91945  23434789.6334   23434794.4384
       -75.2974        -58.6734         11.7504         11.2504
 -16543622.56046  -7984786.77547  20591056.3984   20591059.1884
     -1435.4534      -1118.5354         18.5004         32.0004
 -12060808.99847  -9252227.73046  22017045.3674   22017048.6724
       634.7034        494.5744         22.2504         18.2504
 -15017382.90748 -11557999.80547  21638177.9614   21638181.8054
      1579.3594       1230.6704         30.7504         26.7504
 99  4 23  0 13 30.0000000  0  8G30G17G10G21G22G 6G26G23
   7001376.51245   5611254.62945  24468966.7734   24468974.4184
     -3796.4534      -2958.2754         11.5004          9.5004
 -17905948.18347 -13806454.18247  21183395.9384   21183399.3834
       586.7974        457.2444         23.0004         30.0004
  10143153.26841                  25231963.0864
     -3849.3594                          3.0004
  -1715224.99545  -1209206.97745  24877622.3914   24877631.3714
      2738.9224       2134.2254          8.7504          8.2504
  -4231181.59146   -576995.83645  23435271.1334   23435276.7344
       -93.2814        -72.6874         12.7504         10.5004
 -16500306.30646  -7951033.85847  20599299.2974   20599302.1094
     -1452.2504      -1131.6234         18.5004         32.0004
 -12079574.53647  -9266850.18346  22013474.2344   22013477.5744
       616.2194        480.1704         22.0004         18.0004
 -15064575.80548 -11594773.43847  21629197.7114   21629201.6484
      1566.8914       1220.9544         31.2504         26.7504
 99  4 23  0 14  0.0000000  0  8G30G17G10G21G22G 6G26G23
   7115252.69945   5699989.09045  24490637.0704   24490644.2344
     -3794.9064      -2957.0704         11.0004          9.5004
 -17923452.66146 -13820094.01247  21180064.9304   21180068.3284
       580.3914        452.2524         18.7504         30.0004
  10258647.14941                  25253941.0234
     -3850.0164                          2.5004
  -1797311.10345  -1273169.88945  24862001.7894   24862009.6334
      2733.5004       2130.0004          8.5004          8.0004
  -4228125.36046   -574614.32445  23435852.8834   23435857.6884
      -110.2034        -85.8734         12.2504         10.7504
 -16456483.09746  -7916885.91347  20607638.4614   20607641.3554
     -1469.1414      -1144.7854         18.2504         32.0004
 -12097770.87247  -9281029.09046  22010011.2894   22010014.5944
       597.0474        465.2314         21.7504         18.2504
 -15111395.79848 -11631256.49547  21620287.9924   21620292.0124
      1554.4694       1211.2744         31.7504         26.7504
 99  4 23  0 14 30.0000000  0  8G30G17G10G21G22G 6G26G23
   7229064.73945   5788673.60145  24512295.4774   24512302.2854
     -3792.2814      -2955.0244         11.0004          9.5004
 -17940770.62946 -13833588.51547  21176769.4694   21176772.9614
       574.4384        447.6144         19.2504         30.0004
  10374158.88841                  25275922.0314
     -3850.4694                          2.0004
  -1879225.62445  -1336999.12245  24846413.8364   24846421.9144
      2727.6094       2125.4104          9.2504          8.7504
  -4224562.28746   -571837.86245  23436531.0474   23436536.6134
      -127.2194        -99.1314         13.0004         10.5004
 -16412150.66246  -7882341.16547  20616074.6724   20616077.6254
     -1486.0474      -1157.9594         18.0004         31.7504
 -12115389.92147  -9294758.16346  22006658.7664   22006662.4454
       577.6724        450.1344         22.0004         17.2504
 -15157837.15148 -11667444.51247  21611450.4614   21611454.1644
      1541.7814       1201.3884         31.5004         27.2504
 99  4 23  0 15  0.0000000  0  7G30G17G21G22G 6G26G23
   7342796.14745   5877295.26145  24533937.1254   24533944.1954
     -3789.7664      -2953.0644         10.7504          9.2504
 -17957929.76246 -13846959.24747  21173504.2344   21173507.6914
       569.5004        443.7664         18.5004         30.2504
  -1960962.05045  -1400689.52545  24830859.2344   24830868.6604
      2721.4384       2120.6014          9.5004          8.0004
  -4220494.49046   -568668.08945  23437304.2974   23437308.8554
      -143.9844       -112.1964         12.2504         11.0004
 -16367324.90446  -7847412.01247  20624604.7894   20624607.7544
     -1502.2814      -1170.6094         18.2504         31.7504
 -12132431.88747                  22003415.8364
       558.4224                         22.2504
 -15203901.72548 -11703338.93547  21602684.6024   21602688.5164
      1529.0944       1191.5024         31.2504         27.2504
 99  4 23  0 15 30.0000000  0  7G30G17G21G22G 6G26G23
   7456443.95945   5965851.76445  24555564.2424   24555571.3834
     -3786.7504      -2950.7144         10.7504          9.0004
 -17974947.70246 -13860219.96447  21170265.8204   21170269.1484
       565.0164        440.2724         19.7504         30.2504
  -2042525.03045  -1464244.78745  24815338.7194   24815347.3594
      2716.2504       2116.5584          9.5004          8.7504
  -4215937.55446   -565117.18445  23438172.4384   23438176.5044
      -159.7034       -124.4444         12.7504         10.7504
 -16322028.23046  -7812115.90847  20633224.5004   20633227.4774
     -1517.3594      -1182.3584         18.2504         31.2504
 -12148895.02547                  22000282.9614
       539.1094                         22.5004
 -15249585.60548 -11738936.71647  21593991.1414   21593994.8554
      1516.4384       1181.6404         30.7504         27.2504
 99  4 23  0 16  0.0000000  0  7G30G17G21G22G 6G26G23
   7570003.65345   6054339.63245  24577174.4774   24577182.3324
     -3783.6254      -2948.2794         10.5004          8.7504
 -17991825.48346 -13873371.46047  21167054.0004   21167057.3874
       560.4224        436.6924         19.5004         30.2504
  -2123940.00445  -1527684.72545  24799845.0474   24799852.7154
      2711.7814       2113.0764          9.7504          8.5004
  -4210908.83546   -561198.64645  23439128.1484   23439133.2114
      -175.3754       -136.6564         12.2504         11.2504
 -16276272.95646  -7776462.45047  20641931.4694   20641934.3404
     -1532.6564      -1194.2784         18.0004         31.5004
 -12164772.41247    -10277.88956  21997261.1254   21997264.1484
       519.7504        405.0004         21.5004         18.0004
 -15294882.81448 -11774233.19847  21585371.2274   21585374.8244
      1503.6094       1171.6444         31.2504         27.5004
 99  4 23  0 16 30.0000000  0  7G30G17G21G22G 6G26G23
   7683486.00745   6142767.17045  24598769.6484   24598776.7424
     -3781.8444      -2946.8914         10.2504          8.5004
 -18008555.54747 -13886407.85547  21163870.4454   21163873.8324
       555.0784        432.5284         20.0004         30.2504
  -2205214.27245  -1591015.06045  24784378.7814   24784386.9184
      2706.6414       2109.0714          9.5004          8.5004
  -4205390.59446   -556898.65845  23440179.0474   23440182.8094
      -192.4224       -149.9394         12.7504         10.7504
 -16230052.61546  -7740446.60747  20650726.7894   20650729.6134
     -1548.5314      -1206.6484         18.2504         31.5004
 -12180073.01347    -22200.38346  21994349.9064   21994353.3054
       500.4384        389.9514         23.0004         18.0004
 -15339785.32548 -11809222.12047  21576826.4144   21576830.1524
      1490.1414       1161.1494         31.7504         27.5004
 99  4 23  0 17  0.0000000  0  7G30G17G21G22G 6G26G23
   7796921.92545   6231158.57245  24620356.4064   24620364.3674
     -3780.5164      -2945.8564         10.5004          9.0004
 -18025126.67447 -13899320.40447  21160717.0634   21160720.3914
       549.3594        428.0724         21.5004         30.2504
  -2286340.83345  -1654230.26945  24768941.3754   24768947.5044
      2701.9534       2105.4184          9.2504          8.2504
  -4199368.43146   -552206.03845  23441324.4384   23441329.0904
      -209.1414       -162.9674         12.5004         11.0004
 -16183361.72246  -7704064.09447  20659611.7194   20659614.7074
     -1564.3754      -1218.9944         18.2504         31.2504
 -12194805.81147    -33680.43146  21991545.8204   21991549.1484
       481.7504        375.3904         21.7504         18.0004
 -15384294.59948 -11843904.62447  21568356.8054   21568360.6024
      1477.0944       1150.9824         30.5004         27.5004
 99  4 23  0 17 30.0000000  0  7G30G17G21G22G 6G26G23
   7910316.66145   6319517.88545  24641934.2584   24641941.9144
     -3779.1874      -2944.8214          9.5004          8.5004
 -18041497.05347 -13912076.52547  21157601.7584   21157605.2154
       541.9384        422.2894         21.2504         30.2504
  -2367332.18545  -1717340.08545  24753528.7424   24753536.3874
      2697.4694       2101.9244          8.7504          7.5004
  -4192831.71146   -547112.46045  23442568.3524   23442573.2734
      -226.7664       -176.7004         13.0004         11.0004
 -16136184.13346  -7667302.33747  20668589.4304   20668592.2544
     -1580.8284      -1231.8144         18.2504         31.2504
 -12208973.99647    -44720.52146  21988849.5554   21988852.7074
       462.8594        360.6704         22.0004         18.0004
 -15428412.59148 -11878282.22847  21559961.2894   21559965.0044
      1464.1254       1140.8774         30.7504         27.5004
 99  4 23  0 18  0.0000000  0  7G30G17G21G22G 6G26G23
   8023667.74845   6407843.14545  24663504.1564   24663511.2274
     -3777.4374      -2943.4584         10.0004          8.0004
 -18057640.77147 -13924656.02647  21154529.8754   21154533.3444
       534.3594        416.3844         20.5004         30.2504
  -2448183.26545  -1780340.60445  24738143.1254   24738149.6054
      2692.5944       2098.1254          9.0004          7.0004
  -4185751.53946   -541595.39945  23443915.5634   23443919.8874
      -245.2194       -191.0804         12.7504         11.5004
 -16088506.67146  -7630151.07447  20677662.0084   20677664.9384
     -1597.5624      -1244.8544         18.0004         31.5004
 -12222582.16647    -55324.24446  21986260.2344   21986263.5864
       444.5164        346.3764         22.0004         18.0004
 -15472142.71348 -11912357.59747  21551639.6804   21551643.3714
      1451.1724       1130.7834         31.5004         27.7504
 99  4 23  0 18 30.0000000  0  7G30G17G21G22G 6G26G23
   8136959.89945   6496122.47745  24685063.4774   24685071.4264
     -3775.3914      -2941.8634         10.5004          8.2504
 -18073564.09847 -13937063.78847  21151499.3914   21151502.8714
       527.2034        410.8084         21.7504         30.2504
  -2528887.90345  -1843227.05745  24722784.7344   24722791.3324
      2687.6564       2094.2784          8.7504          8.2504
  -4178124.42446   -535652.15745  23445367.2424   23445372.1764
      -263.2194       -205.1064         13.0004         11.2504
 -16040335.52946  -7592615.12947  20686828.6644   20686831.5704
     -1613.8914      -1257.5774         18.0004         31.5004
 -12235655.87647    -65511.49946  21983772.4924   21983775.9614
       426.9694        332.7034         22.2504         17.7504
 -15515487.36348 -11946132.59247  21543391.2034   21543394.9534
      1438.3914       1120.8244         31.5004         27.7504
 99  4 23  0 19  0.0000000  0  7G30G17G21G22G 6G26G23
   8250179.26145   6584345.09145  24706608.3914   24706616.1414
     -3772.5474      -2939.6474         10.0004          8.0004
 -18089277.30247 -13949307.82247  21148509.2894   21148512.8054
       520.3754        405.4874         21.2504         30.2504
  -2609447.86645  -1906000.78445  24707454.6094   24707460.5274
      2683.1254       2090.7474          8.0004          7.7504
  -4169963.64246   -529293.07345  23446920.5394   23446925.4024
      -280.8754       -218.8644         13.2504         11.2504
 -15991672.55446  -7554695.93947  20696089.0474   20696092.0824
     -1630.2814      -1270.3494         18.0004         31.2504
 -12248196.45247    -75283.33446  21981385.8134   21981389.5164
       408.9844        318.6894         22.5004         18.2504
 -15558444.32748 -11979605.49547  21535216.8754   21535220.5784
      1425.3284       1110.6454         31.7504         28.0004
 99  4 23  0 19 30.0000000  0  7G30G17G21G22G 6G26G23
   8363304.41145   6672494.29945  24728135.6024   24728142.9184
     -3769.4374      -2937.2244          9.7504          8.5004
 -18104802.60347 -13961405.43647  21145554.8834   21145558.3984
       514.7664        401.1164         25.5004         30.2504
  -2689877.75645  -1968673.16845  24692149.4384   24692157.4694
      2678.5004       2087.1434          8.0004          7.7504
  -4161279.11646   -522525.89045  23448572.3364   23448576.6844
      -298.2034       -232.3664         13.2504         11.2504
 -15942527.37146  -7516400.99247  20705440.9384   20705443.7154
     -1646.2034      -1282.7564         18.2504         31.5004
 -12260195.58947    -84633.26046  21979102.4774   21979105.7704
       390.6884        304.4324         21.7504         18.0004
 -15601011.44348 -12012774.62347  21527116.5634   21527120.3134
      1412.2504       1100.4554         31.7504         28.2504
 99  4 23  0 20  0.0000000  0  7G30G17G21G22G 6G26G23
   8476337.10045   6760571.46445  24749645.0084   24749652.1484
     -3766.2664      -2934.7524         10.0004          8.5004
 -18120178.11347 -13973386.33147  21142629.1414   21142632.6454
       510.0784        397.4634         23.5004         30.2504
  -2770157.65845  -2031228.65245  24676872.4614   24676880.8674
      2673.4694       2083.2224          9.0004          7.2504
  -4152078.72546   -515356.73745  23450323.3284   23450328.2274
      -315.1874       -245.6014         13.5004         11.5004
 -15892908.31746  -7477736.80547  20714883.1024   20714885.8444
     -1661.9064      -1294.9924         18.2504         31.2504
 -12271641.55347    -93552.14946  21976924.5944   21976927.6414
       372.1254        289.9684         21.7504         18.2504
 -15643177.42948 -12045631.17847  21519092.5554   21519096.3754
      1398.6724       1089.8744         30.0004         28.5004
 99  4 23  0 20 30.0000000  0  7G30G17G21G22G 6G26G23
   8589275.94545   6848575.46645  24771137.2114   24771143.4454
     -3763.0944      -2932.2814         10.2504          8.2504
 -18135414.61648 -13985258.91347  21139729.5784   21139733.1764
       505.6724        394.0304         28.0004         30.5004
  -2850298.49545  -2093675.78845  24661621.9144   24661629.3484
      2669.2814       2079.9594          9.2504          6.7504
  -4142379.95046   -507799.19845  23452168.9534   23452173.1604
      -331.4374       -258.2634         12.5004         11.2504
 -15842820.98046  -7438707.71847  20724414.6334   20724417.5164
     -1677.2504      -1306.9484         18.0004         31.5004
 -12282522.78747   -102030.98346  21974853.8444   21974856.9384
       353.0314        275.0894         23.0004         18.2504
 -15684941.33548 -12078174.42147  21511145.3754   21511149.1604
      1385.5944       1079.6834         32.0004         28.5004
 99  4 23  0 21  0.0000000  0  7G30G17G21G22G 6G26G23
   8702120.24145   6936505.80045  24792610.6804   24792617.3134
     -3759.7974      -2929.7124         10.5004          8.5004
 -18150518.53447 -13997028.17747  21136855.3754   21136859.0084
       501.2664        390.5974         25.5004         30.5004
  -2930310.83545  -2156022.83245  24646396.0084   24646403.3484
      2664.8914       2076.5384          8.5004          7.7504
  -4132187.35546   -499856.88545  23454108.7114   23454113.6454
      -348.0164       -271.1814         13.0004         11.2504
 -15792272.65046  -7399319.41547  20734033.6484   20734036.3444
     -1692.5784      -1318.8924         18.2504         31.2504
 -12292817.58547   -110052.85446  21972894.8364   21972898.1174
       333.3444        259.7484         23.5004         18.5004
 -15726311.84648 -12110411.12447  21503272.5704   21503276.3094
      1372.5784       1069.5414         31.7504         28.7504
 99  4 23  0 21 30.0000000  0  7G30G17G21G22G 6G26G23
   8814863.08845   7024357.11945  24814065.3364   24814071.7234
     -3756.2814      -2926.9724          9.7504          7.7504
 -18165488.30747 -14008692.91147  21134006.8754   21134010.5314
       496.7344        387.0664         26.7504         30.7504
  -3010188.85745  -2218265.18945  24631195.7344   24631201.8524
      2660.3594       2073.0074          9.5004          8.0004
  -4121499.88646   -491528.96045  23456142.3134   23456147.5164
      -364.4844       -284.0144         13.5004         11.7504
 -15741267.28846  -7359574.98247  20743739.3364   20743742.0664
     -1707.7504      -1330.7144         18.2504         31.2504
 -12302526.90247   -117618.51446  21971047.1094   21971050.4264
       313.9224        244.6144         22.2504         18.5004
 -15767298.69448 -12142348.86647  21495472.9454   21495476.6024
      1360.0164       1059.7524         30.5004         28.5004
 99  4 23  0 22  0.0000000  0  7G30G17G21G22G 6G26G23
   8927494.89345   7112121.87845  24835498.5704   24835506.2624
     -3752.2974      -2923.8684          9.7504          8.7504
 -18180308.42147 -14020241.03047  21131186.5784   21131190.1414
       491.3284        382.8534         27.0004         30.7504
  -3089935.09645  -2280404.85345  24616020.5234   24616026.8524
      2656.3134       2069.8544          9.5004          7.7504
  -4110313.82046   -482812.52545  23458270.8754   23458275.9614
      -381.1564       -297.0054         14.0004         11.7504
 -15689805.75946  -7319475.08947  20753532.3674   20753535.1094
     -1722.9844      -1342.5854         18.2504         31.2504
 -12311651.69747   -124728.70446  21969310.6954   21969314.1764
       294.6414        229.5904         22.7504         18.7504
 -15807915.20448 -12173998.03547  21487744.0554   21487747.8524
      1347.9844       1050.3774         30.2504         28.7504
 99  4 23  0 22 30.0000000  0  7G30G17G21G22G 6G26G23
   9040007.97045   7199794.09645  24856909.2114   24856918.2154
     -3748.5624      -2920.9584          9.2504          7.7504
 -18194962.31146 -14031659.62247  21128398.0554   21128401.6294
       485.6564        378.4334         19.5004         31.0004
  -3169558.74845  -2342449.02445  24600867.4774   24600873.1844
      2651.7344       2066.2874          9.2504          7.7504
  -4098627.28546   -473706.12745  23460494.7344   23460499.0824
      -397.9534       -310.0934         13.5004         11.5004
 -15637877.30846  -7279011.36847  20763414.1414   20763416.9654
     -1738.9374      -1355.0164         18.0004         31.0004
 -12320198.06247   -131388.17046  21967684.3204   21967687.3444
       275.1564        214.4074         23.0004         18.7504
 -15848172.18748 -12205367.05347  21480083.2504   21480086.9184
      1335.7504       1040.8444         30.7504         28.7504
 99  4 23  0 23  0.0000000  0  7G30G17G21G22G 6G26G23
   9152403.64345   7287374.86145  24878298.1334   24878303.6644
     -3744.7974      -2918.0244          9.5004          7.0004
 -18209449.98047 -14042948.69847  21125641.1094   21125644.6254
       479.7034        373.7954         20.2504         31.0004
  -3249037.06245  -2404379.93245  24585743.5314   24585750.4734
      2646.4224       2062.1474          9.7504          9.0004
  -4086441.50546   -464210.69545  23462813.5164   23462818.2504
      -414.7664       -323.1944         14.2504         11.7504
 -15585470.00646  -7238174.52347  20773386.8754   20773389.6294
     -1755.2664      -1367.7394         18.0004         31.0004
 -12328172.44947   -137601.94146  21966166.6414   21966169.6174
       256.1724        199.6144         23.5004         18.5004
 -15888063.65348 -12236451.25647  21472492.1484   21472495.7584
      1323.2974       1031.1404         28.7504         29.0004
 99  4 23  0 23 30.0000000  0  7G30G17G21G22G 6G26G23
   9264694.08745   7374873.63745  24899666.1644   24899674.3834
     -3741.2194      -2915.2354          9.2504          7.0004
 -18223749.52846 -14054091.18247  21122920.0474   21122923.5394
       473.6564        369.0834         19.0004         31.2504
  -3328359.85945  -2466189.66345  24570648.1954   24570654.0434
      2641.8284       2058.5674         10.0004          8.5004
  -4073747.59346   -454319.32645  23465229.1484   23465234.3284
      -431.4224       -336.1734         14.5004         11.5004
 -15532569.81046  -7196953.59747  20783453.3284   20783456.1414
     -1771.4374      -1380.3414         18.2504         31.0004
 -12335573.32247   -143368.81446  21964758.3834   21964761.3954
       237.1094        184.7614         22.7504         19.0004
 -15927575.39047 -12267239.56647  21464973.2504   21464976.8714
      1310.7974       1021.4004         25.7504         29.0004
 99  4 23  0 24  0.0000000  0  7G30G17G21G22G 6G26G23
   9376883.63645   7462293.72445  24921015.5864   24921025.1174
     -3738.0314      -2912.7524          9.0004          7.7504
 -18237869.16146 -14065093.47247  21120233.1174   21120236.3164
       467.7194        364.4564         18.2504         31.2504
  -3407543.77245  -2527891.11145  24555580.3054   24555587.7274
      2637.0634       2054.8544          9.2504          8.5004
  -4060558.52246   -444042.09645  23467739.4844   23467743.5044
      -447.6254       -348.7994         14.2504         11.2504
 -15479181.69546  -7155352.48247  20793612.9384   20793615.7384
     -1787.7194      -1393.0284         18.0004         31.0004
 -12342398.46347   -148687.06746  21963459.3524   21963462.4804
       218.1254        169.9684         23.2504         19.2504
 -15966707.52447 -12297732.08347  21457526.7424   21457530.2814
      1298.0314       1011.4534         23.2504         29.5004
 99  4 23  0 24 30.0000000  0  7G30G17G21G22G 6G26G23
   9488984.74245   7549644.93745  24942347.6954   24942355.9264
     -3735.2504      -2910.5844          9.2504          7.2504
 -18251806.92846 -14075954.04747  21117580.7584   21117584.1564
       461.6254        359.7084         17.7504         31.5004
  -3486572.96645  -2589472.04245  24540541.6254   24540548.5784
      2631.6094       2050.6054         10.0004          8.0004
  -4046888.83746   -433390.37845  23470340.3524   23470345.0864
      -463.5784       -361.2304         14.0004         11.5004
 -15425298.56946  -7113365.62847  20803866.4614   20803869.2624
     -1804.1724      -1405.8484         18.0004         31.0004
 -12348653.41047   -153561.00546  21962269.3914   21962272.7544
       198.9064        154.9924         23.7504         19.0004
 -16005445.25847 -12327917.27747  21450155.1644   21450158.6684
      1284.4844       1000.8974         22.0004         29.5004
 99  4 23  0 25  0.0000000  0  7G30G17G21G22G 6G26G23
   9600993.47745   7636924.17245  24963662.4384   24963672.2384
     -3732.2344      -2908.2354          8.7504          7.2504
 -18265563.93546 -14086673.76847  21114962.9844   21114966.3134
       455.4064        354.8624         18.0004         31.2504
  -3565447.74045  -2650932.67845  24525531.9304   24525537.7074
      2626.5944       2046.6964          9.7504          8.0004
  -4032744.26246   -422368.60145  23473031.8914   23473037.6334
      -479.7034       -373.7954         13.5004         11.2504
 -15370940.95746  -7071009.05947  20814210.3364   20814213.1254
     -1819.9064      -1418.1094         18.0004         31.0004
 -12354340.47347   -157992.46146  21961187.1724   21961190.3364
       179.9224        140.1994         23.0004         19.2504
 -16043781.08046 -12357789.29447  21442859.9304   21442863.3874
      1270.9534        990.3534         19.0004         29.7504
 99  4 23  0 25 30.0000000  0  7G30G17G21G22G 6G26G23
   9712908.42145   7724130.32545  24984958.8754   24984965.4264
     -3728.7664      -2905.5324          8.0004          7.5004
 -18279141.85046 -14097253.94147  21112379.1334   21112382.3794
       449.8134        350.5034         18.0004         31.5004
  -3644181.16845  -2712283.09445  24510549.4064   24510555.1484
      2622.2034       2043.2754         10.5004          8.2504
  -4018108.25246   -410963.90445  23475817.4694   23475822.0164
      -496.0474       -386.5304         14.2504         11.0004
 -15316115.04546  -7028287.58147  20824643.4614   20824646.3324
     -1835.2504      -1430.0654         18.5004         30.7504
 -12359451.65447   -161975.15446  21960214.4064   21960217.7114
       160.8134        125.3084         24.5004         19.0004
 -16081712.77646 -12387346.41247  21435641.8674   21435645.1724
      1257.8914        980.1754         19.2504         30.0004
 99  4 23  0 26  0.0000000  0  7G30G17G21G22G 6G26G23
   9824720.30745   7811256.17545  25006236.5084   25006245.6294
     -3725.1874      -2902.7444          8.0004          7.0004
 -18292548.69046 -14107700.80547  21109827.9304   21109831.1414
       444.0944        346.0474         17.7504         31.5004
  -3722765.31345  -2773517.22845  24495594.7114   24495599.8914
      2616.8284       2039.0874          9.2504          8.0004
  -4002976.94546   -399173.27045  23478696.5004   23478700.7544
      -512.7034       -399.5094         14.5004         11.5004
 -15260824.36146  -6985203.94847  20835164.8834   20835167.9064
     -1850.5474      -1441.9854         19.0004         30.2504
 -12363991.08647   -165512.34846  21959350.5314   21959353.7774
       141.9384        110.6014         23.5004         19.0004
 -16119258.68946 -12416602.92047  21428496.9774   21428500.3754
      1245.2504        970.3254         18.5004         30.0004
 99  4 23  0 26 30.0000000  0  7G30G17G21G22G 6G26G23
   9936423.84545   7898297.51845  25027493.4304   25027504.2854
     -3721.7034      -2900.0284          7.7504          7.5004
 -18305784.03446 -14118014.03347  21107309.4144   21107312.6604
       438.3914        341.6034         18.0004         31.7504
  -3801191.24645  -2834628.08345  24480670.7584   24480677.2154
      2611.5944       2035.0084         10.5004          8.5004
  -3987334.05046   -386983.98945  23481673.1644   23481677.7934
      -530.2664       -413.1944         14.5004         11.5004
 -15205081.02046  -6941767.59147  20845772.5004   20845775.5004
     -1865.6254      -1453.7344         19.7504         30.5004
 -12367956.40547   -168602.17346  21958596.0864   21958599.3794
       122.3134         95.3084         23.2504         19.0004
 -16156419.33346 -12445559.22147  21421425.5944   21421429.0394
      1232.0634        960.0494         19.5004         29.7504
 99  4 23  0 27  0.0000000  0  7G30G17G21G22G 6G26G23
  10048023.56945   7985258.04845  25048730.7034   25048734.5004
     -3718.2814      -2897.3624          7.5004          6.2504
 -18318852.49846 -14128197.22647  21104822.5164   21104825.7034
       432.9844        337.3904         18.0004         31.7504
  -3879462.44445  -2895618.37145  24465776.0084   24465783.4774
      2606.4534       2031.0024         10.2504          8.2504
  -3971158.40946   -374379.56845  23484751.3914   23484756.5354
      -548.0314       -427.0374         14.0004         11.5004
 -15148882.19246  -6897976.30647  20856466.8444   20856469.7384
     -1881.0474      -1465.7514         18.5004         30.2504
 -12371329.55547   -171230.56446  21957953.9924   21957957.0984
       102.6414         79.9804         24.2504         19.5004
 -16193186.50147 -12474208.91647  21414429.0314   21414432.5124
      1219.2344        950.0534         20.0004         29.7504
 99  4 23  0 27 30.0000000  0  7G30G17G21G22G 6G26G23
  10159518.39745   8072136.78645  25069947.4064   25069957.3714
     -3714.7504      -2894.6104          7.7504          7.0004
 -18331760.50146 -14138255.38647  21102366.0784   21102369.3364
       427.3594        333.0074         18.0004         31.7504
  -3957577.04845  -2956486.65545  24450910.9454   24450917.1564
      2600.8914       2026.6684         10.0004          8.2504
  -3954456.14746   -361364.81645  23487929.4304   23487934.2344
      -565.3284       -440.5154         13.5004         11.0004
 -15092218.24146  -6853822.59247  20867249.7504   20867252.5274
     -1896.6094      -1477.8774         18.7504         30.5004
 -12374110.81747   -173397.76146  21957424.9614   21957428.1724
        82.7034         64.4444         24.2504         19.0004
 -16229577.96947 -12502565.86347  21407503.8674   21407507.3244
      1206.8134        940.3734         20.2504         30.0004
 99  4 23  0 28  0.0000000  0  7G30G17G21G22G 6G26G23
  10270906.25945   8158932.18545  25091143.3204   25091151.3404
     -3710.9694      -2891.6644          7.5004          7.0004
 -18344499.09346 -14148181.53247  21099941.8914   21099945.3484
       421.9694        328.8074         17.7504         31.7504
  -4035514.10245  -3017216.59845  24436079.8364   24436087.3984
      2595.0474       2022.1144         10.2504          8.5004
  -3937245.93146   -347954.24245  23491204.1644   23491209.3094
      -581.9844       -453.4944         13.7504         11.2504
 -15035092.69646  -6809309.18847  20878120.1724   20878122.9024
     -1911.5944      -1489.5544         18.2504         30.2504
 -12376294.74647   -175099.48546  21957009.3594   21957012.4064
        62.9534         49.0544         23.5004         19.0004
 -16265590.99146 -12530627.92047  21400650.6334   21400653.8914
      1193.9224        930.3294         19.0004         30.0004
 99  4 23  0 28 30.0000000  0  7G30G17G21G22G 6G26G23
  10382177.09644   8245636.42445  25112318.0944   25112329.8524
     -3706.9224      -2888.5114          7.0004          6.5004
 -18357068.98946 -14157976.22947  21097549.9694   21097553.3444
       416.2034        324.3144         18.0004         31.7504
  -4113277.44645  -3077811.15445  24421281.7974   24421287.7034
      2589.1884       2017.5494         10.2504          8.5004
  -3919539.78746   -334157.25345  23494574.1564   23494578.6914
      -598.1874       -466.1204         14.2504         11.7504
 -14977511.98146  -6764441.10847  20889077.4304   20889080.3364
     -1927.0474      -1501.5954         19.5004         30.0004
 -12377881.71747   -176336.05246  21956707.1174   21956710.3284
        43.1094         33.5924         24.2504         19.0004
 -16301201.88946 -12558376.63447  21393874.0944   21393877.5044
      1180.4384        919.8214         19.2504         29.7504
 99  4 23  0 29  0.0000000  0  7G30G17G21G22G 6G26G23
  10493321.72844   8332242.28145  25133468.6254   25133479.1174
     -3702.3124      -2884.9194          6.7504          7.0004
 -18369464.31646 -14167634.90347  21095191.2114   21095194.4694
       410.4064        319.7974         17.7504         31.7504
  -4190853.04145  -3138259.43745  24406518.7814   24406524.3834
      2582.7814       2012.5574         10.0004          8.7504
  -3901357.08946   -319988.89646  23498033.8134   23498038.2544
      -613.7664       -478.2594         14.0004         12.0004
 -14919460.03247  -6719205.83847  20900124.3834   20900127.2424
     -1942.6874      -1513.7824         20.5004         29.7504
 -12378882.48947   -177115.83546  21956516.7584   21956519.9574
        23.9844         18.6894         24.5004         18.7504
 -16336420.31746 -12585819.52947  21387172.1804   21387175.7074
      1167.8594        910.0204         18.5004         30.0004
 99  4 23  0 29 30.0000000  0  7G30G17G21G22G 6G26G23
  10604319.27044   8418733.52145  25154591.1024   25154601.2424
     -3697.3444      -2881.0474          7.0004          6.7504
 -18381685.61446 -14177157.96647  21092865.6334   21092869.0204
       404.4384        315.1464         18.0004         31.7504
  -4268237.45345  -3198558.75345  24391793.7194   24391799.7304
      2576.3594       2007.5534         10.5004          8.7504
  -3882702.21246   -305452.64346  23501583.9064   23501587.9614
      -629.7504       -490.7144         14.0004         12.5004
 -14860946.34947  -6673610.77247  20911259.1334   20911262.1804
     -1958.1414      -1525.8244         21.7504         29.7504
 -12379304.74847   -177444.83746  21956436.4384   21956439.4494
         4.2664          3.3244         23.7504         19.2504
 -16371259.70246 -12612967.06547  21380542.5004   21380545.8874
      1154.7974        899.8424         18.5004         30.0004
 99  4 23  0 30  0.0000000  0  7G30G17G21G22G 6G26G23
  10715160.18644   8505102.74845  25175683.7734   25175691.7234
     -3691.8594      -2876.7744          7.2504          6.0004
 -18393735.72746 -14186547.64147  21090572.5084   21090575.8714
       399.0004        310.9094         17.7504         31.7504
  -4345438.44645  -3258715.17945  24377102.7974   24377109.1024
      2570.5784       2003.0484         10.7504          9.0004
  -3863570.48546   -290544.80746  23505224.7504   23505229.7194
      -645.7034       -503.1454         13.7504         12.0004
 -14801969.94447  -6627655.14047  20922481.9844   20922484.9144
     -1973.5784      -1537.8534         23.0004         29.5004
 -12379141.73647   -177317.77046  21956467.4614   21956470.6254
       -14.9844        -11.6764         24.2504         19.2504
 -16405700.20046 -12639803.78247  21373988.6954   21373992.1174
      1141.3914        889.3954         18.5004         30.2504
 99  4 23  0 30 30.0000000  0  7G30G17G21G22G 6G26G23
  10825838.81244   8591345.47245  25196744.7274   25196754.3404
     -3686.8284      -2872.8534          7.0004          6.2504
 -18405613.73246 -14195803.20247  21088312.1804   21088315.6724
       392.7814        306.0634         17.7504         31.7504
  -4422467.52245  -3318737.60045  24362444.4694   24362450.7034
      2564.6414       1998.4214         10.5004          8.7504
  -3843955.95146   -275260.74645  23508956.9384   23508961.5204
      -662.0314       -515.8694         13.7504         11.5004
 -14742513.84347  -6581325.72347  20933796.1334   20933799.2504
     -1990.2974      -1550.8814         23.2504         29.5004
 -12378396.82747   -176737.28146  21956609.1414   21956612.3404
       -34.8594        -27.1634         24.2504         19.0004
 -16439740.77346 -12666328.87247  21367511.0864   21367514.6134
      1127.9694        878.9374         18.2504         30.5004
 99  4 23  0 31  0.0000000  0  7G30G17G21G22G 6G26G23
  10936360.04644   8677465.53545  25217776.9064   25217786.2854
     -3681.5004      -2868.7014          6.7504          5.7504
 -18417319.65246 -14204924.67747  21086084.6334   21086087.9384
       387.2034        301.7174         18.0004         32.0004
  -4499335.16645  -3378634.23445  24347816.4774   24347823.1214
      2559.7034       1994.5744         10.2504          8.5004
  -3823853.07346   -259596.16646  23512782.3054   23512786.5474
      -678.5314       -528.7264         14.2504         12.2504
 -14682562.19147  -6534610.15547  20945204.6094   20945207.5164
     -2006.7194      -1563.6774         21.7504         29.7504
 -12377057.07947   -175693.28346  21956864.0944   21956867.0474
       -54.9374        -42.8084         24.2504         19.2504
 -16473387.00546 -12692546.68047  21361108.3284   21361111.9144
      1114.5944        868.5154         17.7504         30.7504
 99  4 23  0 31 30.0000000  0  7G30G17G21G22G 6G26G23
  11046735.51244   8763472.00845  25238780.7114   25238789.2934
     -3676.8594      -2865.0854          6.5004          6.7504
 -18428840.37346 -14213901.84347  21083892.3984   21083895.7624
       380.7814        296.7134         18.0004         32.2504
  -4576054.62945  -3438415.39245  24333217.3364   24333224.4774
      2555.0944       1990.9824         10.5004          8.2504
  -3803246.18746   -243538.84646  23516703.7584   23516708.8674
      -695.0164       -541.5714         14.0004         12.0004
 -14622106.12647  -6487501.54147  20956709.0864   20956712.0864
     -2023.6254      -1576.8514         20.7504         29.5004
 -12375095.48647   -174164.73246  21957237.1484   21957239.9964
       -75.7814        -59.0504         24.0004         19.2504
 -16506608.61646 -12718433.61447  21354786.2664   21354789.8404
      1100.2504        857.3384         17.7504         31.0004
 99  4 23  0 32  0.0000000  0  7G30G17G21G22G 6G26G23
  11156978.03243   8849374.93545  25259759.3364   25259763.6954
     -3672.6874      -2861.8344          6.0004          5.2504
 -18440157.60946 -14222720.45747  21081738.7194   21081742.0004
       373.7344        291.2224         18.0004         32.2504
  -4652633.49845  -3498086.99645  24318644.4694   24318652.0204
      2550.1724       1987.1474         10.0004          9.0004
  -3782152.68246   -227102.34345  23520717.8134   23520723.3914
      -711.2814       -554.2454         14.0004         11.5004
 -14561142.80647  -6439997.66947  20968309.8134   20968312.7424
     -2040.4534      -1589.9634         22.5004         29.5004
 -12372512.11547   -172151.68646  21957728.7194   21957731.9304
       -96.3284        -75.0614         24.7504         19.2504
 -16539402.18846 -12743987.01147  21348546.0084   21348549.5594
      1086.1254        846.3314         18.0004         31.2504
 99  4 23  0 32 30.0000000  0  7G30G17G21G22G 6G26G23
  11267099.80444   8935183.66645  25280715.7194   25280722.6254
     -3668.9374      -2858.9124          6.2504          5.7504
 -18451265.82546 -14231376.18947  21079624.9224   21079628.2734
       366.8134        285.8284         18.0004         32.0004
  -4729064.20145  -3557643.16245  24304100.3204   24304106.0634
      2545.1884       1983.2634         10.0004          8.7504
  -3760565.74146   -210281.36245  23524825.8834   23524831.6484
      -728.0004       -567.2734         13.7504         11.0004
 -14499677.93947  -6392102.97247  20980006.4224   20980009.4454
     -2057.1094      -1602.9424         24.5004         29.5004
 -12369314.38847   -169659.91646  21958337.4144   21958340.5554
      -116.9224        -91.1084         25.2504         19.2504
 -16571782.33246 -12769218.25347  21342384.1644   21342387.6094
      1072.5164        835.7264         18.0004         31.2504
 99  4 23  0 33  0.0000000  0  7G30G17G21G22G 6G26G23
  11377104.81844   9020901.51945  25301648.0004   25301655.9144
     -3664.8914      -2855.7594          6.5004          5.2504
 -18462180.46746 -14239881.09347  21077547.8134   21077551.1054
       360.5944        280.9824         18.0004         32.2504
  -4805345.09745  -3617082.54445  24289584.7034   24289590.6564
      2539.9844       1979.2094          9.7504          9.0004
  -3738473.95246   -193066.99145  23529029.8984   23529034.8324
      -744.9374       -580.4714         14.0004         11.2504
 -14437732.00047  -6343833.42047  20991794.0474   20991797.0004
     -2072.6094      -1615.0204         25.2504         29.0004
 -12365511.44047   -166696.55346  21959061.0004   21959063.9774
      -136.6564       -106.4854         22.7504         19.2504
 -16603761.75946 -12794137.25247  21336298.7424   21336302.2584
      1059.3444        825.4634         18.0004         31.5004
 99  4 23  0 33 30.0000000  0  7G30G17G21G22G 6G26G23
  11486992.29743   9106527.73645  25322561.1024   25322574.0554
     -3660.7814      -2852.5574          5.7504          5.0004
 -18472894.63746 -14248229.78647  21075508.9384   21075512.1254
       353.9224        275.7834         18.0004         32.0004
  -4881451.40745  -3676385.93845  24275101.4534   24275107.3714
      2533.8284       1974.4124          9.7504          8.5004
  -3715871.07946   -175454.35245  23533330.6174   23533335.6804
      -761.9844       -593.7544         14.0004         11.0004
 -14375324.58947  -6295204.27447  21003669.9614   21003672.9964
     -2087.7034      -1626.7824         26.7504         29.0004
 -12361123.35147   -163277.22646  21959896.0164   21959899.0394
      -155.7504       -121.3644         24.2504         19.0004
 -16635350.87546 -12818752.10847  21330287.4844   21330290.8714
      1046.8134        815.6984         18.2504         31.7504
 99  4 23  0 34  0.0000000  0  7G30G17G21G22G 6G26G23
  11596741.44143   9192046.14145  25343445.1564   25343456.6454
     -3655.6724      -2848.5754          6.0004          5.5004
 -18483428.01746 -14256437.60347  21073504.4454   21073507.7274
       348.5634        271.6074         17.7504         32.0004
  -4957369.09645  -3735542.32645  24260654.5084   24260659.1374
      2527.3594       1969.3714         10.0004          8.5004
  -3692748.91746   -157437.08145  23537730.5314   23537735.5234
      -779.5784       -607.4634         13.5004         11.7504
 -14312478.46847  -6246233.28147  21015629.3444   21015632.2384
     -2102.1254      -1638.0194         26.0004         29.0004
 -12356169.63247   -159417.15846  21960838.6954   21960841.7664
      -174.4374       -135.9254         24.0004         19.2504
 -16666573.77946 -12843081.60947  21324345.9924   21324349.3674
      1034.7034        806.2624         18.2504         31.7504
 99  4 23  0 34 30.0000000  0  7G30G17G21G22G 6G26G23
  11706332.49943   9277441.39745  25364299.9774   25364313.3524
     -3650.2344      -2844.3384          5.5004          4.7504
 -18493804.14346 -14264522.88547  21071530.1024   21071533.5124
       343.1254        267.3704         17.7504         32.0004
  -5033085.31745  -3794541.69145  24246246.0864   24246250.7034
      2520.4384       1963.9774         10.0004          8.5004
  -3669089.81446   -139001.41745  23542233.1954   23542237.3094
      -797.5314       -621.4534         13.5004         11.2504
 -14249189.39447  -6196917.12547  21027672.8674   21027675.8094
     -2117.0474      -1649.6474         25.5004         28.7504
 -12350646.46747   -155113.35946  21961889.5784   21961892.5204
      -193.7814       -150.9984         24.5004         19.2504
 -16697422.84546 -12867119.80547  21318475.5394   21318478.9384
      1021.8754        796.2664         18.2504         32.0004
 99  4 23  0 35  0.0000000  0  7G30G17G21G22G 6G26G23
  11815742.90043   9362695.92945  25385120.5704   25385131.0864
     -3643.7034      -2839.2494          5.5004          4.5004
 -18504015.67246 -14272479.90847  21069586.7814   21069590.1094
       337.5634        263.0364         18.0004         31.7504
  -5108592.09345  -3853377.90845  24231877.8134   24231883.4844
      2513.3594       1958.4624         10.2504          8.7504
  -3644916.03346   -120164.71745  23546832.9844   23546836.5474
      -813.8914       -634.2004         13.2504         11.0004
 -14185464.96447  -6147261.73847  21039799.2194   21039802.1254
     -2131.2974      -1660.7514         26.0004         29.0004
 -12344546.31847   -150359.97046  21963050.0314   21963052.9614
      -213.0474       -166.0114         22.7504         19.2504
 -16727884.46246 -12890856.08947  21312678.9384   21312682.2774
      1008.8754        786.1364         18.2504         32.0004
 99  4 23  0 35 30.0000000  0  7G30G17G21G22G 6G26G23
  11924956.85243   9447797.30145  25405904.4454   25405917.4574
     -3637.0784      -2834.0874          5.5004          5.2504
 -18514054.60046 -14280302.43947  21067676.4304   21067679.7584
       331.9064        258.6284         17.7504         32.0004
  -5183893.61445  -3912054.19145  24217547.8524   24217553.4184
      2506.8754       1953.4094          9.7504          8.5004
  -3620264.28946   -100955.56745  23551523.9534   23551528.9574
      -829.4694       -646.3394         13.5004         11.5004
 -14121306.29447  -6097267.98647  21052008.2664   21052011.1254
     -2146.0004      -1672.2084         24.7504         28.7504
 -12337854.39047   -145145.45246  21964323.9144   21964326.8554
      -233.2034       -181.7174         23.0004         19.0004
 -16757952.37946 -12914285.60047  21306957.1094   21306960.4494
       995.5784        775.7754         18.2504         31.7504
 99  4 23  0 36  0.0000000  0  6G17G21G22G 6G26G23
 -18523926.66646 -14287994.94847  21065798.0004   21065801.3164
       325.9694        254.0024         17.7504         32.0004
  -5259004.05845  -3970581.58245  24203254.6884   24203261.1214
      2500.4534       1948.4054          9.7504          8.7504
  -3595151.73546    -81387.32945  23556303.0944   23556307.3244
      -844.6414       -658.1624         14.7504         11.7504
 -14056696.69647  -6046922.86447  21064302.8204   21064305.8444
     -2161.5004      -1684.2864         25.5004         28.7504
 -12330540.46947   -139446.27046  21965715.5004   21965718.5594
      -254.4374       -198.2634         24.5004         19.0004
 -16787609.02446 -12937394.63547  21301313.6094   21301316.9144
       981.3754        764.7084         18.2504         31.5004
 99  4 23  0 36 30.0000000  0  6G17G21G22G 6G26G23
 -18533611.94846 -14295541.91047  21063954.7504   21063958.1254
       319.5634        249.0104         18.5004         31.7504
  -5333927.70545  -4028963.41345  24188997.1564   24189002.1954
      2494.3284       1943.6324         10.0004          9.0004
  -3569595.93946    -61473.74445  23561165.8594   23561169.7154
      -859.0624       -669.3994         13.5004         11.7504
 -13991623.21847  -5996216.27647  21076685.9224   21076688.7114
     -2176.6564      -1696.0964         25.7504         28.5004
 -12322594.09247   -133254.25746  21967227.9924   21967230.8754
      -275.4064       -214.6024         25.0004         19.0004
 -16816841.84846 -12960173.41347  21295750.7114   21295753.9224
       967.5474        753.9334         18.2504         31.5004
 99  4 23  0 37  0.0000000  0  6G17G21G22G 6G26G23
 -18543103.16246 -14302937.64647  21062148.5864   21062151.9024
       313.3284        244.1524         18.2504         31.7504
  -5408667.12345  -4087201.71345  24174774.7194   24174780.8714
      2488.4694       1939.0674          9.7504          9.2504
  -3543608.77746    -41223.99745  23566111.4694   23566116.5204
      -873.3754       -680.5524         13.5004         11.0004
 -13926092.01248  -5945153.01347  21089156.3594   21089159.2074
     -2192.1414      -1708.1624         28.0004         28.5004
 -12314020.09347   -126573.19646  21968859.2504   21968862.0394
      -296.1414       -230.7594         25.0004         19.2504
 -16845665.66646 -12982633.49447  21290265.5314   21290268.7894
       954.1884        743.5234         18.2504         31.5004
 99  4 23  0 37 30.0000000  0  6G17G21G22G 6G26G23
 -18552412.90646 -14310191.97847  21060377.0164   21060380.4384
       307.5004        239.6104         17.7504         31.7504
  -5483239.09045  -4145309.51445  24160583.7664   24160588.9344
      2483.1884       1934.9514         10.0004          9.5004
  -3517176.94546    -20627.76846  23571141.0394   23571145.8674
      -888.6414       -692.4474         14.0004         12.0004
 -13860086.11648  -5893719.86647  21101716.6644   21101719.6764
     -2207.9844      -1720.5074         29.5004         28.2504
 -12304820.52447   -119404.67046  21970609.7114   21970612.7234
      -316.8914       -246.9284         24.0004         19.0004
 -16874089.33846 -13004781.77247  21284856.8754   21284860.0514
       940.9694        733.2224         18.2504         31.5004
 99  4 23  0 38  0.0000000  0  6G17G21G22G 6G26G23
 -18561549.67446 -14317311.52247  21058638.3054   21058641.6454
       301.6724        235.0694         17.7504         32.0004
  -5557649.18045  -4203291.22445  24146423.8594   24146429.0044
      2477.4694       1930.4954         10.2504          9.2504
  -3490279.64946       331.15745  23576259.3054   23576265.0944
      -904.6414       -704.9154         12.7504         11.5004
 -13793607.25948  -5841918.17247  21114367.3834   21114370.3364
     -2223.9224      -1732.9264         29.5004         28.5004
 -12295008.34247   -111758.79946  21972477.0474   21972480.2344
      -337.2034       -262.7564         24.2504         19.0004
 -16902120.54946 -13026624.23547  21279522.7344   21279525.9804
       927.9224        723.0564         18.2504         31.7504
 99  4 23  0 38 30.0000000  0  6G17G21G22G 6G26G23
 -18570521.57146 -14324302.59647  21056931.0394   21056934.3444
       296.3444        230.9174         17.7504         32.2504
  -5631890.78345  -4261141.62145  24132295.9534   24132302.2464
      2471.7344       1926.0274         10.0004          9.0004
  -3462900.28846     21665.73445  23581469.2194   23581473.9064
      -920.8914       -717.5774         13.0004         11.0004
 -13726656.92548  -5789749.09847  21127107.4064   21127110.2664
     -2239.5624      -1745.1144         28.7504         28.2504
 -12284598.66847   -103647.32546  21974457.8594   21974461.0474
      -357.0624       -278.2314         24.7504         19.2504
 -16929776.35946 -13048174.17947  21274259.8364   21274263.2234
       915.7344        713.5594         18.2504         31.7504
 99  4 23  0 39  0.0000000  0  6G17G21G22G 6G26G23
 -18579323.93746 -14331161.57247  21055255.8834   21055259.0704
       290.5164        226.3764         18.0004         32.0004
  -5705951.68245  -4318851.22745  24118202.2894   24118208.1134
      2465.8754       1921.4614         10.2504          9.0004
  -3435024.84846     43386.86745  23586773.6644   23586777.8364
      -937.4534       -730.4834         13.0004         11.0004
 -13659226.34448  -5737205.80547  21139939.2114   21139942.1764
     -2255.6414      -1757.6424         28.7504         28.2504
 -12273579.80247    -95061.18346  21976554.7034   21976557.6454
      -377.5004       -294.1564         24.2504         19.0004
 -16957058.74646 -13069433.14647  21269068.0234   21269071.2464
       903.0944        703.7094         18.5004         32.0004
 99  4 23  0 39 30.0000000  0  6G17G21G22G 6G26G23
 -18587950.20146 -14337883.31647  21053614.5474   21053617.8164
       284.3594        221.5794         18.0004         32.2504
  -5779837.68645  -4376424.57145  24104141.9454   24104147.0664
      2459.7344       1916.6764         10.0004          9.0004
  -3406646.28946     65500.01845  23592174.4384   23592179.3244
      -954.4844       -743.7544         12.7504         11.0004
 -13591325.23548  -5684295.86847  21152860.3984   21152863.3874
     -2271.0314      -1769.6354         30.5004         28.2504
 -12261947.73047    -85997.21246  21978768.1564   21978771.0864
      -398.0164       -310.1424         24.7504         19.2504
 -16983958.97546 -13090394.32547  21263949.2194   21263952.4534
       890.3134        693.7504         18.5004         32.2504
 99  4 23  0 40  0.0000000  0  6G17G21G22G 6G26G23
 -18596381.88246 -14344453.44447  21052009.9774   21052013.2114
       277.6414        216.3434         18.0004         32.5004
  -5853528.95645  -4433846.19145  24090119.0704   24090125.2704
      2452.9224       1911.3684         10.5004          9.2504
  -3377762.80246     88006.64145  23597670.7814   23597676.3954
      -971.1564       -756.7454         12.5004         10.7504
 -13522964.71848  -5631027.95547  21165868.8834   21165871.7894
     -2286.4064      -1781.6154         31.2504         28.2504
 -12249706.84647    -76458.83746  21981097.2344   21981100.3524
      -418.1094       -325.8004         24.5004         19.2504
 -17010480.07246 -13111060.08247  21258902.5004   21258905.8284
       877.6884        683.9124         18.5004         32.5004
 99  4 23  0 40 30.0000000  0  6G17G21G22G 6G26G23
 -18604600.50846 -14350857.55347  21050446.1254   21050449.3714
       270.1884        210.5364         18.2504         32.7504
  -5927013.79645  -4491106.97445  24076135.1254   24076141.1844
      2445.9694       1905.9504         10.7504          9.2504
  -3348384.85746    110898.54445  23603261.2814   23603266.4614
      -987.3444       -769.3594         13.0004         11.5004
 -13454147.56548  -5577404.21647  21178964.2274   21178967.2384
     -2301.3594      -1793.2674         32.0004         28.0004
 -12236862.37947    -66450.12946  21983541.5864   21983544.2464
      -438.2664       -341.5064         24.2504         19.2504
 -17036622.38146 -13131430.67947  21253927.6094   21253930.8324
       865.0004        674.0264         18.5004         32.5004
 99  4 23  0 41  0.0000000  0  6G17G21G22G 6G26G23
 -18612594.86146 -14357086.90647  21048924.5554   21048927.7194
       262.6724        204.6794         18.2504         32.7504
  -6000293.56445  -4548207.94145  24062190.1024   24062196.6414
      2439.2974       1900.7514         10.2504          9.2504
  -3318523.86246    134166.84145  23608943.3914   23608947.3634
     -1003.3754       -781.8514         13.0004         11.0004
 -13384884.86148  -5523433.29347  21192144.4924   21192147.2114
     -2316.2504      -1804.8704         31.5004         27.7504
 -12223414.96447    -55971.60646  21986100.6884   21986103.3954
      -458.2504       -357.0784         23.5004         19.2504
 -17062374.47746 -13151497.21647  21249027.3364   21249030.4654
       851.6564        663.6284         18.7504         32.5004
 99  4 23  0 41 30.0000000  0  6G17G21G22G 6G26G23
 -18620368.18946 -14363144.03147  21047445.5004   21047448.7814
       255.5634        199.1404         18.2504         33.0004
  -6073370.67445  -4605151.04845  24048284.1174   24048289.6024
      2432.3284       1895.3214         11.0004          9.0004
  -3288193.56746    157800.85545  23614715.4844   23614719.7154
     -1018.6254       -793.7344         12.5004         10.5004
 -13315174.42348  -5469113.48847  21205410.0234   21205412.9184
     -2331.3124      -1816.6074         32.5004         27.5004
 -12209373.40247    -45030.10346  21988772.6564   21988775.3404
      -477.8444       -372.3464         23.7504         19.2504
 -17087727.33646 -13171252.65747  21244202.6954   21244205.8954
       838.5784        653.4384         18.7504         32.5004
 99  4 23  0 42  0.0000000  0  6G17G21G22G 6G26G23
 -18627930.91846 -14369037.05247  21046006.3594   21046009.5944
       248.7814        193.8564         18.2504         33.0004
  -6146235.68845  -4661928.88045  24034418.6724   24034424.7074
      2425.4694       1889.9764         11.5004          9.7504
  -3257409.94246    181788.11845  23620572.9844   23620578.3634
     -1033.5784       -805.3864         12.5004         10.7504
 -13245000.72448  -5414432.70347  21218763.6724   21218766.5434
     -2346.9064      -1828.7584         32.5004         27.5004
 -12194740.94647    -33628.16846  21991557.0084   21991559.8794
      -497.6724       -387.7964         23.7504         19.2504
 -17112686.09246 -13190701.01247  21239453.2584   21239456.3874
       825.2664        643.0644         18.7504         32.5004
 99  4 23  0 42 30.0000000  0  6G17G21G22G 6G26G23
 -18635299.75046 -14374778.98147  21044604.1954   21044607.5004
       242.6254        189.0584         18.2504         33.0004
  -6218902.32445  -4718552.11445  24020590.4614   24020595.3134
      2419.0314       1884.9594         11.2504          9.5004
  -3226182.10146    206121.49445  23626515.2034   23626518.6254
     -1048.2194       -816.7944         13.0004         11.7504
 -13174367.25048  -5359393.64447  21232204.7664   21232207.6254
     -2361.9534      -1840.4834         32.2504         27.2504
 -12179508.69047    -21758.86346  21994455.7344   21994458.5004
      -517.7344       -403.4294         23.7504         19.5004
 -17137244.43246 -13209837.34547  21234779.9614   21234783.0904
       811.7504        632.5324         18.7504         32.5004
 99  4 23  0 43  0.0000000  0  6G17G21G22G 6G26G23
 -18642488.72946 -14380380.77147  21043235.9774   21043239.2704
       236.5944        184.3594         18.2504         33.0004
  -6291376.05045  -4775025.05045  24006799.1484   24006805.0084
      2412.5944       1879.9434         11.2504         10.0004
  -3194508.03645    230802.58445  23632542.5704   23632547.5984
     -1063.2344       -828.4944         11.5004         10.7504
 -13103273.79248  -5303996.16347  21245733.3284   21245736.2814
     -2377.5944      -1852.6704         32.0004         27.0004
 -12163675.35947     -9421.18546  21997468.8204   21997472.0204
      -537.7814       -419.0504         24.0004         19.2504
 -17161381.92746 -13228645.75547  21230186.5314   21230189.6254
       797.5004        621.4294         18.7504         32.7504
 99  4 23  0 43 30.0000000  0  6G17G21G22G 6G26G23
 -18649502.46046 -14385846.00347  21041901.4454   21041904.6454
       231.1094        180.0854         18.0004         32.7504
  -6363659.44645  -4831349.66045  23993043.6414   23993049.2774
      2406.4384       1875.1464         11.0004         10.0004
  -3162388.61446    255830.73345  23638655.0474   23638659.1374
     -1078.2034       -840.1584         12.5004         11.5004
 -13031717.34148  -5248237.90047  21259350.3204   21259353.2274
     -2392.6254      -1864.3834         32.0004         27.0004
 -12147243.07447      3383.22246  22000595.6174   22000598.4414
      -557.6724       -434.5504         23.7504         19.5004
 -17185100.81146 -13247127.97047  21225672.9224   21225676.0164
       783.7814        610.7394         18.7504         32.7504
 99  4 23  0 44  0.0000000  0  6G17G21G22G 6G26G23
 -18656348.62646 -14391180.66347  21040598.6724   21040601.9184
       225.4224        175.6534         18.0004         32.5004
  -6435760.75145  -4887532.44045  23979323.5634   23979328.9534
      2400.4844       1870.5074         11.2504          9.7504
  -3129801.50946    281223.25245  23644856.8054   23644861.7734
     -1094.0784       -852.5284         12.5004         10.7504
 -12959719.58448  -5192135.76547  21273050.8134   21273053.9534
     -2406.9064      -1875.5114         32.0004         27.0004
 -12130209.68147     16656.02046  22003836.9144   22003839.7624
      -577.8754       -450.2924         23.7504         19.7504
 -17208402.84146 -13265285.36547  21221238.8364   21221241.9774
       769.7344        599.7934         19.0004         32.7504
 99  4 23  0 44 30.0000000  0  6G17G21G22G 6G26G23
 -18663018.97346 -14396378.32647  21039329.3674   21039332.6254
       219.6094        171.1244         18.0004         32.5004
  -6507672.61245  -4943567.54845  23965638.9844   23965644.5394
      2393.9844       1865.4424         11.5004         10.5004
  -3096737.81446    306987.19045  23651148.1414   23651153.4734
     -1109.7504       -864.7404         12.2504         11.2504
 -12887297.54048  -5135703.02047  21286832.3524   21286835.3754
     -2420.8444      -1886.3724         32.0004         26.7504
 -12112563.08447     30406.63446  22007194.8674   22007197.9384
      -598.1724       -466.1084         23.2504         19.5004
 -17231278.16946 -13283110.26347  21216885.6414   21216888.7464
       755.6094        588.7874         19.2504         32.7504
 99  4 23  0 45  0.0000000  0  6G17G21G22G 6G26G23
 -18669518.91746 -14401443.20647  21038092.3134   21038095.5824
       213.7664        166.5714         18.0004         32.7504
  -6579394.01845  -4999454.27845  23951991.0234   23951996.4144
      2387.4224       1860.3294         11.0004          9.7504
  -3063208.10846    333114.24745  23657528.7034   23657533.1094
     -1125.4844       -877.0014         12.2504         10.7504
 -12814456.35348  -5078943.67447  21300693.7034   21300696.6454
     -2435.1724      -1897.5374         32.0004         26.7504
 -12094311.85847     44628.38546  22010668.0944   22010671.0824
      -618.7034       -482.1064         24.2504         19.2504
 -17253737.44646 -13300610.96447  21212611.7344   21212614.7934
       741.9844        578.1704         19.0004         33.0004
 99  4 23  0 45 30.0000000  0  7G 3G17G21G22G 6G26G23
    -15905.25155                  25237902.0004
      3181.6254                          8.0004
 -18675842.33146 -14406370.52847  21036889.1024   21036892.3484
       208.0314        162.1024         18.0004         32.5004
  -6650912.76545  -5055183.06545  23938381.2034   23938386.3834
      2380.5474       1854.9724         11.0004         10.2504
  -3029210.01346    359606.24745  23663998.5784   23664002.2344
     -1140.9534       -889.0544         12.7504         10.7504
 -12741189.65748  -5021852.76347  21314635.9144   21314638.9964
     -2449.1254      -1908.4094         31.7504         26.5004
 -12075434.68447     59337.88346  22014260.4774   22014263.4304
      -639.5784       -498.3734         24.2504         19.2504
 -17275802.35146 -13317804.36947  21208413.0704   21208416.1054
       729.1724        568.1864         19.0004         33.0004
 99  4 23  0 46  0.0000000  0  7G 3G17G21G22G 6G26G23
   -111331.86045                  25219743.9144
      3180.2034                          8.2504
 -18681992.70446 -14411163.01447  21035718.7194   21035721.8954
       202.0314        157.4274         18.0004         32.5004
  -6722214.39745  -5110742.69245  23924812.8134   23924817.9454
      2372.9064       1849.0184         11.5004         10.2504
  -2994752.53545    386456.25245  23670555.6954   23670560.5124
     -1155.9374       -900.7314         11.5004         11.7504
 -12667500.61748  -4964432.75047  21328658.2664   21328661.2194
     -2463.5314      -1919.6354         31.2504         26.2504
 -12055928.58647     74537.46446  22017971.9224   22017974.6174
      -660.7664       -514.8824         24.5004         19.2504
 -17297483.87546 -13334699.03047  21204287.1414   21204290.1764
       716.4384        558.2634         19.2504         33.0004
 99  4 23  0 46 30.0000000  0  7G 3G17G21G22G 6G26G23
   -206712.16245    -17336.23255  25201592.5634   25201597.7774
      3178.3284       2476.6194          9.0004          7.5004
 -18687966.32846 -14415817.77147  21034581.9534   21034585.2234
       196.2034        152.8864         18.0004         32.5004
  -6793289.87745  -5166126.12645  23911287.3674   23911292.4304
      2365.6724       1843.3814         11.5004         10.2504
  -2959861.15646    413644.33645  23677194.7734   23677199.1804
     -1170.1254       -911.7864         12.7504         11.2504
 -12593372.36348  -4906670.49447  21342764.6724   21342767.7894
     -2478.3594      -1931.1894         31.2504         26.2504
 -12035795.69247     90225.44446  22021803.4614   22021806.2034
      -681.3284       -530.9054         25.0004         19.5004
 -17318791.42646 -13351302.28247  21200232.2194   21200235.2664
       704.1724        548.7054         18.7504         33.0004
 99  4 23  0 47  0.0000000  0  7G 3G17G21G22G 6G26G23
   -302026.28345    -91607.01245  25183455.0864   25183462.4384
      3175.7814       2474.6354          8.0004          6.5004
 -18693757.67946 -14420330.50147  21033479.8444   21033483.0904
       189.7504        147.8574         18.0004         32.7504
  -6864155.54145  -5221346.00845  23897802.3984   23897806.7464
      2358.6254       1837.8904         11.2504          9.7504
  -2924533.61746    441172.28545  23683916.9924   23683921.8674
     -1185.1874       -923.5234         12.7504         10.2504
 -12518792.49948  -4848556.33447  21356956.6024   21356959.7304
     -2493.7504      -1943.1824         30.7504         26.2504
 -12015046.44847    106393.69846  22025751.6414   22025754.5234
      -702.0624       -547.0624         25.0004         19.2504
 -17339734.85346 -13367621.81247  21196247.0004   21196250.1174
       691.9844        539.2094         18.7504         33.0004
 99  4 23  0 47 30.0000000  0  7G 3G17G21G22G 6G26G23
   -397259.28445   -165814.42145  25165332.5234   25165339.1454
      3172.9534       2472.4314          8.2504          7.2504
 -18699350.81946 -14424688.77847  21032415.5944   21032418.7344
       183.1884        142.7444         18.0004         32.5004
  -6934813.39245  -5276403.96545  23884356.3674   23884361.8874
      2351.9694       1832.7034         11.2504          9.7504
  -2888758.83845    469048.71845  23690725.2194   23690730.0594
     -1199.8124       -934.9194         11.7504         11.7504
 -12443753.76048  -4790084.60247  21371236.1884   21371239.1644
     -2508.8754      -1954.9684         31.2504         26.0004
 -11993676.15947    123045.87846  22029818.3594   22029820.7854
      -722.4694       -562.9634         24.7504         19.5004
 -17360317.66546 -13383660.33947  21192330.2034   21192333.2504
       679.9844        529.8584         18.7504         33.0004
 99  4 23  0 48  0.0000000  0  7G 3G17G21G22G 6G26G23
   -492406.99945   -239955.47445  25147226.9304   25147234.2814
      3170.2034       2470.2884          9.2504          7.5004
 -18704745.21346 -14428892.18247  21031388.8754   21031392.0394
       176.2034        137.3014         18.0004         32.5004
  -7005274.42245  -5331308.58445  23870948.1564   23870953.3714
      2345.4694       1827.6384         11.7504         10.2504
  -2852543.13746    497268.76445  23697616.4304   23697620.5904
     -1214.8124       -946.6074         12.7504         11.0004
 -12368261.82548  -4731259.73647  21385601.6414   21385604.5704
     -2524.1414      -1966.8634         30.7504         26.2504
 -11971698.47247    140171.36946  22034000.5784   22034003.3204
      -742.8914       -578.8764         24.5004         19.2504
 -17380522.11346 -13399404.03447  21188485.2664   21188488.2774
       666.7504        519.5454         19.0004         32.7504
 99  4 23  0 48 30.0000000  0  7G 3G17G21G22G 6G26G23
   -587474.91945   -314034.28845  25129136.1954   25129139.2194
      3167.6094       2468.2674          9.2504          7.7504
 -18709927.04746 -14432929.95747  21030402.9224   21030406.1094
       169.3444        131.9564         18.0004         32.5004
  -7075561.47046  -5386077.60645  23857573.0084   23857578.9614
      2340.3444       1823.6444         12.5004         10.2504
  -2815876.53846    525840.13845  23704594.0944   23704597.9964
     -1229.6564       -958.1744         12.5004         10.7504
 -12292313.36248  -4672079.14347  21400054.3444   21400057.3444
     -2539.0784      -1978.5024         30.7504         26.0004
 -11949118.24947    157766.36246  22038297.5004   22038300.2664
      -762.3914       -594.0714         24.5004         19.7504
 -17400325.81546 -13414835.46747  21184716.9144   21184719.8554
       653.4844        509.2094         19.0004         32.7504
 99  4 23  0 49  0.0010000  0  7G 3G17G21G22G 6G26G23
   -682468.83745   -388055.44945  25111059.0054   25111063.8924
      3165.2034       2466.3924          9.5004          8.0004
 -18714901.09546 -14436805.82147  21029456.3494   21029459.6534
       162.4224        126.5634         18.0004         32.2504
  -7145684.43346  -5440718.76045  23844228.7084   23844234.2284
      2334.2814       1818.9204         12.0004         10.7504
  -2778752.35046    554768.08445  23711658.4424   23711663.3534
     -1245.0784       -970.1914         12.7504         10.7504
 -12215909.30648  -4612543.53347  21414593.6694   21414596.5634
     -2554.2814      -1990.3494         30.7504         26.0004
 -11925947.80247    175821.26846  22042706.5364   22042709.4314
      -782.1094       -609.4364         24.5004         19.2504
 -17419725.88546 -13429952.37847  21181025.2394   21181028.1924
       639.8284        498.5674         18.7504         32.7504
 99  4 23  0 49 30.0010000  0  7G 3G17G21G22G 6G26G23
   -777393.81745   -462022.87445  25092995.2554   25093000.2944
      3163.2344       2464.8584         10.5004          8.0004
 -18719684.65046 -14440533.24747  21028546.0054   21028549.2984
       156.6564        122.0704         17.7504         32.2504
  -7215622.10946  -5495215.54445  23830920.1694   23830925.8644
      2328.3284       1814.2824         13.0004         11.2504
  -2741180.98246    584044.46845  23718808.1384   23718812.7434
     -1259.6564       -981.5504         12.2504         11.0004
 -12139060.80148  -4552661.60446  21429217.1064   21429220.1654
     -2568.8594      -2001.7094         30.5004         25.5004
 -11902196.06847    194329.12846  22047226.2784   22047229.3604
      -801.2034       -624.3144         24.2504         19.7504
 -17438714.42146 -13444748.61447  21177411.8024   21177414.7554
       626.0634        487.8414         19.0004         32.7504
 99  4 23  0 50  0.0010000  0  7G 3G17G21G22G 6G26G23
   -872262.77445   -535946.69945  25074942.7314   25074948.2744
      3161.1564       2463.2394         10.0004          8.2504
 -18724300.91746 -14444130.31847  21027667.6224   21027670.7984
       150.7504        117.4684         17.7504         32.5004
  -7285382.35646  -5549574.07445  23817645.1144   23817651.3724
      2322.2034       1809.5094         12.7504         11.2504
  -2703170.31046    613663.16845  23726041.0914   23726045.0284
     -1274.5624       -993.1664         12.5004         10.5004
 -12061780.37248  -4492443.10947  21443923.3254   21443926.3494
     -2583.5164      -2013.1294         30.5004         25.7504
 -11877877.99947    213278.29246  22051854.1384   22051856.7634
      -820.3284       -639.2174         24.5004         19.7504
 -17457283.18446 -13459217.75747  21173878.1694   21173881.1924
       611.8754        476.7864         18.7504         32.7504
 99  4 23  0 50 30.0010000  0  7G 3G17G21G22G 6G26G23
   -967066.17045   -609819.34545  25056902.4034   25056908.5094
      3158.9224       2461.4984         10.7504          8.5004
 -18728734.08646 -14447584.71647  21026823.9194   21026827.2474
       144.7974        112.8294         18.0004         32.5004
  -7354957.14946  -5603788.05045  23804405.0994   23804410.0794
      2315.7194       1804.4564         13.5004         11.2504
  -2664717.99046    643626.00245  23733358.1384   23733363.5524
     -1288.9694      -1004.3914         12.5004         11.0004
 -11984049.23548  -4431873.41646  21458714.9814   21458718.1464
     -2598.6254      -2024.9034         30.2504         25.5004
 -11852985.41147    232675.12446  22056590.9744   22056593.8924
      -839.4224       -654.0954         24.2504         19.5004
 -17475447.93746 -13473372.08747  21170421.4894   21170424.4544
       599.0944        466.8264         18.7504         32.7504
 99  4 23  0 51  0.0010000  0  7G 3G17G21G22G 6G26G23
  -1061799.16345   -683637.17645  25038874.2554   25038878.8964
      3156.6094       2459.6964         10.2504          8.2504
 -18732987.75446 -14450899.24347  21026014.4114   21026017.7634
       138.7504        108.1174         18.0004         32.5004
  -7424309.91946  -5657829.05645  23791207.8254   23791212.9934
      2308.0314       1798.4664         13.5004         11.5004
  -2625831.22046    673927.36545  23740758.3804   23740762.6924
     -1303.3284      -1015.5804         12.7504         10.7504
 -11905863.30248  -4370949.33546  21473593.1304   21473596.2354
     -2613.6564      -2036.6154         30.0004         25.2504
 -11827500.88047    252533.22146  22061440.5054   22061443.4114
      -859.5784       -669.8014         24.5004         19.5004
 -17493233.70946 -13487231.10647  21167036.8964   21167039.8604
       586.6564        457.1354         18.7504         32.7504
 99  4 23  0 51 30.0010000  0  7G 3G17G21G22G 6G26G23
  -1156447.64845   -757389.15845  25020863.2164   25020869.3564
      3153.4064       2457.2004          9.5004          7.5004
 -18737043.10046 -14454059.23347  21025242.6384   21025245.9424
       131.5784        102.5284         18.0004         32.5004
  -7493436.39546  -5711693.71845  23778053.7864   23778059.3064
      2300.6094       1792.6834         14.5004         11.5004
  -2586515.77646    704562.77445  23748239.6694   23748244.8134
     -1317.6874      -1026.7694         12.7504         11.0004
 -11827220.32248  -4309669.11646  21488558.5214   21488561.8494
     -2629.1254      -2048.6694         29.7504         25.2504
 -11801395.92947    272874.74846  22066408.0054   22066411.0524
      -880.7974       -686.3354         24.0004         19.5004
 -17510640.30046 -13500794.65947  21163724.5754   21163727.4704
       573.9534        447.2364         19.0004         33.0004
 99  4 23  0 52  0.0010000  0  7G 3G17G21G22G 6G26G23
  -1251007.49845   -831072.04845  25002869.3644   25002874.9074
      3150.4224       2454.8744          9.2504          8.0004
 -18740875.57846 -14457045.55547  21024513.5444   21024516.7674
       123.8284         96.4894         18.0004         32.5004
  -7562347.89946  -5765390.86345  23764939.9114   23764945.2084
      2293.3134       1786.9974         13.7504         11.5004
  -2546777.50346    735527.61745  23755801.4974   23755806.6534
     -1331.5474      -1037.5694         12.5004         10.5004
 -11748120.83348  -4248033.16846  21503610.8024   21503613.9784
     -2644.2504      -2060.4554         29.7504         25.2504
 -11774654.99447    293711.86146  22071496.5364   22071499.2784
      -902.0314       -702.8814         24.0004         19.2504
 -17527680.58146 -13514072.77747  21160481.9894   21160484.9784
       562.0634        437.9714         19.2504         33.0004
 99  4 23  0 52 30.0010000  0  7G 3G17G21G22G 6G26G23
  -1345472.75245   -904681.24645  24984892.9664   24984898.0284
      3147.2194       2452.3784         10.0004          9.0004
 -18744474.08146 -14459849.56747  21023828.5754   21023831.7744
       116.2664         90.5974         18.0004         32.5004
  -7631027.81646  -5818907.57645  23751870.1464   23751874.9154
      2285.3284       1780.7754         13.5004         11.7504
  -2506616.72246    766821.71145  23763444.3884   23763449.7204
     -1345.8284      -1048.6974         12.2504         10.7504
 -11668568.81248  -4186044.60646  21518749.0604   21518752.2244
     -2658.9374      -2071.8994         29.5004         25.0004
 -11747273.29247    315048.25046  22076707.2244   22076710.1534
      -923.4064       -719.5374         24.2504         19.2504
 -17544359.34646 -13527069.19847  21157307.9504   21157311.0564
       549.6884        428.3284         19.2504         33.2504
 99  4 23  0 53  0.0010000  0  7G 3G17G21G22G 6G26G23
  -1439841.73045   -978215.40645  24966934.9504   24966941.0324
      3144.1564       2449.9924         10.2504          8.2504
 -18747850.20346 -14462480.29947  21023186.2864   21023189.4744
       108.7034         84.7044         18.0004         32.5004
  -7699468.71346  -5872238.00845  23738845.9354   23738851.1034
      2277.7344       1774.8584         13.2504         11.5004
  -2466026.64046    798450.35645  23771168.5604   23771173.1304
     -1360.2344      -1059.9234         12.0004         10.5004
 -11588591.54648  -4123724.67846  21533968.3804   21533971.6384
     -2672.7814      -2082.6874         29.2504         24.5004
 -11719247.08247    336886.87746  22082040.2004   22082042.9424
      -944.8284       -736.2304         24.0004         19.2504
 -17560650.26646 -13539763.39747  21154208.0284   21154210.9934
       536.2664        417.8694         19.2504         33.2504
 99  4 23  0 53 30.0010000  0  7G 3G17G21G22G 6G26G23
  -1534116.83645  -1051676.47645  24948995.0444   24949000.5994
      3140.9844       2447.5204          9.2504          7.5004
 -18750996.14646 -14464931.67047  21022587.5674   21022590.7904
       101.1414         78.8114         18.0004         32.7504
  -7767689.87346  -5925397.24645  23725864.2244   23725869.7434
      2270.2194       1769.0024         14.0004         11.5004
  -2424991.31546    830425.90645  23778977.1384   23778981.8374
     -1375.5004      -1071.8184         12.7504         10.7504
 -11508203.54248  -4061084.70346  21549265.6854   21549269.0244
     -2686.2664      -2093.1944         28.7504         24.5004
 -11690581.92347    359223.36346  22087495.0674   22087497.9274
      -966.0624       -752.7764         25.0004         19.2504
 -17576525.73946 -13552133.87647  21151186.8724   21151189.8724
       522.1254        406.8514         19.2504         33.2504
 99  4 23  0 54  0.0010000  0  7G 3G17G21G22G 6G26G23
  -1628303.62445  -1125068.64445  24931071.8964   24931076.9234
      3137.9064       2445.1224          9.5004          8.7504
 -18753924.84646 -14467213.75947  21022030.0674   21022033.1964
        94.0944         73.3204         18.0004         32.7504
  -7835675.67046  -5978373.08345  23712927.1384   23712932.7164
      2262.0784       1762.6584         14.0004         11.5004
  -2383497.97445    862758.35945  23786873.0674   23786878.0714
     -1390.8754      -1083.7994         11.7504         10.7504
 -11427418.72048  -3998135.51646  21564638.3254   21564641.5484
     -2699.3284      -2103.3734         29.0004         24.5004
 -11661293.54447    382045.48646  22093068.3564   22093071.1694
      -986.5164       -768.7134         24.2504         19.5004
 -17591973.70146 -13564171.22247  21148247.2244   21148250.2594
       507.5164        395.4674         19.0004         33.5004
 99  4 23  0 54 30.0010000  0  7G 3G17G21G22G 6G26G23
  -1722397.81145  -1198388.67945  24913166.6614   24913171.6654
      3134.7504       2442.6624         10.0004          8.0004
 -18756650.37846 -14469337.54047  21021511.5364   21021514.6304
        87.2664         67.9994         18.2504         33.0004
  -7903424.21746  -6031164.03945  23700034.9424   23700040.2634
      2254.2034       1756.5224         14.2504         11.7504
  -2341546.09646    895448.12945  23794855.9744   23794860.0054
     -1406.1724      -1095.7184         12.2504         10.5004
 -11346251.39148  -3934888.27546  21580084.1224   21580087.1924
     -2712.2664      -2113.4544         28.7504         24.5004
 -11631392.86047    405344.73546  22098758.5524   22098761.5874
     -1007.1414       -784.7854         24.2504         19.5004
 -17606985.78546 -13575868.92847  21145390.6924   21145393.6694
       493.0944        384.2294         19.0004         33.2504
 99  4 23  0 55  0.0010000  0  7G 3G17G21G22G 6G26G23
  -1816392.50345  -1271631.19645  24895280.1384   24895285.0604
      3131.4694       2440.1064         10.5004          8.7504
 -18759159.05646 -14471292.34647  21021034.0444   21021037.2084
        79.8914         62.2524         18.2504         33.0004
  -7970940.18246  -6083773.78945  23687186.6614   23687191.3254
      2246.8754       1750.8124         13.7504         11.7504
  -2299137.49245    928493.78645  23802926.0994   23802931.9934
     -1421.2814      -1107.4924         11.7504         10.5004
 -11264681.13448  -3871327.07046  21595606.2864   21595609.5214
     -2725.9844      -2124.1444         28.5004         24.2504
 -11600868.57847    429129.90146  22104566.9974   22104569.9744
     -1027.8284       -800.9054         24.7504         19.5004
 -17621570.55246 -13587233.65747  21142615.0914   21142618.0444
       479.1724        373.3814         19.2504         33.2504
 99  4 23  0 55 30.0010000  0  7G 3G17G21G22G 6G26G23
  -1910275.74345  -1344786.82145  24877414.3334   24877419.7474
      3127.2344       2436.8064          9.7504          8.2504
 -18761449.13846 -14473076.81647  21020598.5054   21020601.6814
        72.8284         56.7494         18.5004         33.2504
  -8038235.14646  -6136211.32145  23674380.9274   23674385.4384
      2239.3284       1744.9314         14.2504         11.5004
  -2256269.64346    961897.27645  23811083.9114   23811087.9424
     -1436.3754      -1119.2534         13.0004         10.5004
 -11182688.72648  -3807436.90246  21611209.0604   21611212.1654
     -2740.2194      -2135.2354         28.7504         24.5004
 -11569722.26447    453399.77446  22110493.9504   22110496.6924
     -1048.6254       -817.1104         24.2504         19.5004
 -17635738.34046 -13598273.46847  21139919.0754   21139922.0174
       465.4064        362.6544         19.0004         33.2504
 99  4 23  0 56  0.0010000  0  7G 3G17G21G22G 6G26G23
  -2004030.35245  -1417842.28345  24859573.2784   24859578.0134
      3122.9694       2433.4824          9.5004          8.7504
 -18763532.58446 -14474700.27547  21020201.9424   21020205.0834
        66.0004         51.4294         18.5004         33.2504
  -8105305.48046  -6188473.82045  23661617.6464   23661622.5214
      2231.9534       1739.1844         13.7504         11.7504
  -2212967.74146    995639.01045  23819324.1064   23819328.0794
     -1450.5314      -1130.2844         13.0004         10.7504
 -11100266.51748  -3743211.83546  21626893.5754   21626896.9624
     -2754.7034      -2146.5224         28.5004         24.2504
 -11537956.90647    478152.01246  22116538.7314   22116541.7204
     -1069.1724       -833.1214         23.7504         19.0004
 -17649505.38946 -13609001.01547  21137299.3564   21137302.3684
       452.4064        352.5244         19.0004         33.2504
 99  4 23  0 56 30.0010000  0  7G 3G17G21G22G 6G26G23
  -2097654.20345  -1490795.85045  24841757.9424   24841763.2514
      3118.6724       2430.1344         10.2504          8.2504
 -18765409.42546 -14476162.74147  21019844.6854   21019847.8494
        59.1884         46.1204         18.5004         33.2504
  -8172158.28946  -6240566.83845  23648896.1774   23648900.9704
      2224.8284       1733.6324         14.0004         11.7504
  -2169242.15146   1029710.89845  23827644.6064   23827649.2004
     -1464.4224      -1141.1084         12.5004         11.0004
 -11017406.46048  -3678645.58346  21642661.2554   21642664.3134
     -2769.5004      -2158.0524         28.2504         24.2504
 -11505572.10747    503386.92546  22122701.1304   22122704.2944
     -1089.6564       -849.0834         23.0004         19.2504
 -17662888.41346 -13619429.32147  21134752.6384   21134755.6144
       439.7974        342.6994         19.0004         33.2504
 99  4 23  0 57  0.0010000  0  7G 3G17G21G22G 6G26G23
  -2191148.29245  -1563648.26645  24823966.1224   24823970.9624
      3114.2504       2426.6884          9.7504          8.5004
 -18767088.76746 -14477471.31147  21019525.2474   21019528.3644
        52.9064         41.2264         18.5004         33.5004
  -8238799.75846  -6292495.17046  23636214.1224   23636218.9154
      2217.8754       1728.2144         14.0004         12.2504
  -2125102.09046   1064105.73945  23836043.8644   23836047.5914
     -1478.3444      -1151.9564         13.0004         10.7504
 -10934100.30848  -3613731.73346  21658513.8104   21658517.1494
     -2784.0624      -2169.3994         28.0004         24.0004
 -11472583.50047    529092.34946  22128978.8884   22128981.9354
     -1109.6094       -864.6314         23.2504         19.0004
 -17675890.46446 -13629560.76147  21132278.2714   21132281.1654
       426.8914        332.6424         19.2504         33.2504
 99  4 23  0 57 30.0010000  0  7G 3G17G21G22G 6G26G23
  -2284508.22345  -1636396.18945  24806200.3254   24806206.3964
      3109.8284       2423.2434          9.5004          8.0004
 -18768584.04846 -14478636.45447  21019240.5524   21019243.7394
        46.7504         36.4294         18.5004         33.5004
  -8305217.11546  -6344248.87945  23623574.9664   23623580.4854
      2209.8754       1721.9814         14.0004         11.7504
  -2080545.00646   1098825.54245  23844523.2164   23844527.7514
     -1491.8594      -1162.4884         12.5004         10.7504
 -10850364.63447  -3548483.18246  21674448.2394   21674451.6734
     -2798.1874      -2180.4064         27.7504         24.0004
 -11438993.10947    555266.68846  22135370.7714   22135373.9814
     -1129.6724       -880.2644         23.5004         19.0004
 -17688500.40646 -13639386.66247  21129878.5994   21129881.5284
       413.8594        322.4884         19.2504         33.5004
 99  4 23  0 58  0.0010000  0  7G 3G17G21G22G 6G26G23
  -2377740.20545  -1709044.38745  24788458.4194   24788462.3684
      3105.7504       2420.0654          9.2504          8.5004
 -18769880.06246 -14479646.32747  21018993.9194   21018997.0604
        39.6564         30.9014         18.5004         33.5004
  -8371379.09346  -6395803.60845  23610985.4664   23610990.4584
      2200.9384       1715.0164         14.5004         11.7504
  -2035582.92946   1133860.92545  23853078.9424   23853083.6534
     -1505.7034      -1173.2754         12.5004         10.7504
 -10766202.44847  -3482902.29346  21690463.8494   21690467.0484
     -2812.5474      -2191.5954         27.7504         23.7504
 -11404803.20947    581908.18046  22141876.7784   22141879.6734
     -1149.6414       -895.8244         23.0004         19.2504
 -17700720.39146 -13648908.70247  21127553.2864   21127556.1224
       400.7664        312.2854         19.2504         33.5004
 99  4 23  0 58 30.0010000  0  7G 3G17G21G22G 6G26G23
  -2470854.11545  -1781600.59645  24770738.9744   24770744.7394
      3101.9534       2417.1064          8.5004          7.7504
 -18770963.47346 -14480490.53647  21018787.7944   21018790.9704
        32.5784         25.3864         18.2504         33.2504
  -8437282.44946  -6447156.78346  23598444.3564   23598449.5714
      2192.6724       1708.5754         14.5004         12.0004
  -1990208.29346   1169217.77745  23861714.1224   23861718.5054
     -1519.2194      -1183.8074         12.7504         10.5004
 -10681612.14147  -3416987.80546  21706560.8884   21706564.1344
     -2826.7664      -2202.6754         27.2504         23.5004
 -11370022.89247    609009.73446  22148495.5444   22148498.4154
     -1169.0784       -910.9704         23.7504         19.0004
 -17712544.96646 -13658122.63147  21125303.2244   21125306.0714
       387.5314        301.9724         19.2504         33.5004
 99  4 23  0 59  0.0010000  0  7G 3G17G21G22G 6G26G23
  -2563857.55145  -1854070.72245  24753041.5364   24753045.3104
      3098.2814       2414.2454          9.7504          8.0004
 -18771831.73546 -14481167.09647  21018622.6144   21018625.8134
        25.2504         19.6754         18.2504         33.5004
  -8502936.86746  -6498316.00846  23585950.6064   23585956.0794
      2184.2194       1701.9894         14.2504         12.5004
  -1944423.17546   1204894.48045  23870426.3724   23870430.6034
     -1533.2814      -1194.7654         12.5004         10.5004
 -10596597.02047  -3350742.29146  21722738.8494   21722742.0954
     -2840.8754      -2213.6694         27.2504         23.2504
 -11334647.24947    636575.18546  22155227.0754   22155229.8764
     -1189.5004       -926.8834         22.7504         19.0004
 -17723969.56646 -13667024.89147  21123129.0444   21123131.8214
       374.0474        291.4654         19.2504         33.5004
 99  4 23  0 59 30.0010000  0  7G 3G17G21G22G 6G26G23
  -2656758.78045  -1926461.20445  24735363.4274   24735368.3134
      3094.8134       2411.5424          9.7504          7.7504
 -18772481.21246 -14481673.17347  21018498.7634   21018501.9274
        17.5784         13.6974         18.5004         33.5004
  -8568342.18746  -6549281.11846  23573504.2634   23573508.5874
      2176.0944       1695.6574         14.7504         12.7504
  -1898223.14846   1240894.47645  23879217.6774   23879222.6924
     -1546.9064      -1205.3814         12.5004          9.7504
 -10511162.89447  -3284170.28146  21738996.3964   21738999.4194
     -2855.0474      -2224.7124         27.0004         23.2504
 -11298657.92547    664618.82046  22162075.7314   22162078.5794
     -1210.0164       -942.8694         22.7504         19.0004
 -17734991.37646 -13675613.29347  21121031.5674   21121034.4274
       360.5004        280.9094         19.2504         33.5004
 99  4 23  1  0  0.0010000  0  7G 3G17G21G22G 6G26G23
  -2749551.94445  -1998767.53545  24717704.8724   24717708.3064
      3091.4064       2408.8884          9.2504          8.7504
 -18772890.33146 -14481991.95747  21018421.3964   21018424.5604
         9.8134          7.6464         18.5004         33.5004
  -8633517.99346  -6600067.38846  23561101.5604   23561106.2124
      2169.1564       1690.2524         14.7504         12.7504
  -1851605.07945   1277220.25345  23888088.9194   23888094.0874
     -1561.0624      -1216.4124         11.7504         10.2504
 -10425301.11947  -3217265.03846  21755335.1694   21755338.3334
     -2869.1564      -2235.7064         27.0004         22.7504
 -11262052.84047    693142.26646  22169041.2944   22169044.1884
     -1230.4064       -958.7584         23.2504         19.0004
 -17745608.26646 -13683886.16847  21119011.3254   21119014.1384
       347.2664        270.5974         19.5004         33.5004
 99  4 23  1  0 30.0010000  0  7G 3G17G21G22G 6G26G23
  -2842234.70445  -2070987.76445  24700067.5134   24700072.1884
      3087.3134       2405.6984          9.2504          7.7504
 -18773067.97246 -14482130.37147  21018387.0284   21018390.1924
         1.9694          1.5344         18.5004         33.5004
  -8698495.27546  -6650698.96546  23548737.0994   23548741.8104
      2162.5474       1685.1014         15.7504         12.7504
  -1804554.41746   1313883.08845  23897042.5214   23897046.5634
     -1575.7504      -1227.8574         12.0004         10.5004
 -10339005.88647  -3150022.03646  21771756.7714   21771760.1574
     -2883.9374      -2247.2244         26.7504         22.7504
 -11224821.57147    722153.64746  22176126.2244   22176129.2474
     -1251.8914       -975.4994         23.5004         18.7504
 -17755818.78846 -13691842.39847  21117068.2864   21117071.0994
       333.4534        259.8344         19.5004         33.5004
 99  4 23  1  1  0.0010000  0  7G 3G17G21G22G 6G26G23
  -2934797.39545  -2143114.44245  24682453.1384   24682457.1464
      3083.1884       2402.4844          9.0004          8.5004
 -18773021.43846 -14482094.10247  21018396.4274   21018399.5214
        -5.3284         -4.1524         18.5004         33.5004
  -8763276.51646  -6701177.77946  23536409.3024   23536413.7554
      2155.9534       1679.9634         15.2504         13.0004
  -1757069.48946   1350884.34945  23906078.5444   23906082.6814
     -1590.1254      -1239.0584         12.2504         10.2504
 -10252280.95547  -3082444.19746  21788259.8414   21788263.2284
     -2897.9844      -2258.1704         26.5004         22.5004
 -11186943.11247    751669.33546  22183334.1774   22183336.8254
     -1273.4224       -992.2774         23.5004         18.7504
 -17765631.70146 -13699488.80247  21115200.8644   21115203.6884
       320.5164        249.7524         19.5004         33.7504
 99  4 23  1  1 30.0010000  0  7G 3G17G21G22G 6G26G23
  -3027214.32145  -2215127.54745  24664867.3804   24664871.9034
      3077.9384       2398.3934          9.2504          8.7504
 -18772737.76946 -14481873.05547  21018450.2864   21018453.4034
       -13.5784        -10.5804         18.2504         33.2504
  -8827846.28446  -6751491.80546  23524122.1534   23524127.5324
      2148.8284       1674.4124         15.5004         13.0004
  -1709148.19345   1388225.59045  23915197.1854   23915201.9664
     -1604.4534      -1250.2234         11.2504         10.0004
 -10165122.90447  -3014528.86946  21804845.6694   21804848.8804
     -2912.4224      -2269.4204         26.5004         22.2504
 -11148417.60147    781689.22746  22190665.3804   22190668.1814
     -1294.7974      -1008.9334         22.2504         19.0004
 -17775047.04146 -13706825.41547  21113409.4664   21113412.3374
       307.3754        239.5134         19.5004         33.7504
 99  4 23  1  2  0.0010000  0  7G 3G17G21G22G 6G26G23
  -3119479.19445  -2287022.19545  24647309.3334   24647314.5714
      3072.9384       2394.4974          9.2504          8.2504
 -18772219.36746 -14481469.09747  21018548.8564   21018551.9274
       -20.8124        -16.2184         18.2504         33.2504
  -8892202.09046  -6801639.11946  23511875.3804   23511879.4704
      2141.3754       1668.6044         16.2504         13.2504
  -1660802.24645   1425897.74645  23924397.7314   23924402.6304
     -1618.6414      -1261.2784         11.7504          9.7504
 -10077542.87947  -2946284.72846  21821511.4274   21821514.6734
     -2926.3284      -2280.2564         26.2504         22.0004
 -11109266.28447    812196.75646  22198115.7864   22198118.5994
     -1315.2664      -1024.8824         22.7504         18.7504
 -17784082.17246 -13713865.75847  21111689.9424   21111692.7204
       294.8594        229.7614         19.5004         33.7504
 99  4 23  1  2 30.0010000  0  7G 3G17G21G22G 6G26G23
  -3211583.21545  -2358791.45845  24629782.8564   24629784.2514
      3067.3134       2390.1144         10.0004          9.0004
 -18771490.56446 -14480901.18747  21018687.5284   21018690.6814
       -27.7664        -21.6364         18.2504         33.0004
  -8956324.17146  -6851604.31246  23499673.8644   23499678.0714
      2133.3284       1662.3344         17.2504         13.2504
  -1612039.63445   1463894.58845  23933676.9354   23933682.2084
     -1632.0784      -1271.7494         11.2504         10.0004
  -9989545.50347  -2877715.38246  21838256.8334   21838260.1964
     -2939.9374      -2290.8604         26.2504         22.0004
 -11069502.17947    843181.77146  22205682.8174   22205685.4664
     -1335.4534      -1040.6134         21.7504         18.5004
 -17792738.37246 -13720610.82947  21110042.7084   21110045.4384
       282.3914        220.0454         19.2504         33.7504
 99  4 23  1  3  0.0010000  0  7G 3G17G21G22G 6G26G23
  -3303513.67445  -2430425.47245  24612288.8884   24612295.8534
      3061.5944       2385.6574          9.0004          8.0004
 -18770548.24146 -14480166.90647  21018866.8644   21018869.9464
       -34.9374        -27.2244         18.2504         33.0004
  -9020196.05346  -6901374.53746  23487519.4114   23487523.2314
      2124.8444       1655.7224         17.5004         13.5004
  -1562882.26945   1502199.01045  23943031.1304   23943035.8764
     -1645.0784      -1281.8794         11.5004         10.2504
  -9901147.27947  -2808833.68446  21855078.3254   21855081.6654
     -2953.1564      -2301.1614         26.0004         22.0004
 -11029144.40347    874629.39846  22213362.4584   22213365.2124
     -1354.8754      -1055.7474         23.2504         18.7504
 -17801026.05246 -13727068.74447  21108465.5834   21108468.3724
       270.0784        210.4504         19.2504         33.7504
 99  4 23  1  3 30.0010000  0  7G 3G17G21G22G 6G26G23
  -3395279.71245  -2501931.37745  24594826.4584   24594831.5794
      3056.1564       2381.4204          9.5004          8.2504
 -18769393.74746 -14479267.29347  21019086.4584   21019089.6224
       -41.9844        -32.7154         18.0004         32.7504
  -9083811.97346  -6950945.29746  23475413.6924   23475418.3684
      2116.2034       1648.9894         16.7504         13.5004
  -1513335.94945   1540806.51045  23952459.4034   23952464.9354
     -1657.9374      -1291.8994         11.0004         10.0004
  -9812354.61047  -2739644.62446  21871975.3414   21871978.5874
     -2966.3444      -2311.4374         26.2504         22.0004
 -10988211.44347    906525.21046  22221151.6614   22221154.4624
     -1374.0474      -1070.6864         22.7504         18.5004
 -17808938.15746 -13733234.00247  21106959.9354   21106962.7004
       257.4064        200.5764         19.2504         33.7504
 99  4 23  1  4  0.0010000  0  7G 3G17G21G22G 6G26G23
  -3486888.51845  -2573314.75545  24577393.8494   24577397.7394
      3050.9534       2377.3664          9.7504          8.5004
 -18768038.27346 -14478211.08047  21019344.5214   21019347.6614
       -48.4694        -37.7684         18.0004         32.7504
  -9147170.75146  -7000315.70246  23463356.6384   23463360.8214
      2107.7194       1642.3784         16.7504         13.7504
  -1463411.41545   1579708.73745  23961960.1464   23961963.9664
     -1670.5314      -1301.7134         11.5004         10.0004
  -9723168.75247  -2670149.18346  21888946.8884   21888950.2164
     -2979.5624      -2321.7374         26.0004         21.5004
 -10946703.13947    938869.34546  22229050.5914   22229053.5214
     -1393.3284      -1085.7104         23.7504         18.5004
 -17816474.04946 -13739106.10947  21105525.8724   21105528.7434
       244.8444        190.7874         19.5004         33.7504
 99  4 23  1  4 30.0010000  0  7G 3G17G21G22G 6G26G23
  -3578341.33645  -2644576.57745  24559990.7784   24559996.9194
      3045.9694       2373.4824          9.5004          8.2504
 -18766480.30646 -14476997.07747  21019640.8724   21019644.0134
       -55.7344        -43.4294         18.0004         32.5004
  -9210282.71046  -7049493.76546  23451346.8174   23451351.3884
      2099.5474       1636.0114         17.0004         13.2504
  -1413113.25145   1618902.07045  23971530.9194   23971535.7004
     -1682.8444      -1311.3074         10.7504          9.5004
  -9633586.55347  -2600344.91446  21905993.8104   21905996.9974
     -2992.7664      -2332.0254         25.5004         21.5004
 -10904608.59847    971670.29646  22237060.4744   22237063.1104
     -1413.1564      -1101.1614         22.7504         18.5004
 -17823633.40746 -13744684.81347  21104163.4744   21104166.1574
       232.2974        181.0114         19.5004         34.0004
 99  4 23  1  5  0.0010000  0  7G 3G17G21G22G 6G26G23
  -3669658.46945  -2715732.69145  24542612.5284   24542617.2044
      3041.7664       2370.2074          9.2504          8.7504
 -18764698.22146 -14475608.43447  21019979.9354   21019983.1574
       -63.2194        -49.2614         18.0004         32.5004
  -9273148.62546  -7098480.11946  23439383.5674   23439388.0794
      2091.4384       1629.6924         16.5004         13.7504
  -1362439.70645   1658387.94145  23981174.0834   23981179.1694
     -1695.5624      -1321.2184         11.2504          9.5004
  -9543606.62047  -2530230.71546  21923116.3414   21923119.7634
     -3006.0004      -2342.3384         25.5004         21.2504
 -10861913.99647   1004938.82246  22245185.1854   22245187.7394
     -1433.4224      -1116.9524         23.0004         18.2504
 -17830409.05546 -13749964.52147  21102874.2554   21102877.1264
       219.1724        170.7834         19.5004         34.0004
 99  4 23  1  5 30.0010000  0  7G 3G17G21G22G 6G26G23
  -3760844.30645  -2786786.49145  24525260.9034   24525266.3064
      3037.1884       2366.6404          9.7504          8.7504
 -18762685.16146 -14474039.81047  21020363.0754   21020366.2284
       -70.9844        -55.3124         18.0004         32.0004
  -9335767.63646  -7147274.07346  23427467.4424   23427471.6384
      2083.2974       1623.3484         16.5004         13.2504
  -1311379.03145   1698175.46445  23990890.4034   23990895.4664
     -1708.3124      -1331.1534         11.0004         10.2504
  -9453226.46047  -2459804.65546  21940315.2164   21940318.3684
     -3019.3284      -2352.7234         25.2504         21.5004
 -10818600.07447   1038689.92646  22253427.3104   22253430.0994
     -1454.0474      -1133.0244         23.0004         18.2504
 -17836784.36546 -13754932.27847  21101661.0994   21101663.9114
       205.9384        160.4714         19.5004         34.2504
 99  4 23  1  6  0.0010000  0  7G 3G17G21G22G 6G26G23
  -3851881.46645  -2857724.46945  24507937.6384   24507942.7474
      3031.9224       2362.5374         11.2504          8.5004
 -18760436.28446 -14472287.43947  21020790.9584   21020794.1694
       -79.0004        -61.5584         18.0004         32.2504
  -9398144.33146  -7195879.21446  23415597.4194   23415602.2004
      2075.1564       1617.0054         16.5004         13.2504
  -1259935.46045   1738261.32845  24000680.0364   24000686.5054
     -1721.4694      -1341.4044         11.0004         10.2504
  -9362444.97547  -2389065.87946  21957590.3494   21957593.6424
     -3032.8444      -2363.2554         25.2504         21.2504
 -10774671.96347   1072919.63346  22261786.9894   22261789.7084
     -1474.4534      -1148.9254         23.5004         18.2504
 -17842761.31546 -13759589.62847  21100523.5994   21100526.4934
       192.4694        149.9764         19.5004         34.0004
 99  4 23  1  6 30.0010000  0  7G 3G17G21G22G 6G26G23
  -3942760.80146  -2928539.44945  24490644.8174   24490648.7784
      3026.6564       2358.4334         12.2504          9.7504
 -18757945.50246 -14470346.56147  21021264.9504   21021268.1264
       -87.0784        -67.8534         18.0004         32.5004
  -9460277.20846  -7244294.37346  23403773.8564   23403778.3214
      2066.9384       1610.6014         16.2504         13.5004
  -1208092.31245   1778658.58545  24010545.7474   24010552.0754
     -1734.7194      -1351.7294         11.5004         10.0004
  -9271263.00647  -2318015.03146  21974941.9034   21974945.3024
     -3046.0784      -2373.5674         25.0004         20.7504
 -10730140.48747   1107619.48346  22270260.9504   22270263.6104
     -1494.3754      -1164.4484         22.7504         18.2504
 -17848331.70946 -13763930.17547  21099463.4744   21099466.3684
       178.8914        139.3954         19.5004         34.2504
 99  4 23  1  7  0.0010000  0  7G 3G17G21G22G 6G26G23
  -4033478.60045  -2999228.58745  24473380.3334   24473384.1064
      3020.8754       2353.9294         10.5004          8.7504
 -18755227.73846 -14468228.81947  21021782.1924   21021785.4274
       -94.0944        -73.3204         18.0004         32.5004
  -9522168.50946  -7292521.29946  23391996.4584   23392001.0754
      2059.1564       1604.5374         17.0004         13.0004
  -1155858.04145   1819360.60045  24020485.3254   24020489.6734
     -1747.5784      -1361.7494         11.0004          9.7504
  -9179692.15647  -2246661.16646  21992367.2244   21992370.3414
     -3058.6724      -2383.3814         25.0004         20.7504
 -10685020.36747   1142778.02246  22278846.7944   22278849.6304
     -1513.7194      -1179.5214         21.7504         18.0004
 -17853500.11746 -13767957.49547  21098479.9744   21098482.7514
       165.6884        129.1074         19.5004         34.2504
 99  4 23  1  7 30.0010000  0  7G 3G17G21G22G 6G26G23
  -4124004.08345  -3069767.84645  24456153.2244   24456158.4624
      3014.1724       2348.7054         10.0004          8.7504
 -18752296.71546 -14465944.89747  21022339.7714   21022342.8644
      -101.1414        -78.8114         18.0004         32.7504
  -9583824.44246  -7340564.81546  23380263.5444   23380267.3294
      2051.3914       1598.4864         17.0004         13.7504
  -1103238.43245   1860362.89245  24030498.1144   24030502.8494
     -1760.3444      -1371.6964         11.0004          9.7504
  -9087736.52247  -2175007.46346  22009865.6144   22009868.8134
     -3071.7664      -2393.5844         25.0004         20.7504
 -10639321.18647   1178387.77546  22287543.2634   22287545.9464
     -1532.6724      -1194.2904         22.7504         18.5004
 -17858276.25946 -13771679.14947  21097571.0604   21097573.8964
       152.7974        119.0634         19.5004         34.0004
 99  4 23  1  8  0.0010000  0  7G 3G17G21G22G 6G26G23
  -4214326.65945  -3140148.97745  24438966.0754   24438971.0794
      3007.5634       2343.5554         10.5004          8.5004
 -18749160.79146 -14463501.31347  21022936.5994   21022939.7744
      -107.9694        -84.1314         18.0004         32.7504
  -9645250.66846  -7388429.33446  23368574.5604   23368579.0484
      2043.7344       1592.5204         17.5004         14.0004
  -1050234.06445   1901664.93945  24040585.1924   24040589.9854
     -1773.3284      -1381.8144         10.5004          9.7504
  -8995385.15247  -2103045.40246  22027439.7244   22027443.0284
     -3084.9374      -2403.8474         25.0004         20.7504
 -10593056.33047   1214438.30346  22296347.2864   22296350.0054
     -1551.7504      -1209.1564         22.7504         17.7504
 -17862664.17246 -13775098.28847  21096736.2164   21096739.0284
       139.8914        109.0064         19.2504         34.0004
 99  4 23  1  8 30.0010000  0  7G 3G17G21G22G 6G26G23
  -4304458.35045  -3210381.42245  24421815.3254   24421819.0874
      3000.9694       2338.4174         11.0004          9.0004
 -18745820.34746 -14460898.35947  21023572.2084   21023575.4424
      -115.1094        -89.6964         18.0004         33.0004
  -9706447.95746  -7436115.48146  23356929.0834   23356933.8884
      2035.7344       1586.2874         17.2504         14.0004
   -996847.44945   1943264.88545  24050743.9504   24050748.4974
     -1785.8914      -1391.6034         11.2504         10.0004
  -8902645.54647  -2030780.82046  22045087.6304   22045090.8884
     -3098.0314      -2414.0504         24.7504         20.5004
 -10546214.87347   1250938.14846  22305260.9664   22305263.7434
     -1571.5624      -1224.5944         22.7504         18.0004
 -17866675.76146 -13778224.18447  21095972.5994   21095975.3644
       127.3284         99.2174         19.2504         33.7504
 99  4 23  1  9  0.0010000  0  7G 3G17G21G22G 6G26G23
  -4394398.30245  -3280464.45645  24404699.9584   24404703.5564
      2995.0164       2333.7784         11.0004          9.2504
 -18742260.90046 -14458124.75447  21024249.6774   21024252.8644
      -122.3284        -95.3214         18.0004         32.7504
  -9767407.48546  -7483616.36246  23345328.9424   23345333.3724
      2028.2974       1580.4914         17.7504         14.0004
   -943093.56545   1985150.97845  24060973.5754   24060978.1224
     -1797.7034      -1400.8084         11.7504          9.5004
  -8809514.94747  -1958211.56746  22062809.8884   22062813.1104
     -3110.6254      -2423.8644         24.7504         20.2504
 -10498772.68347   1287906.09146  22314288.7784   22314291.6264
     -1591.2034      -1239.8994         22.2504         18.0004
 -17870319.46446 -13781063.41947  21095279.4274   21095282.1814
       115.6094         90.0854         19.2504         34.0004
 99  4 23  1  9 30.0010000  0  7G 3G17G21G22G 6G26G23
  -4484152.58645  -3350402.74045  24387619.6854   24387624.9464
      2988.8914       2329.0064         11.0004          9.0004
 -18738457.71446 -14455161.22247  21024973.4354   21024976.6344
      -130.9224       -102.0174         18.2504         32.7504
  -9828131.95546  -7530934.07146  23333773.0604   23333776.9974
      2020.1094       1574.1114         18.0004         14.2504
   -888970.08645   2027325.09745  24071272.6924   24071278.5174
     -1810.4534      -1410.7434         11.0004          9.5004
  -8715991.90447  -1885336.50946  22080606.4274   22080609.5324
     -3124.0164      -2434.2984         24.5004         20.5004
 -10450731.33847   1325340.90846  22323430.6614   22323433.6144
     -1611.2974      -1255.5564         22.2504         18.0004
 -17873602.00446 -13783621.22847  21094654.6224   21094657.4114
       103.3754         80.5524         19.2504         33.7504
 99  4 23  1 10  0.0010000  0  7G 3G17G21G22G 6G26G23
  -4573741.53745  -3420212.25245  24370571.0674   24370575.7084
      2983.6564       2324.9274          9.7504          9.2504
 -18734407.89546 -14452005.50247  21025743.8104   21025746.8804
      -139.1414       -108.4214         18.2504         32.7504
  -9888613.56946  -7578062.53446  23322264.2864   23322268.3064
      2011.9384       1567.7444         18.5004         14.2504
   -834471.18146   2069791.76145  24081643.2864   24081648.4664
     -1822.7344      -1420.3124         12.0004          9.2504
  -8622085.53047  -1812162.75446  22098476.2784   22098479.5834
     -3136.4374      -2443.9774         24.5004         20.2504
 -10402096.15447   1363238.45846  22332685.3644   22332688.2824
     -1631.1254      -1271.0064         21.7504         17.7504
 -17876527.55146 -13785900.85447  21094098.0364   21094100.8604
        91.6724         71.4334         19.2504         33.7504
 99  4 23  1 10 30.0010000  0  7G 3G17G21G22G 6G26G23
  -4663171.23645  -3489897.64845  24353553.2554   24353558.1534
      2978.3134       2320.7634          9.5004          9.5004
 -18730112.75346 -14448658.63147  21026561.1614   21026564.2084
      -147.2194       -114.7164         18.2504         33.0004
  -9948853.98046  -7625003.06546  23310800.7314   23310805.0324
      2004.0474       1561.5954         18.0004         14.5004
   -779610.46646   2112540.31245  24092082.9194   24092087.1494
     -1834.5474      -1429.5174         12.0004          9.7504
  -8527807.33647  -1738699.27246  22116417.0214   22116420.5244
     -3148.8124      -2453.6204         24.5004         20.2504
 -10352870.37647   1401596.21046  22342053.3724   22342055.9744
     -1650.5474      -1286.1404         21.2504         18.0004
 -17879099.10446 -13787904.64747  21093608.4584   21093611.1654
        79.6414         62.0584         19.2504         34.0004
 99  4 23  1 11  0.0010000  0  7G 3G17G21G22G 6G26G23
  -4752439.11545  -3559456.92045  24336566.6384   24336570.8454
      2972.7974       2316.4654         10.5004          9.5004
 -18725574.49146 -14445122.31447  21027424.8174   21027427.8884
      -155.2344       -120.9624         18.2504         32.7504
 -10008858.67146  -7671759.91346  23299382.1064   23299386.1034
      1996.2034       1555.4834         18.5004         14.7504
   -724394.83045   2155565.44345  24102590.5214   24102594.9034
     -1846.6874      -1438.9774         11.5004          9.5004
  -8433152.50147  -1664942.30646  22134429.4354   22134432.6924
     -3161.5004      -2463.5064         24.2504         20.0004
 -10303069.81047   1440401.83146  22351529.8964   22351532.3334
     -1669.3754      -1300.8124         23.0004         18.2504
 -17881301.18746 -13789620.54047  21093189.5214   21093192.2514
        66.9844         52.1964         19.2504         33.7504
 99  4 23  1 11 30.0010000  0  7G 3G17G21G22G 6G26G23
  -4841537.63245  -3628884.27345  24319612.8024   24319616.3534
      2966.9844       2311.9364         11.7504          9.5004
 -18720804.80446 -14441405.66847  21028332.5214   21028335.5324
      -162.6094       -126.7094         18.0004         32.7504
 -10068625.73946  -7718331.59446  23288008.7784   23288012.7394
      1988.1094       1549.1764         18.0004         14.5004
   -668805.63346   2198881.65245  24113168.7394   24113173.9894
     -1859.2344      -1448.7544         12.2504          9.7504
  -8338117.74147  -1590889.29746  22152513.5914   22152517.0604
     -3174.1414      -2473.3564         24.5004         20.2504
 -10252703.31147   1479648.46746  22361114.2634   22361117.1924
     -1688.4844      -1315.7024         21.7504         17.7504
 -17883113.37846 -13791032.61947  21092844.7314   21092847.5214
        53.7194         41.8594         19.2504         34.0004
 99  4 23  1 12  0.0010000  0  7G 3G17G21G22G 6G26G23
  -4930454.30145  -3698169.89845  24302691.1464   24302695.3764
      2960.5634       2306.9324         10.5004         10.2504
 -18715819.33346 -14437520.87947  21029281.3174   21029284.4464
      -169.9224       -132.4074         18.0004         33.0004
 -10128148.65046  -7764713.02046  23276681.9894   23276687.0174
      1980.0944       1542.9304         18.2504         14.5004
   -612848.17445   2242484.85945  24123816.7944   24123821.3884
     -1871.2504      -1458.1174         11.7504          9.2504
  -8242701.40447  -1516538.95646  22170671.3024   22170674.8414
     -3187.0944      -2483.4504         24.2504         20.2504
 -10201756.75547   1519347.07546  22370809.0054   22370812.2744
     -1708.1254      -1331.0064         22.0004         17.7504
 -17884521.98646 -13792130.21747  21092576.4974   21092579.3334
        40.1094         31.2544         19.2504         34.2504
 99  4 23  1 12 30.0010000  0  7G 3G17G21G22G 6G26G23
  -5019170.72145  -3767299.48645  24285808.3174   24285813.0754
      2953.8444       2301.6964         11.0004         10.2504
 -18710611.15546 -14433462.55447  21030272.3254   21030275.5134
      -177.4694       -138.2874         18.0004         32.7504
 -10187435.49246  -7810910.49846  23265400.0214   23265404.2744
      1972.2194       1536.7944         18.5004         14.7504
   -556532.16245   2286367.41445  24134533.6304   24134539.6184
     -1883.2194      -1467.4434         11.2504         10.2504
  -8146895.26847  -1441884.87546  22188902.1694   22188905.6854
     -3199.9374      -2493.4584         24.2504         20.0004
 -10150216.19047   1559508.55846  22380616.6224   22380619.2354
     -1728.0004      -1346.4944         21.7504         17.5004
 -17885521.72146 -13792909.21947  21092386.2944   21092389.0834
        26.6094         20.7354         19.5004         34.2504
 99  4 23  1 13  0.0010000  0  7G 3G17G21G22G 6G26G23
  -5107679.87846  -3836267.54645  24268967.1224   24268971.6464
      2946.8444       2296.2424         12.2504          9.5004
 -18705165.77246 -14429219.39647  21031308.5524   21031311.7044
      -185.4374       -144.4974         18.2504         32.7504
 -10246474.44246  -7856914.81646  23254165.1774   23254169.8174
      1963.9694       1530.3654         18.5004         14.7504
   -499850.86346   2330534.64345  24145319.5834   24145323.7784
     -1895.5164      -1477.0254         12.0004         10.0004
  -8050705.22847  -1366931.64446  22207206.7004   22207210.2864
     -3212.4694      -2503.2224         23.7504         19.7504
 -10098069.77847   1600142.12846  22390539.8414   22390542.9234
     -1748.2194      -1362.2484         21.2504         17.7504
 -17886119.84946 -13793375.28047  21092272.4664   21092275.3024
        13.5004         10.5194         19.5004         34.5004
 99  4 23  1 13 30.0010000  0  7G 3G17G21G22G 6G26G23
  -5195976.50445  -3905069.99245  24252164.2554   24252168.6964
      2939.5474       2290.5564         10.5004         10.0004
 -18699478.60846 -14424787.83347  21032390.8414   21032393.8414
      -193.5784       -150.8404         18.2504         32.7504
 -10305270.52946  -7902729.87546  23242976.3414   23242980.6774
      1955.8444       1524.0344         18.2504         15.0004
   -442802.89845   2374987.57945  24156175.6384   24156181.4744
     -1907.4844      -1486.3514         11.5004         10.0004
  -7954147.25147  -1291691.71146  22225581.2164   22225584.7204
     -3224.5944      -2512.6704         23.5004         19.5004
 -10045317.62247   1641247.70646  22400578.2784   22400581.0564
     -1768.4064      -1377.9794         22.0004         17.7504
 -17886331.54746 -13793540.22547  21092232.3254   21092235.0324
         0.7344          0.5724         19.5004         34.5004
 99  4 23  1 14  0.0010000  0  7G 3G17G21G22G 6G26G23
  -5284051.29045  -3973699.59345  24235402.8104   24235406.6884
      2932.5944       2285.1384         10.7504         11.0004
 -18693551.04846 -14420168.95547  21033518.8174   21033521.8294
      -201.4064       -156.9404         18.2504         33.0004
 -10363823.91946  -7948355.82246  23231834.0914   23231838.2284
      1947.9844       1517.9104         18.0004         15.0004
   -385408.82545   2419710.17745  24167097.2714   24167102.6854
     -1918.5004      -1494.9354         11.5004          9.5004
  -7857226.83747  -1216169.36446  22244024.4814   22244027.9624
     -3236.5164      -2521.9604         23.2504         19.5004
  -9991972.59947   1682815.24846  22410729.6304   22410732.3964
     -1787.6564      -1392.9794         21.7504         18.0004
 -17886168.40246 -13793413.09047  21092263.1144   21092265.9274
       -11.2974         -8.8034         19.5004         34.5004
 99  4 23  1 14 30.0010000  0  7G 3G17G21G22G 6G26G23
  -5371924.79145  -4042172.32345  24218681.3174   24218685.2554
      2925.7194       2279.7814         10.5004         10.2504
 -18687386.49146 -14415365.40247  21034691.9354   21034695.0284
      -209.6094       -163.3324         18.2504         32.5004
 -10422135.10546  -7993793.03746  23220737.7784   23220741.9274
      1939.5004       1511.2994         18.0004         15.0004
   -327681.86045   2464692.20145  24178082.9114   24178087.9384
     -1929.8594      -1503.7874         11.7504         10.2504
  -7759952.76247  -1140371.43746  22262535.0604   22262538.4354
     -3248.3594      -2531.1894         23.0004         19.0004
  -9938057.05147   1724827.37046  22420989.6384   22420992.2164
     -1806.6094      -1407.7484         20.5004         17.5004
 -17885651.29746 -13793010.14147  21092361.7944   21092364.6654
       -23.1874        -18.0684         19.5004         34.5004
 99  4 23  1 15  0.0010000  0  7G 3G17G21G22G 6G26G23
  -5459598.58145  -4110489.45745  24201997.1774   24202002.8724
      2919.2664       2274.7524         11.0004         10.2504
 -18680982.31346 -14410375.12947  21035910.3964   21035913.4894
      -217.1724       -169.2254         18.2504         32.7504
 -10480197.84746  -8039036.65746  23209688.5754   23209692.4664
      1931.5004       1505.0654         18.5004         15.2504
   -269622.91845   2509932.90545  24189130.9584   24189136.2084
     -1940.7344      -1512.2614         11.2504         10.0004
  -7662328.47247  -1064300.61146  22281112.3724   22281115.8064
     -3259.8754      -2540.1624         22.7504         19.0004
  -9883584.42847   1767273.55846  22431355.3494   22431357.7984
     -1824.7034      -1421.8474         22.0004         17.2504
 -17884774.30446 -13792326.76247  21092528.5214   21092531.3564
       -35.2344        -27.4554         19.5004         34.5004
 99  4 23  1 15 30.0010000  0  7G 3G17G21G22G 6G26G23
  -5547079.24345  -4178656.11845  24185351.1304   24185356.1924
      2912.7974       2269.7124         11.0004         10.0004
 -18674356.48246 -14405212.14147  21037171.3104   21037174.3564
      -224.3914       -174.8504         18.2504         33.0004
 -10538016.67146  -8084090.21146  23198686.5054   23198690.6884
      1922.9384       1498.3934         19.0004         15.0004
   -211232.23745   2555432.11745  24200241.9814   24200246.0014
     -1951.9224      -1520.9784         11.2504         10.5004
  -7564351.77647   -987955.19146  22299757.1384   22299760.6774
     -3272.0164      -2549.6234         23.0004         19.2504
  -9828570.79447   1810141.32346  22441823.9894   22441826.5564
     -1842.9694      -1436.0804         21.5004         17.0004
 -17883533.44846 -13791359.85347  21092764.7394   21092767.5754
       -47.4844        -37.0014         19.5004         34.5004
 99  4 23  1 16  0.0010000  0  7G 3G17G21G22G 6G26G23
  -5634372.48745  -4246676.72145  24168739.4664   24168745.3604
      2906.7974       2265.0374         11.5004          9.7504
 -18667516.36546 -14399882.17647  21038473.2244   21038476.4354
      -231.8284       -180.6454         18.2504         32.7504
 -10595574.03546  -8128940.03846  23187733.3964   23187737.7784
      1914.2974       1491.6604         19.2504         15.5004
   -152510.25646   2601189.47345  24211416.5284   24211421.7784
     -1963.0004      -1529.6104         12.2504         10.2504
  -7466010.38047   -911325.58446  22318470.5994   22318474.1494
     -3284.1564      -2559.0834         22.2504         18.7504
  -9773002.77547   1853441.07646  22452398.3644   22452401.0604
     -1861.6874      -1450.6664         21.2504         17.5004
 -17881928.01546 -13790108.85647  21093070.1534   21093072.9314
       -59.5784        -46.4254         19.5004         34.2504
 99  4 23  1 16 30.0010000  0  7G 3G17G21G22G 6G26G23
  -5721475.17845  -4314548.85845  24152164.5284   24152170.0604
      2899.8284       2259.6064         11.5004         10.2504
 -18660440.88846 -14394368.81447  21039819.3334   21039822.3804
      -240.0164       -187.0254         18.2504         32.5004
 -10652872.92146  -8173588.45346  23176829.2554   23176833.1344
      1905.5944       1484.8784         18.2504         15.5004
    -93445.59245   2647213.84645  24222656.2944   24222661.9784
     -1974.7504      -1538.7664         11.0004          9.7504
  -7367307.79447   -834414.52946  22337253.2784   22337256.9354
     -3296.1094      -2568.3974         22.2504         18.7504
  -9716869.38447   1897181.38046  22463079.9584   22463082.6424
     -1880.5474      -1465.3614         22.0004         17.0004
 -17879956.93646 -13788572.93847  21093445.2244   21093447.9544
       -72.0784        -56.1654         19.5004         34.2504
 99  4 23  1 17  0.0010000  0  7G 3G17G21G22G 6G26G23
  -5808375.81745  -4382263.56645  24135626.4424   24135630.4744
      2893.3594       2254.5664         10.5004         10.0004
 -18653125.27646 -14388668.32947  21041211.5364   21041214.6774
      -247.8284       -193.1134         18.2504         32.7504
 -10709915.68646  -8218037.28346  23165974.6534   23165978.9664
      1896.9844       1478.1704         19.2504         15.5004
    -34036.15245   2693506.86845  24233961.1924   24233964.6144
     -1986.2504      -1547.7274         11.0004         10.0004
  -7268252.52747   -757228.66946  22356102.9274   22356106.5484
     -3307.8284      -2577.5284         22.2504         18.5004
  -9660175.85447   1941358.15146  22473868.2164   22473871.0754
     -1899.2814      -1479.9594         21.5004         17.5004
 -17877609.31646 -13786743.61347  21093892.1304   21093894.7784
       -84.4694        -65.8204         19.5004         34.2504
 99  4 23  1 17 30.0010000  0  7G 3G17G21G22G 6G26G23
  -5895063.53145  -4449812.33445  24119130.7474   24119136.4784
      2885.9844       2248.8194         10.7504          9.7504
 -18645560.02446 -14382773.32547  21042651.1304   21042654.2004
      -256.3124       -199.7244         18.0004         32.7504
 -10766687.30846  -8262274.85746  23155171.1064   23155175.1144
      1888.0004       1471.1694         18.7504         15.7504
     25734.59545   2740081.41945  24245335.1854   24245339.5914
     -1998.0784      -1556.9444         11.5004         10.2504
  -7168830.71147   -679757.18246  22375022.1854   22375025.4314
     -3320.0474      -2587.0504         22.2504         18.5004
  -9602902.77846   1985986.52546  22484767.2714   22484770.1534
     -1918.8754      -1495.2274         19.7504         17.0004
 -17874887.20546 -13784622.47647  21094410.0994   21094412.7944
       -96.8124        -75.4384         19.2504         34.0004
 99  4 23  1 18  0.0010000  0  7G 3G17G21G22G 6G26G23
  -5981525.55246  -4517185.23845  24102678.3254   24102682.4384
      2878.0634       2242.6464         12.0004         10.5004
 -18637741.48846 -14376680.95247  21044138.7634   21044141.7984
      -264.9844       -206.4814         18.0004         32.5004
 -10823203.36646  -8306313.28146  23144416.7474   23144421.0134
      1879.7974       1464.7774         19.2504         16.0004
     85840.13445   2786916.88245  24256773.3254   24256777.7784
     -2009.0314      -1565.4794         11.2504          9.5004
  -7069053.45847   -602008.72946  22394009.3494   22394012.9354
     -3331.7814      -2596.1934         22.0004         18.2504
  -9545048.54746   2031067.74146  22495776.6774   22495779.4784
     -1938.0624      -1510.1794         19.5004         17.0004
 -17871798.69046 -13782215.83047  21094997.6924   21095000.3174
      -109.1254        -85.0324         19.2504         34.2504
 99  4 23  1 18 30.0010000  0  7G 3G17G21G22G 6G26G23
  -6067745.27346  -4584369.37345  24086271.0914   24086274.2674
      2870.1254       2236.4614         12.7504         10.7504
 -18629666.87946 -14370389.04147  21045675.4584   21045678.5874
      -273.0944       -212.8004         18.0004         32.5004
 -10879473.33146  -8350159.94946  23133708.6224   23133712.8064
      1871.7194       1458.4824         18.7504         16.0004
    146275.25445   2834009.14445  24268273.6774   24268277.8374
     -2019.7344      -1573.8194         11.2504          9.5004
  -6968924.47647   -523986.20546  22413063.4114   22413067.5134
     -3343.2664      -2605.1424         22.0004         18.0004
  -9486621.52947   2076595.27546  22506894.7634   22506897.2824
     -1956.9534      -1524.8994         21.5004         16.7504
 -17868345.42946 -13779524.96447  21095654.6854   21095657.3564
      -120.9224        -94.2254         19.2504         34.2504
 99  4 23  1 19  0.0010000  0  7G 3G17G21G22G 6G26G23
  -6153730.11645  -4651370.48145  24069908.9034   24069912.9464
      2862.1884       2230.2764         11.5004         11.0004
 -18621355.41946 -14363912.57247  21047256.9584   21047260.1224
      -280.8594       -218.8514         18.0004         32.5004
 -10935500.16446  -8393817.17246  23123047.1694   23123051.3994
      1863.5314       1452.1024         19.0004         16.0004
    207027.34445   2881348.38645  24279834.5364   24279838.6614
     -2030.3444      -1582.0864         11.2504          9.0004
  -6868446.11047   -445691.43146  22432183.5754   22432187.3724
     -3355.2034      -2614.4444         22.0004         18.0004
  -9427614.66946   2122574.65146  22518123.3724   22518126.1614
     -1976.8284      -1540.3864         18.7504         16.7504
 -17864534.08046 -13776555.07547  21096379.8964   21096382.5794
      -132.9064       -103.5634         19.5004         34.0004
 99  4 23  1 19 30.0010000  0  7G 3G17G21G22G 6G26G23
  -6239469.63946  -4718180.40145  24053592.8254   24053598.4034
      2853.5784       2223.5674         12.5004         10.5004
 -18612822.63746 -14357263.64547  21048880.8724   21048884.0134
      -288.2194       -224.5864         18.0004         32.5004
 -10991295.92746  -8437294.34846  23112429.5674   23112433.3414
      1855.9224       1446.1734         19.7504         16.0004
    268086.84845   2928927.18045  24291453.9894   24291458.6184
     -2040.3594      -1589.8904         11.2504          8.5004
  -6767622.04847   -367127.29246  22451369.9584   22451373.7674
     -3366.5004      -2623.2474         21.7504         18.2504
  -9368017.84347   2169013.71946  22529464.2714   22529466.8254
     -1996.3444      -1555.5934         21.0004         17.0004
 -17860373.43646 -13773313.00447  21097171.8414   21097174.6654
      -144.7814       -112.8174         19.5004         34.2504
 99  4 23  1 20  0.0010000  0  7G 3G17G21G22G 6G26G23
  -6324951.57046  -4784789.62145  24037326.9354   24037330.9194
      2845.1414       2216.9934         13.0004         10.7504
 -18604062.67246 -14350437.69547  21050547.6924   21050550.8454
      -295.8914       -230.5644         18.0004         32.5004
 -11046859.52846  -8480590.60446  23101855.8254   23101859.8804
      1848.1724       1440.1344         19.7504         16.0004
    329447.83145   2976740.87445  24303130.2474   24303136.1304
     -2050.6724      -1597.9264         11.2504          9.5004
  -6666461.06247   -288300.62546  22470620.5134   22470624.1344
     -3377.6254      -2631.9164         21.7504         18.0004
  -9307843.82647   2215902.55046  22540914.9194   22540917.5324
     -2015.2504      -1570.3254         21.5004         17.2504
 -17855846.15846 -13769785.24647  21098033.3644   21098036.0954
      -157.0004       -122.3384         19.5004         34.2504
 99  4 23  1 20 30.0010000  0  7G 3G17G21G22G 6G26G23
  -6410188.28746  -4851207.75345  24021105.7784   24021109.5874
      2837.2664       2210.8564         12.2504         11.0004
 -18595071.42046 -14343431.52047  21052258.8564   21052262.0444
      -303.7034       -236.6524         18.0004         32.7504
 -11102191.60747  -8523706.46646  23091326.9424   23091330.7634
      1840.5634       1434.2054         20.0004         16.2504
    391126.33645   3024802.01145  24314867.3644   24314873.5524
     -2061.3594      -1606.2544         10.7504          9.0004
  -6564971.19747   -209217.66746  22489933.0914   22489936.5364
     -3388.4064      -2640.3174         21.7504         17.7504
  -9247108.33147   2263228.91446  22552472.6924   22552475.0714
     -2033.7504      -1584.7404         20.5004         16.7504
 -17850960.14046 -13765977.95547  21098963.1144   21098965.6694
      -168.8914       -131.6034         19.5004         34.5004
 99  4 23  1 21  0.0010000  0  7G 3G17G21G22G 6G26G23
  -6495187.14145  -4917440.55745  24004930.6924   24004934.9234
      2829.4224       2204.7444         11.7504         11.0004
 -18585839.04146 -14336237.45547  21054015.5524   21054018.5994
      -311.7194       -242.8984         18.0004         32.5004
 -11157291.87747  -8566641.70446  23080841.5214   23080845.1424
      1832.8284       1428.1784         20.5004         16.2504
    453129.41145   3073116.07545  24326666.4354   24326671.8604
     -2072.1254      -1614.6434         10.5004          9.2504
  -6463156.68947   -129881.74246  22509307.8414   22509311.6614
     -3399.0944      -2648.6444         21.5004         17.5004
  -9185823.21146   2310983.53646  22564134.8564   22564137.6344
     -2051.6094      -1598.6574         19.7504         16.5004
 -17845708.76646 -13761885.97347  21099962.4274   21099965.2634
      -180.9694       -141.0154         19.5004         34.5004
 99  4 23  1 21 30.0010000  0  7G 3G17G21G22G 6G26G23
  -6579944.57245  -4983485.23845  23988802.3254   23988806.3684
      2821.2194       2198.3524         11.7504         10.5004
 -18576351.83946 -14328844.82647  21055821.0134   21055824.1304
      -320.7974       -249.9724         18.0004         32.5004
 -11212156.31647  -8609393.18346  23070400.9504   23070405.5674
      1824.7504       1421.8834         20.0004         16.5004
    515465.85745   3121689.87745  24338528.9744   24338533.7674
     -2083.5784      -1623.5674         10.7504          9.0004
  -6361016.87047    -50292.33446  22528744.2864   22528748.1304
     -3410.2974      -2657.3744         21.2504         17.2504
  -9124008.56147   2359150.78646  22575897.4194   22575900.0324
     -2069.2504      -1612.4034         20.5004         16.5004
 -17840095.15946 -13757511.72747  21101030.5524   21101033.2824
      -193.1414       -150.4994         19.5004         34.5004
 99  4 23  1 22  0.0010000  0  7G 3G17G21G22G 6G26G23
  -6664471.21046  -5049350.08945  23972717.7784   23972721.6104
      2813.5634       2192.3864         13.0004         11.0004
 -18566595.43646 -14321242.43347  21057677.4894   21057680.5244
      -329.8594       -257.0334         18.0004         32.5004
 -11266778.29146  -8651955.71946  23060006.8174   23060010.7434
      1816.5314       1415.4794         19.7504         16.7504
    578136.65945   3170524.24445  24350454.5524   24350459.3564
     -2094.7814      -1632.2974         10.5004          9.5004
  -6258541.33447     29558.67346  22548244.9974   22548248.5954
     -3421.7814      -2666.3234         21.0004         17.0004
  -9061672.44047   2407724.37746  22587759.8024   22587763.0364
     -2086.9374      -1626.1854         20.0004         16.5004
 -17834136.23946 -13752868.40847  21102164.6144   21102167.3564
      -204.2504       -159.1564         19.2504         34.5004
 99  4 23  1 22 30.0010000  0  7G 3G17G21G22G 6G26G23
  -6748765.10945  -5115033.56645  23956676.8254   23956681.1494
      2806.0634       2186.5424         11.5004         10.5004
 -18556574.76046 -14313434.11147  21059584.4504   21059587.5214
      -338.2034       -263.5354         18.2504         32.5004
 -11321150.62647  -8694323.73546  23049660.3174   23049664.8064
      1808.1094       1408.9164         20.0004         16.7504
    641139.80945   3219617.49745  24362443.9974   24362450.2904
     -2105.2814      -1640.4794         10.2504          9.2504
  -6155715.61447    109682.54946  22567812.0834   22567815.9274
     -3433.3594      -2675.3454         21.0004         17.0004
  -8998794.35946   2456720.28546  22599725.3024   22599728.2084
     -2104.9534      -1640.2234         18.7504         16.0004
 -17827851.19246 -13747970.96247  21103360.5674   21103363.2394
      -214.8754       -167.4354         19.5004         34.5004
 99  4 23  1 23  0.0010000  0  7G 3G17G21G22G 6G26G23
  -6832829.07646  -5180537.87845  23940680.6534   23940685.7284
      2798.0164       2180.2724         12.5004         10.5004
 -18546305.40346 -14305432.01147  21061538.7084   21061541.7554
      -346.5474       -270.0374         18.2504         32.5004
 -11375260.68746  -8736487.39846  23039363.4114   23039367.3134
      1799.1564       1401.9404         19.7504         17.2504
    704448.95645   3268949.30745  24374490.5914   24374495.3494
     -2115.3754      -1648.3444          9.7504          9.0004
  -6052539.21647    190079.68346  22587445.7864   22587449.6304
     -3445.1254      -2684.5134         20.7504         17.0004
  -8935370.71647   2506141.28046  22611794.4584   22611797.5054
     -2123.4064      -1654.6024         20.0004         16.2504
 -17821239.23546 -13742818.78547  21104618.7634   21104621.5404
      -226.0164       -176.1164         19.5004         34.5004
 99  4 23  1 23 30.0010000  0  7G 3G17G21G22G 6G26G23
  -6916650.83245  -5245853.49045  23924728.7944   23924733.5634
      2789.8594       2173.9164         11.5004         10.7504
 -18535782.36446 -14297232.24047  21063541.1694   21063544.2284
      -355.1094       -276.7094         18.2504         32.7504
 -11429108.32146  -8778446.55746  23029116.2004   23029119.9274
      1790.4844       1395.1834         19.7504         16.7504
    768059.03245   3318515.56545  24386595.6224   24386600.0054
     -2125.3444      -1656.1124         10.5004          9.5004
  -5949010.99747    270750.96146  22607146.6534   22607150.5914
     -3456.9224      -2693.7054         20.2504         16.7504
  -8871387.79747   2555998.08946  22623969.7634   22623972.5634
     -2142.3914      -1669.3954         20.5004         16.0004
 -17814290.37646 -13737404.08447  21105941.1614   21105943.9034
      -237.5004       -185.0654         19.5004         34.5004
 99  4 23  1 24  0.0010000  0  7G 3G17G21G22G 6G26G23
  -7000220.19245  -5310972.39845  23908826.9814   23908830.9194
      2781.3284       2167.2694         11.5004         10.7504
 -18525006.91646 -14288835.78347  21065591.5284   21065594.6694
      -363.3444       -283.1254         18.2504         32.7504
 -11482687.12447  -8820196.25246  23018920.8724   23018925.0094
      1781.3754       1388.0844         20.2504         17.0004
    831964.92345   3368312.29545  24398756.0674   24398760.3214
     -2135.2194      -1663.8074         10.5004          9.5004
  -5845131.31047    351696.10746  22626914.4584   22626918.1034
     -3468.3914      -2702.6424         20.0004         16.7504
  -8806833.74747   2606299.93546  22636254.1694   22636256.7714
     -2161.3124      -1684.1404         20.2504         16.0004
 -17806986.51046 -13731712.75547  21107331.0054   21107333.7354
      -249.7034       -194.5744         19.2504         34.2504
 99  4 23  1 24 30.0010000  0  7G 3G17G21G22G 6G26G23
  -7083536.00745  -5375893.75945  23892971.1304   23892975.7354
      2772.9844       2160.7674         11.2504         10.7504
 -18513987.89346 -14280249.53047  21067688.4354   21067691.6464
      -371.5164       -289.4934         18.2504         32.7504
 -11536000.20347  -8861738.88146  23008775.5754   23008779.8644
      1772.8284       1381.4254         20.2504         17.0004
    896170.35645   3418342.46945  24410974.2004   24410980.7394
     -2145.1094      -1671.5144         10.0004          9.2504
  -5740918.32646    432900.97846  22646745.6304   22646749.8604
     -3479.0624      -2710.9584         19.7504         16.7504
  -8741722.03547   2657036.32546  22648644.2554   22648646.5994
     -2179.3284      -1698.1784         20.5004         15.7504
 -17799303.81146 -13725726.23147  21108792.8884   21108795.6064
      -262.6254       -204.6434         19.2504         34.2504
 99  4 23  1 25  0.0010000  0  7G 3G17G21G22G 6G26G23
  -7166589.60345  -5440610.78045  23877167.6924   23877171.1494
      2764.0164       2153.7784         11.7504         10.7504
 -18502704.71246 -14271457.43247  21069835.3644   21069838.5994
      -380.5004       -296.4944         18.2504         32.7504
 -11589057.33647  -8903082.06946  22998678.7004   22998682.4384
      1764.6724       1375.0694         20.0004         17.0004
    960677.46345   3468607.68445  24423249.4504   24423254.0444
     -2155.3284      -1679.4764          9.5004          9.2504
  -5636386.05046    514354.63746  22666637.4584   22666641.2314
     -3489.6724      -2719.2254         19.5004         16.2504
  -8676070.81246   2708193.11446  22661137.2004   22661140.3064
     -2197.3124      -1712.1924         18.7504         16.0004
 -17791223.02446 -13719429.50847  21110330.6774   21110333.3254
      -275.8914       -214.9804         19.2504         34.0004
 99  4 23  1 25 30.0010000  0  7G 3G17G21G22G 6G26G23
  -7249383.82646  -5505125.71145  23861412.5134   23861415.1854
      2755.3754       2147.0454         13.2504         10.7504
 -18491164.69146 -14262465.20347  21072031.5214   21072034.6494
      -388.9534       -303.0804         18.2504         32.7504
 -11641883.25947  -8944245.10146  22988626.6064   22988630.4274
      1756.6724       1368.8354         20.5004         16.5004
   1025486.71245   3519108.35245  24435582.8104   24435588.1064
     -2165.4374      -1687.3544          9.5004          8.5004
  -5531543.25146    596050.25846  22686588.2394   22686592.1774
     -3500.0474      -2727.3094         19.5004         16.2504
  -8609891.57447   2759761.32846  22673730.9424   22673733.6034
     -2214.8444      -1725.8524         20.0004         16.0004
 -17782765.15746 -13712838.95747  21111940.2004   21111942.9074
      -288.1094       -224.5014         19.2504         34.2504
 99  4 23  1 26  0.0010000  0  7G 3G17G21G22G 6G26G23
  -7331911.63545  -5569433.05545  23845707.2554   23845712.3994
      2746.4534       2140.0934         11.0004         10.7504
 -18479372.40846 -14253276.40947  21074275.5444   21074278.6034
      -397.2974       -309.5824         18.2504         32.7504
 -11694454.67247  -8985209.79946  22978622.9354   22978626.7904
      1748.0634       1362.1274         21.0004         17.2504
   1090597.90345   3569844.27745  24447972.4194   24447978.1494
     -2175.3594      -1695.0854          9.2504          8.5004
  -5426389.36246    677988.29446  22706598.4504   22706602.4934
     -3510.2344      -2735.2484         19.2504         15.7504
  -8543187.83947   2811738.25546  22686424.4194   22686427.5484
     -2232.1564      -1739.3434         20.5004         16.0004
 -17773943.14546 -13705964.65847  21113618.9034   21113621.5404
      -299.9844       -233.7544         19.2504         34.0004
 99  4 23  1 26 30.0010000  0  7G 3G17G21G22G 6G26G23
  -7414173.60346  -5633533.21645  23830053.3494   23830057.7904
      2737.7344       2133.3004         12.5004         11.0004
 -18467327.62546 -14243890.86347  21076567.6694   21076570.7634
      -405.7034       -316.1324         18.0004         32.7504
 -11746780.46247  -9025983.10846  22968665.2554   22968668.9114
      1740.3754       1356.1364         21.0004         17.0004
   1155995.20145   3620803.18845  24460417.8024   24460423.2864
     -2184.1414      -1701.9284          9.7504          8.5004
  -5320935.63346    760159.96946  22726665.8104   22726669.8414
     -3519.9374      -2742.8084         19.0004         16.0004
  -8475966.61947   2864118.41046  22699215.7474   22699218.6304
     -2249.2194      -1752.6384         20.2504         15.7504
 -17764776.83346 -13698822.07347  21115363.1304   21115365.7204
      -310.8284       -242.2044         19.2504         33.7504
 99  4 23  1 27  0.0010000  0  7G 3G17G21G22G 6G26G23
  -7496175.13146  -5697430.45845  23814449.3644   23814453.4424
      2728.9224       2126.4334         12.0004         11.2504
 -18455034.96946 -14234312.16447  21078906.7784   21078909.8374
      -413.7194       -322.3784         18.0004         32.7504
 -11798870.33647  -9066572.58646  22958753.0134   22958756.9034
      1732.2194       1349.7814         21.0004         17.5004
   1221639.72045   3671954.69245  24472908.8804   24472914.1884
     -2192.3444      -1708.3204          9.2504          8.7504
  -5215189.84246    842559.22746  22746788.4504   22746792.2714
     -3529.9694      -2750.6254         18.7504         15.5004
  -8408224.50446   2916904.47346  22712106.7084   22712110.0604
     -2267.0944      -1766.5674         18.5004         15.5004
 -17755299.76846 -13691437.33847  21117166.8414   21117169.5134
      -321.0474       -250.1664         19.5004         34.0004
 99  4 23  1 27 30.0010000  0  7G 3G17G21G22G 6G26G23
  -7577911.41346  -5761121.01345  23798894.3334   23798898.7744
      2719.9224       2119.4204         12.5004         11.0004
 -18442504.18846 -14224547.91447  21081291.2554   21081294.3964
      -421.8284       -328.6974         18.2504         32.7504
 -11850707.92347  -9106965.46346  22948888.5054   22948892.1854
      1723.4064       1342.9144         21.5004         17.2504
   1287532.97745   3723300.01245  24485447.8254   24485452.1144
     -2200.5944      -1714.7484          9.2504          9.2504
  -5109140.53046    925194.98946  22766969.5444   22766973.2474
     -3540.0624      -2758.4904         19.0004         15.2504
  -8339944.68046   2970109.50846  22725099.8964   22725103.3764
     -2285.0784      -1780.5804         18.0004         15.5004
 -17745516.45146 -13683813.97047  21119028.4584   21119031.0244
      -331.3754       -258.2144         19.5004         34.0004
 99  4 23  1 28  0.0010000  0  7G 3G17G21G22G 6G26G23
  -7659370.92146  -5824595.88945  23783393.8104   23783396.5634
      2710.7664       2112.2854         13.2504         11.5004
 -18429729.42846 -14214593.55647  21083722.1144   21083725.1964
      -429.8284       -334.9314         18.0004         33.0004
 -11902288.69547  -9147158.23646  22939072.8104   22939076.7354
      1715.4224       1336.6924         21.2504         17.2504
   1353669.21545   3774834.68745  24498033.4664   24498039.3494
     -2208.4844      -1720.8974          9.0004          9.0004
  -5002787.37446   1008067.51046  22787207.1224   22787210.7084
     -3550.1564      -2766.3564         18.7504         15.5004
  -8271125.26546   3023735.01346  22738195.9274   22738199.1964
     -2302.7664      -1794.3634         18.5004         15.5004
 -17735419.32846 -13675946.07447  21120949.7164   21120952.2824
      -341.7504       -266.2994         19.5004         34.0004
 99  4 23  1 28 30.0010000  0  7G 3G17G21G22G 6G26G23
  -7740558.31546  -5887858.72445  23767944.4274   23767948.7634
      2701.7194       2105.2354         13.5004         11.2504
 -18416710.47046 -14204448.91347  21086199.6774   21086202.8414
      -438.1254       -341.3964         18.0004         33.0004
 -11953635.63747  -9187168.79146  22929302.0674   22929306.0404
      1707.5944       1330.5934         21.5004         17.5004
   1420044.17945   3826555.38845  24510664.6924   24510670.7744
     -2216.6874      -1727.2894          9.7504          9.0004
  -4896129.65646   1091177.37246  22807504.0674   22807507.7354
     -3560.5004      -2774.4164         18.7504         15.2504
  -8201777.63246   3077772.11846  22751392.5134   22751396.2514
     -2320.4064      -1808.1094         17.5004         15.2504
 -17725008.51946 -13667833.75047  21122930.9194   21122933.6034
      -352.3754       -274.5784         19.2504         34.0004
 99  4 23  1 29  0.0010000  0  7G 3G17G21G22G 6G26G23
  -7821475.88546  -5950911.31645  23752546.1854   23752551.1774
      2692.8134       2098.2954         13.0004         11.7504
 -18403453.78946 -14194119.03047  21088722.5364   21088725.7474
      -445.5164       -347.1554         18.2504         32.7504
 -12004741.16447  -9226991.22746  22919577.0214   22919580.7944
      1699.5474       1324.3224         21.5004         17.5004
   1486677.42145   3878477.32845  24523344.5674   24523349.3964
     -2225.7974      -1734.3874          9.7504          9.0004
  -4789159.03446   1174531.04346  22827859.7084   22827863.1184
     -3570.8444      -2782.4764         18.2504         15.2504
  -8131902.19146   3132220.50146  22764689.6064   22764692.9354
     -2337.8594      -1821.7094         17.0004         15.2504
 -17714276.57246 -13659471.18847  21124973.1774   21124975.8724
      -363.2194       -283.0284         19.5004         34.0004
 99  4 23  1 29 30.0010000  0  7G 3G17G21G22G 6G26G23
  -7902128.34346  -6013757.31346  23737198.2474   23737202.5134
      2684.0634       2091.4774         13.5004         12.0004
 -18389976.29546 -14183617.08647  21091287.1064   21091290.1534
      -453.0944       -353.0604         18.5004         32.7504
 -12055612.63847  -9266631.29446  22909896.3804   22909899.8964
      1691.7974       1318.2834         21.7504         17.5004
   1553593.56245   3930619.71045  24536078.1064   24536082.5714
     -2235.2814      -1741.7784          9.7504          9.2504
  -4681878.59546   1258126.12146  22848274.5524   22848278.7004
     -3581.1724      -2790.5244         18.0004         15.0004
  -8061512.37546   3187069.68446  22778083.9894   22778087.1424
     -2354.8284      -1834.9314         18.2504         15.5004
 -17703210.63246 -13650848.37347  21127079.0054   21127081.6424
      -374.6094       -291.9034         19.2504         34.0004
 99  4 23  1 30  0.0010000  0  7G 3G17G21G22G 6G26G23
  -7982519.56246  -6076399.77446  23721900.1384   23721903.4074
      2675.7034       2084.9634         14.0004         12.5004
 -18376264.46946 -14172932.54447  21093896.2714   21093899.3414
      -460.8444       -359.0994         18.2504         32.7504
 -12106249.91247  -9306088.86446  22900260.0834   22900263.6814
      1684.2034       1312.3664         22.0004         17.7504
   1620799.60745   3982987.99145  24548866.8724   24548873.0954
     -2244.8284      -1749.2174         10.0004          8.7504
  -4574291.60546   1341960.09046  22868747.7394   22868751.9584
     -3590.9064      -2798.1094         18.0004         14.5004
  -7990618.90946   3242311.33646  22791574.8254   22791577.3454
     -2371.1564      -1847.6544         18.2504         15.0004
 -17691796.79346 -13641954.47047  21129250.7084   21129253.3454
      -386.2034       -300.9374         19.2504         34.0004
 99  4 23  1 30 30.0010000  0  7G 3G17G21G22G 6G26G23
  -8062667.88246  -6138852.95246  23706647.8964   23706651.3764
      2667.5474       2078.6084         13.5004         12.0004
 -18362321.40146 -14162067.81247  21096549.6064   21096552.7004
      -468.6094       -365.1504         18.2504         32.5004
 -12156655.26947  -9345365.71446  22890668.5604   22890672.2634
      1676.2194       1306.1444         21.7504         17.5004
   1688289.61845   4035577.56645  24561709.6854   24561713.8334
     -2254.4374      -1756.7054         10.5004          9.5004
  -4466424.50146   1426012.31146  22889274.1224   22889277.3564
     -3600.1724      -2805.3294         17.5004         14.7504
  -7919234.20546   3297935.77646  22805158.8174   22805162.1104
     -2387.8284      -1860.6454         18.0004         15.2504
 -17680033.73246 -13632788.44147  21131489.1774   21131491.9544
      -397.9694       -310.1064         19.2504         34.0004
 99  4 23  1 31  0.0010000  0  7G 3G17G21G22G 6G26G23
  -8142566.74146  -6201111.73045  23691444.0134   23691447.3534
      2659.1254       2072.0454         14.0004         11.7504
 -18348145.56746 -14151021.70747  21099247.0994   21099250.2984
      -476.4844       -371.2874         18.5004         32.5004
 -12206821.61647  -9384456.32146  22881122.0914   22881125.7124
      1668.3134       1299.9844         22.0004         18.0004
   1756066.74545   4088390.83345  24574607.3254   24574612.9154
     -2263.8914      -1764.0714         10.0004          9.7504
  -4358283.12546   1510278.24646  22909853.2004   22909856.7164
     -3609.0164      -2812.2204         17.5004         14.5004
  -7847351.92246   3353947.92646  22818837.5674   22818840.5794
     -2404.1414      -1873.3564         17.5004         15.2504
 -17667915.25746 -13623345.46747  21133795.2784   21133797.9854
      -409.8754       -319.3834         19.0004         34.0004
 99  4 23  1 31 30.0010000  0  7G 3G17G21G22G 6G26G23
  -8222200.44746  -6263163.92246  23676289.5134   23676292.7824
      2649.9064       2064.8624         13.2504         12.2504
 -18333713.32746 -14139775.80647  21101993.3964   21101996.5714
      -485.7664       -378.5194         18.2504         32.7504
 -12256742.04247  -9423355.29846  22871622.7474   22871626.5674
      1659.7194       1293.2874         22.2504         18.2504
   1824118.44345   4141418.05845  24587557.3644   24587561.0564
     -2272.6254      -1770.8774          9.7504          9.2504
  -4249876.48746   1594750.88946  22930481.7944   22930485.6264
     -3617.7814      -2819.0504         17.5004         14.2504
  -7774984.83446   3410337.83546  22832608.8724   22832611.8374
     -2420.1564      -1885.8364         18.7504         15.2504
 -17655438.44746 -13613623.27147  21136169.4584   21136172.2004
      -421.6724       -328.5754         19.2504         34.0004
 99  4 23  1 32  0.0010000  0  7G 3G17G21G22G 6G26G23
  -8301552.39246  -6324996.56146  23661190.4274   23661194.1064
      2640.0004       2057.1434         13.5004         12.0004
 -18319005.53246 -14128315.18447  21104792.3174   21104795.3414
      -494.7974       -385.5564         18.2504         32.5004
 -12306403.56947  -9462052.53846  22862172.2944   22862175.8684
      1650.9534       1286.4574         22.7504         18.5004
   1892414.85845   4194635.97145  24600554.3254   24600559.4234
     -2280.4844      -1777.0014          9.7504          9.2504
  -4141221.59146   1679416.98146  22951158.1534   22951162.1854
     -3626.0164      -2825.4674         17.2504         13.7504
  -7702148.61446   3467093.32246  22846468.7554   22846471.0524
     -2435.8444      -1898.0604         17.7504         15.0004
 -17642622.14146 -13603636.52847  21138608.5524   21138611.2594
      -432.7194       -337.1834         19.0004         34.0004
 99  4 23  1 32 30.0010000  0  7G 3G17G21G22G 6G26G23
  -8380596.12746  -6386589.01646  23646148.3564   23646152.1064
      2629.3914       2048.8764         13.5004         12.0004
 -18304027.08146 -14116643.66047  21107642.6464   21107645.7864
      -503.8444       -392.6064         18.2504         32.5004
 -12355801.83547  -9500544.64746  22852771.9034   22852775.5714
      1642.1564       1279.6024         23.0004         18.2504
   1960944.20545   4248035.40045  24613594.9114   24613601.6034
     -2288.2194      -1783.0284          9.7504          9.5004
  -4032308.33446   1764284.38946  22971884.0134   22971887.8454
     -3635.0784      -2832.5284         17.0004         14.2504
  -7628830.57646   3524224.23546  22860420.8494   22860423.3564
     -2452.0004      -1910.6494         17.7504         15.0004
 -17629480.15446 -13593396.01347  21141109.3334   21141112.0174
      -443.3444       -345.4634         19.0004         34.0004
 99  4 23  1 33  0.0010000  0  7G 3G17G21G22G 6G26G23
  -8459310.96646  -6447925.20246  23631169.4274   23631173.2944
      2618.2034       2040.1584         13.5004         12.0004
 -18288775.40546 -14104759.24447  21110545.0214   21110547.9854
      -513.0314       -399.7654         18.2504         32.5004
 -12404934.45647  -9538829.74846  22843422.7164   22843426.1614
      1633.2344       1272.6504         23.2504         18.7504
   2029696.82445   4301608.80145  24626677.9504   24626683.2824
     -2295.2504      -1788.5064         10.0004          9.7504
  -3923117.60946   1849368.01746  22992662.1924   22992666.7044
     -3644.3594      -2839.7614         17.2504         13.5004
  -7555035.77346   3581726.65646  22874463.4504   22874466.2634
     -2467.7814      -1922.9464         17.5004         15.0004
 -17616028.46446 -13582914.17147  21143668.9664   21143671.5794
      -453.4224       -353.3164         19.2504         34.0004
 99  4 23  1 33 30.0010000  0  7G 3G17G21G22G 6G26G23
  -8537692.25946  -6509001.47645  23616253.7314   23616258.1494
      2607.2034       2031.5874         13.2504         11.5004
 -18273251.15246 -14092662.41647  21113498.9744   21113501.9274
      -521.7974       -406.5954         18.5004         32.5004
 -12453798.27647  -9576905.39246  22834123.6694   22834127.1734
      1624.4064       1265.7714         23.2504         18.5004
   2098650.25345   4355338.67145  24639799.4894   24639805.3254
     -2301.7344      -1793.5594          9.7504          9.5004
  -3813648.75446   1934668.35946  23013493.5604   23013497.6734
     -3653.6094      -2846.9684         16.7504         14.0004
  -7480761.37146   3639602.78946  22888597.3804   22888599.3134
     -2484.1094      -1935.6704         17.7504         15.0004
 -17602283.95846 -13572204.16147  21146284.4974   21146287.1694
      -462.8594       -360.6704         19.0004         34.0004
 99  4 23  1 34  0.0010000  0  8G 3G17G29G21G22G 6G26G23
  -8615743.71546  -6569820.74246  23601402.1064   23601406.2904
      2596.3914       2023.1624         14.7504         12.5004
 -18257474.18846 -14080368.67847  21116501.3564   21116504.3804
      -529.8914       -412.9024         18.2504         32.5004
    -16587.53955                  25204985.7864
      3318.2664                          8.0004
 -12502403.54747  -9614779.56646  22824874.3884   22824878.0444
      1616.1414       1259.3304         22.7504         18.5004
   2167811.07745   4409230.15445  24652960.2084   24652966.1144
     -2309.0314      -1799.2454          9.5004          9.5004
  -3703896.50046   2020189.52946  23034378.8414   23034382.3454
     -3663.2504      -2854.4814         16.7504         13.5004
  -7405972.76546   3697879.60046  22902829.0674   22902831.5634
     -2501.8914      -1949.5254         17.5004         15.0004
 -17588247.05946 -13561266.30547  21148955.6534   21148958.2784
      -472.7664       -368.3894         19.2504         33.7504
 99  4 23  1 34 30.0010000  0  8G 3G17G29G21G22G 6G26G23
  -8693474.41446  -6630390.07346  23586609.4274   23586613.5634
      2585.8914       2014.9804         14.2504         12.2504
 -18241446.41946 -14067879.50647  21119551.1144   21119554.2314
      -538.4534       -419.5744         18.5004         32.2504
   -116144.38445                  25186039.8804
      3319.0474                          8.0004
 -12550765.96547  -9652464.51246  22815671.3884   22815674.5284
      1608.1254       1253.0844         22.7504         18.2504
   2237204.65545   4463303.00045  24666165.4744   24666171.2284
     -2317.0784      -1805.5154          9.7504          9.0004
  -3593852.99346   2105937.66246  23055319.3724   23055323.0524
     -3672.7664      -2861.8954         16.7504         13.2504
  -7330641.38446   3756579.36246  22917164.6694   22917167.9854
     -2519.8754      -1963.5394         16.7504         14.2504
 -17573907.91246 -13550092.93747  21151684.3494   21151687.0444
      -483.0004       -376.3644         19.2504         33.5004
 99  4 23  1 35  0.0010000  0  8G 3G17G29G21G22G 6G26G23
  -8770904.09446  -6690724.84146  23571875.1694   23571878.7904
      2576.2504       2007.4684         13.2504         12.0004
 -18225176.99546 -14055202.03347  21122647.2394   21122650.2514
      -546.1724       -425.5884         18.2504         32.2504
   -215730.05345    -18105.91855  25167089.3494   25167096.6884
      3319.8914       2586.9284          8.7504          8.0004
 -12598897.84847  -9689969.82646  22806512.1614   22806515.9704
      1600.6724       1247.2774         22.7504         18.2504
   2306828.04045   4517554.92445  24679414.4894   24679421.2394
     -2324.5624      -1811.3474         10.2504          9.2504
  -3483543.95146   2191892.70146  23076310.4744   23076314.3644
     -3681.0004      -2868.3124         16.5004         13.5004
  -7254782.37046   3815690.26046  22931599.7084   22931602.8374
     -2537.5004      -1977.2734         16.5004         14.7504
 -17559268.76246 -13538685.79847  21154469.9584   21154472.4894
      -493.0624       -384.2054         19.2504         33.7504
 99  4 23  1 35 30.0010000  0  8G 3G17G29G21G22G 6G26G23
  -8848049.04246  -6750837.71346  23557194.9424   23557198.5054
      2566.6414       1999.9804         14.2504         12.2504
 -18208670.64646 -14042339.94347  21125788.5214   21125791.6144
      -554.2664       -431.8954         18.2504         32.2504
   -315325.10245    -95711.72945  25148135.8804   25148143.8644
      3319.6884       2586.7694          8.5004          7.0004
 -12646806.37747  -9727301.08746  22797395.5214   22797399.0604
      1593.2194       1241.4694         22.0004         18.5004
   2376691.33945   4571993.77745  24692709.1924   24692715.3564
     -2333.1254      -1818.0194         10.2504          9.5004
  -3372995.55046   2278034.24446  23097347.6144   23097352.8064
     -3689.0004      -2874.5454         16.2504         13.2504
  -7178387.56446   3875218.66846  22946137.4974   22946140.3214
     -2555.5624      -1991.3474         16.2504         14.5004
 -17544315.32946 -13527033.76147  21157315.5134   21157317.9854
      -503.8914       -392.6424         19.2504         33.5004
 99  4 23  1 36  0.0010000  0  8G 3G17G29G21G22G 6G26G23
  -8924906.20546  -6810726.36646  23542569.7474   23542573.0524
      2556.9694       1992.4434         14.2504         12.5004
 -18191919.63546 -14029287.20947  21128976.0524   21128978.9934
      -562.7504       -438.5064         18.2504         32.5004
   -414910.07445   -173309.68445  25129185.3024   25129191.0564
      3319.1254       2586.3314          8.7504          7.2504
 -12694498.62047  -9764463.83746  22788319.7784   22788323.2944
      1586.0474       1235.8814         22.0004         18.2504
   2446815.07345   4626635.56345  24706053.1304   24706058.6494
     -2341.7344      -1824.7284         11.2504          9.2504
  -3262200.17246   2364368.22946  23118430.7314   23118434.8214
     -3697.5784      -2881.2304         16.0004         13.0004
  -7101459.64946   3935162.46946  22960776.3964   22960779.5364
     -2572.8594      -2004.8254         16.7504         14.5004
 -17529033.36746 -13515125.74047  21160223.6224   21160226.3414
      -515.0314       -401.3234         19.0004         33.5004
 99  4 23  1 36 30.0010000  0  8G 3G17G29G21G22G 6G26G23
  -9001469.57646  -6870386.08446  23528000.0214   23528004.0874
      2547.3594       1984.9554         14.5004         13.0004
 -18174913.46446 -14016035.65247  21132212.0674   21132215.0794
      -570.8594       -444.8254         18.2504         32.5004
   -514477.16045   -250893.73345  25110237.8254   25110246.7824
      3318.7814       2586.0634          9.0004          7.7504
 -12741976.08547  -9801459.22146  22779284.9974   22779288.7244
      1579.1094       1230.4754         21.7504         18.2504
   2517182.07645   4681466.95345  24719443.9194   24719449.1104
     -2349.2504      -1830.5844         11.2504          9.2504
  -3151150.37246   2450900.48446  23139563.0054   23139566.8254
     -3705.7974      -2887.6344         16.0004         13.0004
  -7024038.08746   3995490.93846  22975509.1144   22975512.3494
     -2588.3444      -2016.8914         16.5004         14.5004
 -17513419.53446 -13502959.10847  21163194.8564   21163197.5174
      -525.8594       -409.7614         19.0004         33.2504
 99  4 23  1 37  0.0010000  0  8G 3G17G29G21G22G 6G26G23
  -9077747.95646  -6929823.73246  23513484.7474   23513488.7554
      2537.9384       1977.6144         14.5004         12.5004
 -18157667.78046 -14002597.45947  21135494.0364   21135497.0954
      -578.9224       -451.1084         18.7504         32.5004
   -614039.15145   -328473.81845  25091291.6384   25091298.8494
      3318.6254       2585.9424          9.2504          8.0004
 -12789241.58947  -9838289.44746  22770290.4664   22770294.2744
      1572.0474       1224.9724         22.2504         18.5004
   2587768.07445   4736468.94645  24732876.2314   24732880.3104
     -2356.4064      -1836.1614         11.2504          9.5004
  -3039843.77046   2537632.82746  23160744.4034   23160748.4354
     -3714.6094      -2894.5014         16.0004         13.0004
  -6946158.95346   4056175.95346  22990328.9664   22990331.9194
     -2603.5164      -2028.7134         17.5004         14.2504
 -17497482.34046 -13490540.51447  21166227.5054   21166230.0834
      -536.6414       -418.1624         18.7504         33.2504
 99  4 23  1 37 30.0010000  0  8G 3G17G29G21G22G 6G26G23
  -9153735.66346  -6989034.85446  23499024.2084   23499028.2864
      2527.9844       1969.8584         15.0004         13.0004
 -18140167.82446 -13988961.13647  21138824.0214   21138827.1964
      -587.5474       -457.8294         18.2504         32.2504
   -713592.05345   -406046.88445  25072346.8104   25072352.8104
      3318.5004       2585.8444          9.2504          8.2504
 -12836291.66247  -9874951.80546  22761337.3254   22761340.9704
      1564.7344       1219.2744         23.2504         18.7504
   2658568.03545   4791637.68545  24746349.5054   24746354.5564
     -2363.3124      -1841.5424         11.2504          9.7504
  -2928261.14546   2624580.25146  23181977.6144   23181981.9274
     -3724.2194      -2901.9894         15.2504         12.7504
  -6867831.90246   4117210.02046  23005234.5754   23005238.0794
     -2618.0314      -2040.0244         15.7504         14.0004
 -17481223.74346 -13477871.47247  21169321.3494   21169324.0444
      -547.0314       -426.2584         19.0004         33.2504
 99  4 23  1 38  0.0010000  0  8G 3G17G29G21G22G 6G26G23
  -9229421.92546  -7048011.12246  23484621.4034   23484625.0484
      2517.7664       1961.8954         15.2504         13.0004
 -18122414.17946 -13975127.13847  21142202.5214   21142205.7554
      -595.9844       -464.4034         18.2504         32.2504
   -813151.64245   -483625.18045  25053400.4974   25053408.1774
      3318.8754       2586.1364          9.5004          8.0004
 -12883120.79347  -9911442.00246  22752426.1854   22752429.4074
      1557.0634       1213.2954         24.0004         18.7504
   2729563.86245   4846959.01845  24759858.9974   24759862.8414
     -2369.6724      -1846.4984         11.0004          9.5004
  -2816383.94046   2711757.22346  23203267.4274   23203271.3294
     -3734.1564      -2909.7324         16.0004         12.5004
  -6789081.43646   4178573.98746  23020220.4114   23020223.6694
     -2631.9224      -2050.8484         16.0004         14.2504
 -17464660.14146 -13464964.75947  21172473.4354   21172476.0954
      -557.1874       -434.1724         18.7504         33.2504
 99  4 23  1 38 30.0010000  0  8G 3G17G29G21G22G 6G26G23
  -9304796.67146  -7106744.63346  23470278.6224   23470282.2554
      2507.2344       1953.6894         15.7504         13.2504
 -18104408.54646 -13961096.77947  21145628.6774   21145631.7354
      -604.5004       -471.0394         18.2504         32.2504
   -912727.79445   -561216.43145  25034451.3174   25034457.7864
      3319.4844       2586.6114          9.7504          8.2504
 -12929704.54047  -9947740.99946  22743561.8104   22743565.1614
      1548.3284       1206.4894         24.0004         19.0004
   2800752.55745   4902430.66645  24773405.8104   24773410.8134
     -2376.5004      -1851.8184         10.5004          9.7504
  -2704222.49746   2799155.68446  23224610.8494   23224614.9744
     -3743.2814      -2916.8434         15.5004         12.5004
  -6709913.75246   4240263.06646  23035285.5134   23035288.4074
     -2646.1724      -2061.9524         16.5004         14.2504
 -17447796.16246 -13451823.99647  21175682.4114   21175685.0604
      -567.0474       -441.8554         18.7504         33.5004
 99  4 23  1 39  0.0010000  0  8G 3G17G29G21G22G 6G26G23
  -9379849.98746  -7165227.68946  23455995.6534   23455999.6734
      2496.0164       1944.9474         14.2504         12.7504
 -18086132.29146 -13946855.54847  21149106.6224   21149109.6924
      -614.0944       -478.5154         18.5004         32.0004
  -1012322.01245   -638821.80145  25015498.9194   25015506.0364
      3319.9064       2586.9404          9.7504          8.5004
 -12976012.33947  -9983824.96646  22734749.5604   22734752.7354
      1538.7194       1199.0024         24.7504         19.2504
   2872155.70445   4958069.42845  24786993.2714   24786998.4154
     -2383.8284      -1857.5284         10.0004          9.2504
  -2591785.21546   2886769.07146  23246006.9584   23246011.1064
     -3752.5624      -2924.0754         15.5004         12.7504
  -6630302.26146   4302297.98146  23050434.5444   23050437.1574
     -2661.5624      -2073.9454         16.0004         14.2504
 -17430639.30146 -13438455.00447  21178947.3254   21178949.9034
      -577.0004       -449.6104         18.7504         33.2504
 99  4 23  1 39 30.0010000  0  8G 3G17G29G21G22G 6G26G23
  -9454559.54046  -7223442.87146  23441779.4194   23441782.9814
      2484.4224       1935.9134         15.5004         13.2504
 -18067570.16646 -13932391.55947  21152638.8174   21152641.7944
      -623.6254       -485.9424         18.2504         32.2504
  -1111930.62045   -716438.41145  24996543.6144   24996551.3764
      3320.4384       2587.3544         10.2504          9.2504
 -13022035.86447 -10019687.42446  22725991.2714   22725994.6104
      1529.2814       1191.6484         24.5004         19.5004
   2943769.84145   5013872.56345  24800620.5364   24800626.6774
     -2390.8124      -1862.9714          9.5004          8.5004
  -2479086.28646   2974586.35746  23267453.3564   23267456.9894
     -3760.8124      -2930.5034         15.5004         12.7504
  -6550226.91446   4364694.33146  23065672.6224   23065675.1424
     -2677.1874      -2086.1204         16.2504         14.0004
 -17413188.52446 -13424856.98747  21182268.0364   21182270.6614
      -586.6724       -457.1474         18.7504         33.2504
 99  4 23  1 40  0.0010000  0  8G 3G17G29G21G22G 6G26G23
  -9528917.40846  -7281384.02946  23427629.6694   23427633.6064
      2472.8134       1926.8674         15.2504         13.2504
 -18048713.13146 -13917697.77347  21156227.3104   21156230.3924
      -633.5004       -493.6364         18.0004         32.2504
  -1211540.66245   -794056.14145  24977588.4894   24977595.5714
      3320.1254       2587.1104         10.5004          9.0004
 -13067774.60447 -10055327.96646  22717287.8414   22717290.9704
      1520.0164       1184.4284         25.0004         19.7504
   3015606.51345   5069849.13845  24814290.7244   24814296.2204
     -2398.2974      -1868.8034          8.7504          8.7504
  -2366143.93746   3062593.29646  23288945.2554   23288949.4274
     -3768.5624      -2936.5424         15.5004         12.7504
  -6469669.73746   4427466.14446  23081001.8804   23081004.1304
     -2693.4064      -2098.7584         16.5004         13.5004
 -17395434.58846 -13411022.74347  21185646.5444   21185649.2044
      -597.0474       -465.2314         18.7504         33.5004
 99  4 23  1 40 30.0010000  0  8G 3G17G29G21G22G 6G26G23
  -9602929.99946  -7339056.11746  23413545.2164   23413548.9784
      2461.6094       1918.1374         15.5004         12.7504
 -18029557.08546 -13902770.98847  21159872.5994   21159875.5874
      -643.3754       -501.3314         18.0004         32.2504
  -1311135.66645   -871662.20345  24958635.6144   24958642.6034
      3319.6094       2586.7094         10.2504          8.2504
 -13113237.72847 -10090753.74746  22708636.1774   22708639.5524
      1511.1724       1177.5374         25.0004         19.7504
   3087666.73245   5125999.88945  24828003.9744   24828010.4664
     -2405.5164      -1874.4284          8.7504          9.0004
  -2252977.96546   3150774.49846  23310480.2784   23310484.3564
     -3775.6724      -2942.0824         15.2504         12.7504
  -6388616.69646   4490624.33746  23096426.1224   23096429.1464
     -2710.0164      -2111.7004         15.7504         13.5004
 -17377364.10346 -13396941.83447  21189085.2164   21189087.8294
      -607.4844       -473.3644         18.7504         33.5004
 99  4 23  1 41  0.0010000  0  8G 3G17G29G21G22G 6G26G23
  -9676603.16546  -7396463.73246  23399526.2244   23399529.8104
      2450.2034       1909.2494         16.0004         12.5004
 -18010101.50846 -13887610.80047  21163574.8334   21163577.9504
      -653.1724       -508.9654         18.0004         32.0004
  -1410700.04345   -949244.39545  24939688.8334   24939695.6654
      3318.2194       2585.6254         10.2504          9.5004
 -13158442.00447 -10125977.82446  22700034.1694   22700037.3564
      1502.9844       1171.1574         24.7504         20.0004
   3159941.89045   5182318.10645  24841756.9354   24841761.6344
     -2412.3754      -1879.7734          9.2504          8.7504
  -2139586.58446   3239131.34246  23332057.7164   23332062.0284
     -3783.3594      -2948.0724         14.7504         12.2504
  -6307063.45046   4554172.30646  23111944.9974   23111947.9744
     -2726.4534      -2124.5094         16.0004         13.7504
 -17358969.04446 -13382608.01647  21192585.6534   21192588.3724
      -618.6254       -482.0454         18.7504         33.5004
 99  4 23  1 41 30.0010000  0  8G 3G17G29G21G22G 6G26G23
  -9749937.88546  -7453607.62846  23385570.7004   23385574.3804
      2438.8284       1900.3864         15.2504         13.2504
 -17990367.06546 -13872233.31247  21167330.1694   21167333.4854
      -662.5474       -516.2704         17.7504         32.0004
  -1510214.78045  -1026787.90945  24920751.4504   24920759.5634
      3316.0474       2583.9334         10.2504          9.0004
 -13203412.42447 -10161019.68746  22691476.3414   22691479.7864
      1495.0004       1164.9354         24.7504         20.2504
   3232419.07345   5238793.78245  24855549.0754   24855555.7554
     -2419.5944      -1885.3984          9.7504          8.7504
  -2025973.17946   3327661.18546  23353678.2944   23353681.8334
     -3790.8914      -2953.9414         14.7504         12.2504
  -6225027.07446   4618096.73546  23127556.1774   23127558.7314
     -2742.5944      -2137.0864         15.0004         13.5004
 -17340238.18846 -13368012.54147  21196149.9814   21196152.4424
      -630.1094       -490.9944         18.7504         33.2504
 99  4 23  1 42  0.0010000  0  8G 3G17G29G21G22G 6G26G23
  -9822943.88346  -7510495.37046  23371678.0214   23371681.8294
      2427.9844       1891.9364         15.7504         13.0004
 -17970363.97146 -13856646.48547  21171136.5364   21171139.7124
      -671.0314       -522.8814         17.7504         32.0004
  -1609669.99545  -1104285.04945  24901825.3414   24901832.6924
      3314.2194       2582.5084         10.2504          9.2504
 -13248151.63147 -10195881.37446  22682962.8564   22682966.4424
      1487.3444       1158.9694         25.2504         19.7504
   3305105.29945   5295432.32645  24869380.7474   24869386.6064
     -2426.1724      -1890.5244          9.5004          8.7504
  -1912134.16346   3416366.86946  23375340.5524   23375344.6064
     -3798.6564      -2959.9924         14.5004         12.2504
  -6142520.04346   4682387.91146  23143256.2944   23143259.3994
     -2758.1254      -2149.1884         15.0004         13.0004
 -17321170.70646 -13353154.75747  21199778.5604   21199781.1734
      -641.2034       -499.6394         18.7504         33.5004
 99  4 23  1 42 30.0010000  0  8G 3G17G29G21G22G 6G26G23
  -9895619.11846  -7567125.38046  23357849.0214   23357852.6654
      2416.8284       1883.2434         15.7504         13.2504
 -17950111.55046 -13840865.38147  21174990.4504   21174993.5914
      -679.3284       -529.3474         17.7504         31.7504
  -1709078.95445  -1181746.12445  24882908.1064   24882914.7514
      3313.0164       2581.5714          9.7504          9.2504
 -13292651.82047 -10230556.81846  22674494.7164   22674498.0794
      1479.2344       1152.6504         25.0004         20.0004
   3377983.90745   5352220.77245  24883249.3494   24883255.6424
     -2432.5784      -1895.5154         10.0004          8.7504
  -1798057.89046   3505257.39246  23397049.0914   23397054.3064
     -3806.4694      -2966.0804         14.2504         12.0004
  -6059541.26146   4747046.67346  23159047.4274   23159050.6614
     -2773.7664      -2161.3764         15.2504         13.0004
 -17301780.86846 -13338045.78647  21203468.2714   21203470.9424
      -651.4844       -507.6504         18.7504         33.0004
 99  4 23  1 43  0.0010000  0  8G 3G17G29G21G22G 6G26G23
  -9967949.94946  -7623487.01646  23344084.4744   23344088.9034
      2405.1094       1874.1114         15.7504         13.2504
 -17929603.29146 -13824884.92447  21178892.9894   21178896.1304
      -688.0624       -536.1534         18.0004         31.5004
  -1808449.24145  -1259177.10145  24863998.1464   24864005.3104
      3311.6254       2580.4874         10.0004          8.7504
 -13336904.02447 -10265039.02746  22666074.0284   22666077.4034
      1470.8594       1146.1244         24.5004         19.7504
   3451061.24645   5409164.12245  24897155.9194   24897161.2864
     -2439.3444      -1900.7874          9.7504          8.7504
  -1683745.54446   3594331.88045  23418801.8104   23418805.8414
     -3814.4374      -2972.2894         14.0004         11.7504
  -5976099.13746   4812066.49046  23174924.9114   23174927.8294
     -2789.0944      -2173.3204         15.2504         13.5004
 -17282080.30446 -13322694.69147  21207217.1384   21207219.7864
      -662.0004       -515.8444         18.5004         33.0004
 99  4 23  1 43 30.0010000  0  8G 3G17G29G21G22G 6G26G23
 -10039928.45646  -7679574.12446  23330387.1144   23330390.5364
      2393.5784       1865.1264         16.5004         13.5004
 -17908826.08146 -13808694.89947  21182846.9034   21182849.8804
      -697.2034       -543.2754         17.7504         31.7504
  -1907781.79445  -1336578.67845  24845095.1304   24845101.0134
      3310.6094       2579.6964          9.7504          9.2504
 -13380901.04147 -10299322.38946  22657701.2314   22657704.8534
      1462.2974       1139.4524         24.2504         19.7504
   3524340.50745   5466264.79845  24911099.8334   24911105.8214
     -2445.9374      -1905.9254          9.7504          9.2504
  -1569193.50546   3683593.12345  23440600.5834   23440605.2594
     -3822.3594      -2978.4624         14.0004         11.5004
  -5892198.69346   4877443.42046  23190891.3254   23190895.0404
     -2804.2034      -2185.0934         15.0004         12.7504
 -17262071.78346 -13307103.63047  21211024.5054   21211027.0834
      -671.7814       -523.4664         18.5004         33.0004
 99  4 23  1 44  0.0010000  0  8G 3G17G29G21G22G 6G26G23
 -10111557.00946  -7735388.55646  23316756.8884   23316760.4624
      2381.5474       1855.7514         16.5004         13.7504
 -17887765.65646 -13792284.18347  21186854.4894   21186857.6184
      -706.7504       -550.7144         18.0004         31.7504
  -2007082.68145  -1413955.58145  24826199.0364   24826205.6574
      3309.5474       2578.8684          9.2504          9.0004
 -13424640.58847 -10333405.12746  22649377.9354   22649381.2514
      1453.6094       1132.6834         24.2504         19.5004
   3597813.29745   5523516.22645  24925082.0444   24925086.9784
     -2452.1414      -1910.7594          9.7504          9.2504
  -1454396.31946   3773045.40745  23462445.7714   23462450.6924
     -3830.7034      -2984.9634         13.5004         11.7504
  -5807845.18346   4943173.40446  23206943.0054   23206946.6034
     -2819.2504      -2196.8184         15.7504         13.2504
 -17241777.12246 -13291289.60547  21214886.6064   21214889.2904
      -681.1724       -530.7834         18.5004         32.7504
 99  4 23  1 44 30.0010000  0  8G 3G17G29G21G22G 6G26G23
 -10182817.56846  -7790916.23246  23303196.0134   23303200.1034
      2369.0314       1845.9984         16.0004         13.7504
 -17866414.78046 -13775647.13947  21190917.5364   21190920.5834
      -716.8594       -558.5924         17.7504         32.0004
  -2106354.03145  -1491309.49745  24807307.8024   24807314.0954
      3308.3594       2577.9424          9.5004          9.0004
 -13468119.50847 -10367284.77946  22641103.9744   22641107.8174
      1445.0004       1125.9744         24.2504         19.7504
   3671473.24245   5580913.53145  24939098.7244   24939103.3534
     -2458.6874      -1915.8604          9.2504          8.7504
  -1339354.80746   3862688.06346  23484337.8644   23484342.5754
     -3838.8284      -2991.2954         13.7504         12.0004
  -5723053.06046   5009245.17246  23223078.3414   23223081.2124
     -2833.4844      -2207.9104         14.5004         13.2504
 -17221203.59346 -13275258.27947  21218801.6304   21218804.2784
      -690.5944       -538.1254         18.2504         33.0004
 99  4 23  1 45  0.0010000  0  8G 3G17G29G21G22G 6G26G23
 -10253697.99846  -7846147.68046  23289708.1854   23289712.0524
      2356.1414       1835.9544         16.7504         13.7504
 -17844757.93746 -13758771.68447  21195038.6534   21195041.7474
      -726.9844       -566.4814         18.5004         31.7504
  -2205580.70145  -1568628.57445  24788425.1774   24788429.5954
      3306.5004       2576.4944          9.5004          8.7504
 -13511343.32747 -10400965.65046  22632878.8104   22632882.2204
      1436.4534       1119.3144         24.2504         19.7504
   3745329.16145   5638463.53145  24953153.8564   24953158.6854
     -2465.0314      -1920.8044          9.7504          9.2504
  -1224064.18446   3952524.83645  23506276.8494   23506280.9274
     -3847.5004      -2998.0524         13.2504         11.5004
  -5637839.57046   5075645.24946  23239294.0134   23239298.0564
     -2847.6254      -2218.9294         15.0004         12.7504
 -17200335.76046 -13258997.62247  21222772.5674   21222775.0524
      -700.7504       -546.0394         18.5004         32.7504
 99  4 23  1 45 30.0010000  0  8G 3G17G29G21G22G 6G26G23
 -10324194.55846  -7901080.03646  23276293.3104   23276296.9074
      2343.6414       1826.2134         17.7504         14.2504
 -17822801.50346 -13741662.78147  21199216.9194   21199220.1064
      -736.5784       -573.9574         19.7504         32.0004
  -2304748.81545  -1645902.05445  24769553.7084   24769560.5404
      3304.8284       2575.1914          9.0004          9.0004
 -13554315.28247 -10434450.26846  22624701.4894   22624705.0874
      1428.4384       1113.0684         24.2504         19.7504
   3819363.03645   5696152.20645  24967241.7314   24967247.5214
     -2470.5004      -1925.0654          9.0004          8.7504
  -1108512.34746   4042565.15845  23528265.6384   23528270.6534
     -3855.7034      -3004.4444         13.2504         11.5004
  -5552201.00946   5142376.56846  23255590.6924   23255593.3994
     -2861.7194      -2229.9114         15.0004         12.5004
 -17179172.27146 -13242506.58647  21226799.7714   21226802.3964
      -710.0474       -553.2834         18.5004         32.5004
 99  4 23  1 46  0.0010000  0  8G 3G17G29G21G22G 6G26G23
 -10394305.15746  -7955711.65346  23262951.6774   23262954.9464
      2330.4224       1815.9134         17.7504         14.5004
 -17800561.10746 -13724332.60847  21203449.0674   21203452.1854
      -745.9064       -581.2264         19.2504         31.7504
  -2403868.39845  -1723137.72745  24750692.4814   24750698.2824
      3303.3134       2574.0104          9.2504          9.2504
 -13597043.37547 -10467744.86546  22616571.0054   22616574.6614
      1420.1884       1106.6404         25.0004         19.7504
   3893566.44545   5753972.98845  24981362.2394   24981368.1574
     -2476.2344      -1929.5334          9.2504          9.0004
   -992723.61246   4132790.08445  23550299.3024   23550305.0094
     -3863.2974      -3010.3614         13.2504         11.5004
  -5466127.52346   5209446.78546  23271969.8414   23271972.7354
     -2876.3594      -2241.3194         14.7504         12.5004
 -17157717.81646 -13225788.82747  21230882.4504   21230885.0754
      -720.2664       -561.2464         18.5004         32.7504
 99  4 23  1 46 30.0010000  0  8G 3G17G29G21G22G 6G26G23
 -10464023.24846  -8010037.40446  23249684.6774   23249687.7714
      2317.5944       1805.9174         17.7504         14.2504
 -17778037.39046 -13706781.67047  21207735.2864   21207738.3684
      -755.6564       -588.8234         18.0004         31.7504
  -2502943.55645  -1800338.80445  24731838.0284   24731844.4504
      3301.6094       2572.6834          9.0004          8.5004
 -13639519.73147 -10500843.30146  22608487.9114   22608491.2634
      1411.6254       1099.9684         25.0004         20.0004
   3967944.69145   5811930.01345  24995515.5914   24995520.9464
     -2482.2504      -1934.2214          8.2504          8.7504
   -876712.93946   4223187.90045  23572375.5134   23572379.3924
     -3870.6564      -3016.0964         13.0004         11.2504
  -5379612.51846   5276861.04446  23288433.3174   23288436.7394
     -2891.4224      -2253.0564         15.0004         12.7504
 -17135945.51546 -13208823.39747  21235025.6064   21235028.1964
      -731.1724       -569.7444         18.2504         32.7504
 99  4 23  1 47  0.0010000  0  8G 3G17G29G21G22G 6G26G23
 -10533366.92946  -8064071.41246  23236488.7244   23236491.7944
      2305.3444       1796.3724         17.7504         14.7504
 -17755226.40246 -13689006.87947  21212076.1774   21212079.1654
      -765.0944       -596.1774         18.0004         31.7504
  -2601963.90245  -1877497.11845  24712994.7634   24713001.6064
      3299.6884       2571.1854          8.7504          8.7504
 -13681740.34947 -10533742.45846  22600453.4194   22600456.6534
      1402.9534       1093.2104         25.5004         20.2504
   4042494.30045   5870020.53545  25009702.1924   25009708.0524
     -2487.7194      -1938.4824          8.7504          8.5004
   -760495.12046   4313747.16045  23594490.5674   23594494.9744
     -3877.1094      -3021.1244         12.7504         11.5004
  -5292635.75746   5344635.11546  23304984.8174   23304988.0054
     -2907.1254      -2265.2924         15.2504         12.7504
 -17113851.53346 -13191607.29947  21239229.8644   21239232.5244
      -741.7194       -577.9634         18.2504         32.7504
 99  4 23  1 47 30.0010000  0  8G 3G17G29G21G22G 6G26G23
 -10602342.65746  -8117818.71646  23223363.7554   23223367.4234
      2293.0634       1786.8024         18.5004         14.7504
 -17732125.61746 -13671006.27347  21216471.9354   21216474.9934
      -774.9374       -603.8474         18.7504         31.7504
  -2700928.35445  -1954611.97745  24694161.8334   24694166.9314
      3298.1254       2569.9684          8.7504          8.2504
 -13723699.47947 -10566437.86446  22592469.0674   22592472.5364
      1394.3594       1086.5144         25.5004         20.5004
   4117210.75045   5928241.08745  25023920.0674   25023926.1144
     -2493.3914      -1942.9024          7.7504          7.7504
   -644090.40146   4404452.07145  23616641.9424   23616647.0634
     -3883.0474      -3025.7514         12.7504         11.2504
  -5205188.08346   5412776.14046  23321624.8644   23321627.9704
     -2922.7034      -2277.4314         15.2504         12.7504
 -17091449.38246 -13174151.07747  21243493.0284   21243495.7244
      -751.7344       -585.7674         18.5004         32.7504
 99  4 23  1 48  0.0010000  0  8G 3G17G29G21G22G 6G26G23
 -10670951.20946  -8171279.89646  23210307.8884   23210311.4504
      2281.0004       1777.4034         19.2504         15.0004
 -17708726.83846 -13652773.46447  21220924.7784   21220927.8024
      -784.7504       -611.4944         19.0004         31.7504
  -2799851.49245  -2031694.62545  24675337.9814   24675344.5324
      3296.9064       2569.0184          8.5004          9.0004
 -13765396.04947 -10598928.67746  22584534.4744   22584537.8494
      1385.6564       1079.7324         26.2504         20.7504
   4192100.18545   5986596.43145  25038171.1534   25038176.4624
     -2498.9224      -1947.2124          8.0004          8.2504
   -527509.44746   4495294.27545  23638826.8024   23638831.0914
     -3888.9844      -3030.3774         12.7504         11.2504
  -5117277.09046   5481278.18246  23338353.9584   23338357.2514
     -2937.6094      -2289.0464         14.5004         12.5004
 -17068741.75846 -13156456.82147  21247814.1144   21247816.7394
      -761.7664       -593.5844         18.5004         32.7504
 99  4 23  1 48 30.0010000  0  8G 3G17G29G21G22G 6G26G23
 -10739196.34046  -8224457.90846  23197320.6774   23197324.4624
      2268.8444       1767.9304         18.0004         15.0004
 -17685026.41646 -13634305.60047  21225434.6224   21225437.7984
      -795.0624       -619.5294         18.0004         31.5004
  -2898723.61345  -2108737.60345  24656522.6464   24656528.9384
      3294.6414       2567.2524          8.7504          9.2504
 -13806823.19947 -10631209.54946  22576650.8884   22576654.2044
      1376.4064       1072.5244         26.2504         20.7504
   4267155.44645   6045080.99545  25052453.1614   25052457.9664
     -2504.5474      -1951.5954          8.2504          8.5004
   -410732.47746   4586289.24545  23661048.1144   23661053.2594
     -3895.9534      -3035.8084         12.5004         11.2504
  -5028918.43946   5550129.05146  23355168.1304   23355170.7674
     -2952.7974      -2300.8814         15.0004         12.5004
 -17045740.26246 -13138533.57347  21252191.1144   21252193.7514
      -771.3444       -601.0474         18.2504         33.0004
 99  4 23  1 49  0.0010000  0  8G 3G17G29G21G22G 6G26G23
 -10807082.03846  -8277355.83546  23184402.3024   23184405.4784
      2256.7194       1758.4824         18.5004         15.2504
 -17661032.09446 -13615608.73247  21230000.5674   21230003.6494
      -804.6094       -626.9684         18.2504         31.2504
  -2997534.54545  -2185732.85945  24637719.1614   24637725.3134
      3292.7194       2565.7554          9.0004          8.2504
 -13847989.95247 -10663287.51446  22568817.2164   22568820.4854
      1368.1254       1066.0714         26.5004         21.0004
   4342363.28745   6103684.43445  25066765.6464   25066771.8214
     -2509.3914      -1955.3694          8.5004          8.0004
   -293757.90546   4677438.19345  23683308.6064   23683313.6464
     -3902.5624      -3040.9584         12.7504         11.0004
  -4940119.11646   5619323.31846  23372066.2554   23372069.4544
     -2967.1254      -2312.0454         14.2504         12.2504
 -17022472.43446 -13120402.80147  21256618.7864   21256621.4464
      -779.9534       -607.7564         18.2504         32.7504
 99  4 23  1 49 30.0010000  0  8G 3G17G29G21G22G 6G26G23
 -10874594.39146  -8329962.86146  23171555.8644   23171559.2284
      2244.2034       1748.7304         18.0004         15.0004
 -17636754.74846 -13596691.32047  21234620.4974   21234623.5914
      -813.6874       -634.0424         18.0004         31.2504
  -3096287.30445  -2262682.82545  24618926.6924   24618932.6574
      3290.8594       2564.3064          8.5004          8.7504
 -13888914.33447 -10695176.62246  22561029.4584   22561032.5524
      1360.3444       1060.0084         26.5004         20.7504
   4417722.09245   6162405.47345  25081105.8724   25081110.7004
     -2514.3594      -1959.2414          8.2504          8.7504
   -176569.35646   4768753.83645  23705608.8414   23705614.1264
     -3909.9694      -3046.7294         12.5004         11.0004
  -4850899.27546   5688845.23946  23389044.0054   23389046.6184
     -2980.7504      -2322.6624         14.5004         12.2504
 -16998937.35246 -13102063.77747  21261097.4424   21261100.0914
      -789.0164       -614.8174         18.2504         32.7504
 99  4 23  1 50  0.0010000  0  8G 3G17G29G21G22G 6G26G23
 -10941733.06946  -8382278.67246  23158779.2634   23158782.3684
      2231.6094       1738.9164         18.5004         15.0004
 -17612211.76746 -13577566.92647  21239290.8964   21239293.9074
      -822.3594       -640.8004         17.7504         31.2504
  -3194977.40745  -2339584.00945  24600146.6144   24600151.8534
      3288.2814       2562.2974          8.5004          8.7504
 -13929606.18447 -10726884.53646  22553286.2474   22553289.5284
      1352.4694       1053.8724         26.0004         20.7504
   4493232.50345   6221244.67845  25095475.4114   25095478.7634
     -2519.6094      -1963.3324          9.2504          9.0004
    -59155.35646   4860245.18445  23727952.0214   23727957.5174
     -3917.5624      -3052.6464         12.7504         10.5004
  -4761269.30646   5758686.74446  23406099.5284   23406102.2944
     -2994.5474      -2333.4134         14.2504         12.2504
 -16975124.25246 -13083508.11347  21265628.9034   21265631.4704
      -798.4694       -622.1834         18.2504         32.7504
 99  4 23  1 50 30.0010000  0  8G 3G17G29G21G22G 6G26G23
 -11008485.64246  -8434293.64846  23146076.6224   23146079.8104
      2218.6414       1728.8114         18.7504         15.2504
 -17587410.18246 -13558241.01947  21244010.3724   21244013.3844
      -831.0314       -647.5574         18.0004         31.0004
  -3293577.16945  -2416414.80945  24581384.2714   24581390.1884
      3285.1884       2559.8864          8.7504          8.7504
 -13970058.51547 -10758405.80946  22545588.0444   22545591.6304
      1344.5474       1047.6994         25.5004         21.0004
   4568906.72745   6280211.54345  25109875.2394   25109881.6964
     -2525.2814      -1967.7524          8.0004          8.2504
     58484.27046   4951912.34345  23750338.4354   23750343.2864
     -3924.7974      -3058.2834         12.5004         11.0004
  -4671220.61746   5828854.51546  23423235.7244   23423238.0444
     -3008.5314      -2344.3104         15.0004         12.2504
 -16951024.05446 -13064728.73747  21270215.1614   21270217.9154
      -808.1414       -629.7204         18.2504         32.5004
 99  4 23  1 51  0.0010000  0  8G 3G17G29G21G22G 6G26G23
 -11074842.53946  -8486000.29246  23133449.6464   23133453.0794
      2205.1884       1718.3284         18.7504         15.5004
 -17562349.63046 -13538713.32447  21248779.1774   21248782.2824
      -839.6724       -654.2904         17.7504         31.0004
  -3392090.56845  -2493178.31545  24562637.2784   24562643.8644
      3282.5164       2557.8044          8.7504          8.5004
 -14010275.37547 -10789743.59646  22537935.1224   22537939.0244
      1336.5944       1041.5024         25.5004         20.7504
   4644749.52845   6339309.72745  25124307.6854   25124312.8994
     -2530.8914      -1972.1234          7.7504          7.2504
    176335.68646   5043744.53245  23772764.4034   23772768.6344
     -3931.9844      -3063.8844         12.7504         11.0004
  -4580760.35446   5899343.02446  23440450.3334   23440453.9894
     -3022.1254      -2354.9034         14.5004         12.0004
 -16926627.76446 -13045718.64147  21274857.3414   21274860.0244
      -818.3754       -637.6954         18.2504         32.7504
 99  4 23  1 51 30.0010000  0  8G 3G17G29G21G22G 6G26G23
 -11140795.82846  -8537392.44146  23120899.1464   23120902.3924
      2191.7814       1707.8814         18.5004         15.0004
 -17537032.44546 -13518985.65647  21253596.9114   21253599.9114
      -848.1564       -660.9014         18.2504         30.7504
  -3490528.53245  -2569883.06645  24543905.6534   24543910.7634
      3280.0944       2555.9174          9.0004          8.2504
 -14050248.58847 -10820891.53746  22530328.4274   22530332.1534
      1328.2034       1034.9634         25.5004         21.0004
   4720764.90345   6398542.42345  25138773.3334   25138778.4664
     -2536.6724      -1976.6274          8.7504          8.5004
    294397.67946   5135740.78445  23795230.8724   23795234.5054
     -3938.6414      -3069.0714         12.2504         10.7504
  -4489891.27846   5970150.08245  23457742.3564   23457746.1774
     -3035.7504      -2365.5194         13.7504         11.5004
 -16901919.92546 -13026465.78247  21279559.2314   21279561.9154
      -828.6564       -645.7064         18.0004         32.7504
 99  4 23  1 52  0.0010000  0  8G 3G17G29G21G22G 6G26G23
 -11206348.29946  -8588472.25546  23108424.4274   23108427.5094
      2178.1414       1697.2524         19.2504         15.7504
 -17511446.41446 -13499048.49547  21258465.9034   21258469.0914
      -857.7814       -668.4014         19.7504         31.0004
  -3588893.73645  -2646531.07145  24525187.1144   24525191.9074
      3277.3914       2553.8114          9.0004          8.5004
 -14089959.65647 -10851835.20646  22522771.6144   22522775.2944
      1318.9534       1027.7564         25.2504         21.2504
   4796949.61245   6457907.05845  25153270.1224   25153275.4194
     -2542.4224      -1981.1084          8.0004          7.5004
    412650.82746   5227885.99745  23817733.9424   23817738.5714
     -3944.9694      -3074.0024         12.2504         10.7504
  -4398607.92946   6041279.91946  23475112.2864   23475115.0524
     -3050.0004      -2376.6234         14.2504         12.0004
 -16876911.03846 -13006978.33947  21284318.2084   21284320.8564
      -838.6564       -653.4984         18.0004         32.7504
 99  4 23  1 52 30.0010000  0  9G 3G17G29G21G 9G22G 6G26G23
 -11271490.36846  -8639232.28246  23096029.1614   23096032.3374
      2164.5164       1686.6364         19.7504         15.7504
 -17485565.00546 -13478881.16547  21263390.7634   21263393.9154
      -867.9844       -676.3514         19.5004         30.7504
  -3687182.86945  -2723119.87745  24506482.9034   24506488.0364
      3275.0164       2551.9604          8.7504          8.2504
 -14129394.82147 -10882563.87546  22515267.4974   22515270.9544
      1309.8444       1020.6574         25.5004         21.2504
     -8956.48752                  25340555.2314
      1790.9224                          4.2504
   4873296.02645   6517397.72145  25167798.8564   25167803.3564
     -2547.4694      -1985.0414          7.5004          7.5004
    531089.49746   5320175.77845  23840272.2474   23840277.6264
     -3951.3284      -3078.9574         12.7504         10.5004
  -4306899.87846   6112740.71246  23492563.8964   23492566.8604
     -3063.9694      -2387.5084         13.7504         12.0004
 -16851613.01846 -12987265.59547  21289132.3024   21289135.0674
      -847.9844       -660.7674         18.0004         32.5004
 99  4 23  1 53  0.0010000  0  9G 3G17G29G21G 9G22G 6G26G23
 -11336227.02446  -8689676.39746  23083709.1304   23083712.2354
      2151.2194       1676.2744         19.5004         15.7504
 -17459373.31947 -13458472.06647  21268374.9894   21268378.1654
      -878.2194       -684.3264         23.0004         30.5004
  -3785396.13045  -2799649.52345  24487793.6774   24487798.3644
      3272.3754       2549.9034          9.0004          8.7504
 -14168561.08047 -10913083.00246  22507814.2944   22507817.5994
      1301.2504       1013.9614         26.0004         21.0004
    -62587.97942                  25330350.3644
      1784.4694                          4.7504
   4949780.58545   6576995.97945  25182353.7634   25182357.3724
     -2551.5474      -1988.2184          8.0004          7.0004
    649727.16646   5412620.62545  23862847.6694   23862851.9934
     -3957.8914      -3084.0714         12.0004         10.5004
  -4214779.93246   6184522.48746  23510093.6694   23510097.3374
     -3077.5474      -2398.0884         13.7504         12.0004
 -16826039.71046 -12967338.34347  21293998.8724   21294001.5324
      -857.0474       -667.8294         18.2504         32.2504
 99  4 23  1 53 30.0010000  0  9G 3G17G29G21G 9G22G 6G26G23
 -11400555.63346  -8739802.55746  23071468.4424   23071471.7824
      2137.5004       1665.5844         19.5004         16.0004
 -17432863.02647 -13437814.69647  21273419.8884   21273423.1344
      -889.0004       -692.7274         23.5004         30.5004
  -3883516.42545  -2876106.70645  24469121.2394   24469125.8684
      3269.0784       2547.3344          9.2504          8.5004
 -14207472.29647 -10943403.40146  22500409.8414   22500413.0754
      1292.9534       1007.4964         26.0004         21.5004
   -116016.41543                  25320183.8254
      1777.6414                          5.7504
   5026395.96245   6636696.21945  25196932.8884   25196939.6494
     -2555.8284      -1991.5544          8.7504          8.0004
    768567.31645   5505223.24645  23885462.8104   23885468.2594
     -3964.6254      -3089.3184         11.7504         10.2504
  -4122235.59746   6256634.90646  23527704.3804   23527707.2284
     -3091.8444      -2409.2294         14.0004         12.0004
 -16800190.05546 -12947195.75547  21298917.6774   21298920.3024
      -866.0624       -674.8544         19.5004         32.5004
 99  4 23  1 54  0.0010000  0  9G 3G17G29G21G 9G22G 6G26G23
 -11464474.08647  -8789609.09946  23059305.0914   23059307.9504
      2123.7504       1654.8704         20.2504         16.0004
 -17406017.98147 -13416896.48347  21278528.2084   21278531.2784
      -900.5624       -701.7374         21.0004         30.7504
  -3981528.66545  -2952479.69045  24450470.5674   24450475.1854
      3265.1254       2544.2534          9.5004          8.7504
 -14246137.46247 -10973532.06146  22493052.0914   22493055.5134
      1285.0314       1001.3234         26.0004         21.5004
   -169245.53244                  25310054.1534
      1771.1564                          6.2504
   5103128.55145   6696487.77345  25211534.1924   25211538.5994
     -2559.5314      -1994.4404          8.0004          7.7504
    887619.14046   5597990.80745  23908117.1854   23908122.3414
     -3972.0164      -3095.0774         12.0004         10.2504
  -4029266.12146   6329078.61746  23545395.6064   23545398.3254
     -3105.9694      -2420.2354         14.5004         12.2504
 -16774068.77346 -12926841.51247  21303888.4194   21303891.0794
      -875.2344       -682.0014         18.5004         32.5004
 99  4 23  1 54 30.0010000  0  9G 3G17G29G21G 9G22G 6G26G23
 -11527969.59147  -8839086.10346  23047222.1924   23047224.9704
      2109.5004       1643.7664         20.2504         16.2504
 -17378829.64546 -13395710.77047  21283701.7784   21283704.7674
      -911.8444       -710.5284         18.0004         30.7504
  -4079423.17145  -3028760.95145  24431841.1854   24431845.3804
      3261.3594       2541.3194          9.7504          9.2504
 -14284572.46947 -11003481.38446  22485738.0834   22485741.4814
      1277.5474        995.4914         27.0004         21.2504
   -222288.31344                  25299959.9354
      1765.2664                          7.2504
   5179972.66445   6756366.20945  25226157.7244   25226162.0834
     -2563.2344      -1997.3254          8.7504          7.7504
   1006893.37045   5690931.65345  23930814.3724   23930819.2824
     -3979.4844      -3100.8974         11.7504         10.0004
  -3935882.71846   6401844.88545  23563166.4424   23563169.9934
     -3119.2344      -2430.5724         13.0004         11.5004
 -16747667.23646 -12906268.89047  21308912.5214   21308915.1574
      -884.8284       -689.4764         18.0004         32.2504
 99  4 23  1 55  0.0010000  0  9G 3G17G29G21G 9G22G 6G26G23
 -11591047.81947  -8888237.93746  23035219.0054   23035222.1224
      2095.8444       1633.1254         20.2504         16.7504
 -17351314.90746 -13374270.72247  21288937.9894   21288941.0714
      -922.2344       -718.6244         19.2504         30.7504
  -4177216.26345  -3104963.16145  24413231.8174   24413237.0094
      3258.3914       2539.0064          9.7504          9.0004
 -14322794.42847 -11033264.68946  22478464.8104   22478468.2084
      1270.7034        990.1584         27.0004         21.5004
   -275165.07445                  25289897.9584
      1759.9534                          7.7504
   5256925.15345   6816329.12345  25240801.0054   25240805.0244
     -2566.8594      -2000.1504          9.0004          7.7504
   1126372.77845   5784032.40545  23953551.2474   23953556.5324
     -3985.4534      -3105.5484         11.5004         10.0004
  -3842118.13646   6474908.18245  23581009.2634   23581012.8024
     -3131.6094      -2440.2154         13.0004         11.7504
 -16720977.04046 -12885471.33247  21313991.4424   21313994.1854
      -894.3914       -696.9284         18.0004         32.5004
 99  4 23  1 55 30.0010000  0  9G 3G17G29G21G 9G22G 6G26G23
 -11653709.83646  -8937065.45046  23023294.1144   23023297.6774
      2081.6254       1622.0454         19.7504         16.5004
 -17323493.27547 -13352591.53247  21294232.3104   21294235.3334
      -932.6724       -726.7574         22.7504         30.7504
  -4274925.33945  -3181099.86745  24394637.9504   24394643.2944
      3255.4844       2536.7414          9.5004          8.5004
 -14360801.66147 -11062880.67846  22471232.1924   22471235.2044
      1262.8134        984.0104         27.0004         21.5004
   -327872.87045    -23255.58755  25279868.1854   25279872.5214
      1753.8754       1366.6564          8.2504          5.2504
   5333994.35645   6876382.98745  25255467.2084   25255472.5284
     -2571.1094      -2003.4624          9.2504          8.5004
   1246021.52445   5877265.10945  23976319.5674   23976325.0174
     -3991.1094      -3109.9554         11.5004         10.2504
  -3747986.50346   6548257.44346  23598922.0604   23598925.8214
     -3143.7814      -2449.7004         14.2504         12.0004
 -16694004.97346 -12864454.14047  21319124.0284   21319126.6534
      -903.7814       -704.2454         19.7504         32.2504
 99  4 23  1 56  0.0010000  0  9G 3G17G29G21G 9G22G 6G26G23
 -11715952.49247  -8985566.18146  23011450.3334   23011453.7784
      2067.6884       1611.1854         20.0004         16.5004
 -17295357.77846 -13330667.77647  21299586.1384   21299589.3604
      -943.0474       -734.8424         19.0004         30.7504
  -4372544.02645  -3257166.18645  24376061.6064   24376066.6224
      3252.3914       2534.3304          9.7504          9.0004
 -14398561.48647 -11092303.88746  22464046.5364   22464049.3604
      1254.3754        977.4354         27.2504         22.0004
   -380401.56745    -64186.94945  25269872.0214   25269877.8804
      1747.8444       1361.9564          8.7504          5.7504
   5411186.87745   6936532.94645  25270156.7394   25270161.1104
     -2575.1414      -2006.6034          9.7504          8.5004
   1365827.42145   5970620.25545  23999117.9894   23999122.4424
     -3995.7344      -3113.5594         11.5004         10.2504
  -3653500.96346   6621882.50245  23616902.0914   23616905.0444
     -3155.3124      -2458.6854         13.5004         11.7504
 -16666754.77446 -12843220.21747  21324309.6694   21324312.1654
      -912.7814       -711.2584         18.0004         32.5004
 99  4 23  1 56 30.0010000  0  9G 3G17G29G21G 9G22G 6G26G23
 -11777770.26047  -9033735.83346  22999686.5994   22999690.0914
      2053.5164       1600.1424         20.0004         16.5004
 -17266923.05746 -13308510.85447  21304997.2244   21305000.3994
      -952.6254       -742.3054         18.5004         30.7504
  -4470070.94045  -3333160.95445  24357503.1464   24357507.6924
      3249.2974       2531.9204          9.7504          8.5004
 -14436062.01547 -11121525.05046  22456910.6774   22456913.7474
      1245.4064        970.4464         27.5004         21.7504
   -432735.36845   -104966.37045  25259913.1384   25259912.9384
      1740.8444       1356.5024          9.0004          6.0004
   5488508.25145   6996783.26745  25284871.0214   25284875.7904
     -2579.6254      -2010.0974         10.7504          9.2504
   1485758.53945   6064072.98345  24021940.0524   24021944.2714
     -3999.7194      -3116.6644         11.2504         10.2504
  -3558667.62146   6695778.57845  23634948.1774   23634951.5174
     -3167.0944      -2467.8654         14.5004         11.7504
 -16639241.23646 -12821781.09547  21329545.4424   21329548.0674
      -921.4534       -718.0154         18.0004         32.2504
 99  4 23  1 57  0.0010000  0  9G 3G17G29G21G 9G22G 6G26G23
 -11839166.95546  -9081577.39246  22988002.8724   22988006.2354
      2039.5314       1589.2454         19.7504         16.5004
 -17238208.03846 -13286135.52247  21310461.4114   21310464.4114
      -961.7344       -749.4034         19.5004         31.0004
  -4567499.08945  -3409078.78445  24338962.9354   24338969.1464
      3245.7974       2529.1924          9.5004          9.2504
 -14473289.17747 -11150533.19846  22449826.3644   22449829.7864
      1236.3134        963.3604         27.5004         21.7504
   -484848.12345   -145573.63945  25249995.9584   25250002.0174
      1733.1724       1350.5244          9.2504          7.0004
   5565965.57545   7057139.53945  25299610.5674   25299616.4384
     -2584.0944      -2013.5804         10.5004          9.5004
   1605805.60445   6157616.03645  24044784.3254   24044788.7084
     -4003.4534      -3119.5744         11.5004         10.0004
  -3463467.85946   6769960.17745  23653064.3104   23653068.1304
     -3179.7194      -2477.7034         13.2504         11.7504
 -16611476.35846 -12800146.13047  21334828.8414   21334831.4664
      -929.4374       -724.2374         18.0004         32.2504
 99  4 23  1 57 30.0010000  0  9G 3G17G29G21G 9G22G 6G26G23
 -11900138.02446  -9129087.27346  22976400.4584   22976403.7164
      2025.3914       1578.2264         19.7504         16.7504
 -17209212.78946 -13263541.82947  21315979.2004   21315982.3764
      -971.2974       -756.8554         18.7504         30.7504
  -4664811.14345  -3484906.17445  24320444.7634   24320448.6304
      3241.7814       2526.0634          9.7504          9.2504
 -14510234.77147 -11179321.95246  22442795.6924   22442799.0324
      1226.9224        956.0434         27.2504         22.0004
   -536721.95845   -185994.73045  25240125.1774   25240130.6264
      1725.2974       1344.3874          9.0004          6.5004
   5643546.10245   7117591.80045  25314373.1224   25314379.3454
     -2587.7034      -2016.3924         11.0004          9.2504
   1725975.83145   6251255.07345  24067652.3334   24067657.6304
     -4007.9374      -3123.0684         11.7504          9.7504
  -3367880.46446   6844443.84745  23671253.4504   23671256.9894
     -3192.7504      -2487.8574         14.0004         11.7504
 -16583470.43546 -12778323.33147  21340158.0054   21340160.5484
      -937.5474       -730.5564         18.0004         32.5004
 99  4 23  1 58  0.0010000  0  9G 3G17G29G21G 9G22G 6G26G23
 -11960688.75847  -9176269.63446  22964877.9744   22964881.2434
      2011.1254       1567.1104         20.5004         16.7504
 -17179927.33046 -13240721.99847  21321551.7784   21321554.8374
      -980.9224       -764.3554         18.5004         30.7504
  -4762003.61345  -3560640.36545  24301949.5444   24301954.7354
      3237.7974       2522.9594          9.7504          9.0004
 -14546907.78547 -11207898.30946  22435817.2164   22435820.3334
      1218.0314        949.1154         27.5004         22.0004
   -588370.27145   -226240.05745  25230296.5054   25230302.7744
      1717.8594       1338.5924          8.5004          5.5004
   5721230.77445   7178125.23845  25329156.5364   25329162.1034
     -2591.3284      -2019.2174         11.0004          8.7504
   1846288.22945   6345004.87245  24090546.2944   24090551.1104
     -4013.0314      -3127.0374         11.2504         10.0004
  -3271893.05546   6919239.19245  23689519.2004   23689521.2984
     -3206.5004      -2498.5714         13.0004         11.7504
 -16555215.17146 -12756306.24247  21345535.0914   21345537.6464
      -946.0164       -737.1554         18.0004         32.2504
 99  4 23  1 58 30.0010000  0  9G 3G17G29G21G 9G22G 6G26G23
 -12020804.14847  -9223112.75846  22953438.4894   22953441.6184
      1996.8444       1555.9824         20.0004         16.7504
 -17150357.82646 -13217680.83547  21327178.6854   21327181.7434
      -990.3284       -771.6844         18.5004         30.7504
  -4859081.93745  -3636285.62145  24283476.0524   24283482.4504
      3234.2344       2520.1834          9.5004          8.7504
 -14583318.75247 -11236270.46746  22428888.3494   22428891.6884
      1209.5474        942.5044         26.7504         22.0004
   -639791.70045   -266308.64745  25220511.4354   25220518.8454
      1710.4384       1332.8084          8.5004          6.7504
   5799030.82045   7238748.58245  25343961.0914   25343966.1534
     -2595.1724      -2022.2124         11.2504          9.2504
   1966770.72445   6438887.26445  24113473.9114   24113478.8454
     -4019.2504      -3131.8834         11.5004         10.2504
  -3175487.23546   6994360.58445  23707865.2394   23707868.9784
     -3220.3754      -2509.3834         12.5004         11.2504
 -16526705.29946 -12734090.75547  21350960.0914   21350962.7044
      -954.6414       -743.8764         18.0004         32.2504
 99  4 23  1 59  0.0010000  0  9G 3G17G29G21G 9G22G 6G26G23
 -12080491.19446  -9269622.11246  22942080.6464   22942083.9154
      1982.4844       1544.7934         19.7504         17.0004
 -17120490.95747 -13194407.96147  21332862.3334   21332865.4624
     -1000.7664       -779.8174         20.2504         30.7504
  -4956046.54045  -3711842.27145  24265024.1224   24265029.4194
      3230.2664       2517.0904          9.7504          9.0004
 -14619473.97647 -11264443.35446  22422008.2004   22422011.4934
      1201.0634        935.8934         27.7504         22.2504
   -690992.32445   -306205.10545  25210768.1774   25210774.8104
      1703.0944       1327.0864          8.2504          6.7504
   5876946.65245   7299462.16845  25358788.1534   25358794.2714
     -2598.9224      -2025.1344         10.7504          8.7504
   2087452.64846   6532925.02345  24136439.6144   24136444.7124
     -4026.0474      -3137.1794         12.2504         10.0004
  -3078666.92546   7069804.94445  23726288.9974   23726291.9974
     -3233.9534      -2519.9634         13.0004         11.2504
 -16497921.93046 -12711662.15547  21356437.3254   21356440.0564
      -964.1254       -751.2664         18.5004         32.5004
 99  4 23  1 59 30.0010000  0  9G 3G17G29G21G 9G22G 6G26G23
 -12139750.77447  -9315798.36746  22930804.3804   22930807.9784
      1968.1564       1533.6284         20.5004         17.0004
 -17090299.42447 -13170882.10147  21338607.4354   21338610.3764
     -1012.0784       -788.6324         21.0004         30.5004
  -5052895.71745  -3787308.97945  24246594.4584   24246599.5914
      3226.3754       2514.0584          9.7504          9.5004
 -14655379.15048 -11292421.39646  22415175.8104   22415179.1264
      1192.7034        929.3794         28.0004         22.5004
   -741979.62145   -345935.35445  25201065.2164   25201069.9384
      1696.1724       1321.6924          7.7504          7.0004
   5954964.94245   7360255.50645  25373634.4584   25373640.0244
     -2602.5004      -2027.9224         11.0004          9.0004
   2208333.88045   6627118.11545  24159441.9504   24159447.2714
     -4032.7344      -3142.3904         11.7504         10.5004
  -2981453.52546   7145555.62445  23744788.1144   23744791.0914
     -3246.9224      -2530.0694         12.5004         11.5004
 -16468852.09946 -12689010.33447  21361969.2554   21361971.9624
      -973.7344       -758.7544         19.7504         32.2504
 99  4 23  2  0  0.0010000  0  9G 3G17G29G21G 9G22G 6G26G23
 -12198579.55847  -9361638.94346  22919609.0524   22919612.5564
      1953.5944       1522.2814         21.0004         17.0004
 -17059773.16846 -13147095.41747  21344416.6774   21344419.6184
     -1023.0004       -797.1434         18.2504         30.5004
  -5149631.86345  -3862687.64445  24228185.6144   24228190.6534
      3222.5784       2511.1004          9.5004          9.0004
 -14691043.34047 -11320211.66246  22408389.1614   22408392.4424
      1184.8594        923.2674         27.5004         22.7504
   -792765.37544   -385508.57645  25191400.8564   25191403.8564
      1689.2814       1316.3234          7.2504          6.7504
   6033100.81145   7421140.53545  25388503.0994   25388508.4314
     -2606.6874      -2031.1854         10.7504          8.7504
   2329408.52346   6721461.85745  24182482.3564   24182488.1224
     -4038.9534      -3147.2364         12.2504         10.5004
  -2883854.69245   7221606.65245  23763360.3724   23763363.5364
     -3259.7034      -2540.0284         11.7504         11.0004
 -16439508.70346 -12666145.34947  21367553.1224   21367555.9464
      -982.5624       -765.6334         17.7504         32.0004
 99  4 23  2  0 30.0010000  0  9G 3G17G29G21G 9G22G 6G26G23
 -12256969.59147  -9407137.63046  22908496.8964   22908500.2714
      1939.0474       1510.9464         20.2504         17.2504
 -17028916.76446 -13123051.47147  21350288.2554   21350291.2554
     -1034.1414       -805.8244         19.5004         30.2504
  -5246247.36545  -3937972.28145  24209799.8024   24209805.4034
      3218.3594       2507.8134          9.5004          9.0004
 -14726470.60348 -11347817.30746  22401647.5214   22401650.9424
      1177.0314        917.1674         28.0004         22.5004
   -843327.78245   -424907.76645  25181779.5284   25181781.2744
      1681.5474       1310.2964          7.5004          6.7504
   6111362.44245   7482123.51345  25403396.0994   25403401.4074
     -2610.6564      -2034.2784         10.2504          8.5004
   2450667.99246   6815949.65745  24205557.0754   24205561.6344
     -4044.9064      -3151.8754         12.5004         10.0004
  -2785879.25146   7297951.10345  23782004.9114   23782008.3804
     -3271.8124      -2549.4644         12.5004         11.0004
 -16409894.28846 -12643069.17847  21373188.4584   21373191.2824
      -991.9694       -772.9634         17.7504         32.0004
 99  4 23  2  1  0.0010000  0  9G 3G17G29G21G 9G22G 6G26G23
 -12314918.87247  -9452292.88446  22897470.1304   22897473.3764
      1924.0164       1499.2334         20.0004         17.7504
 -16997724.02547 -13098745.44947  21356223.9584   21356226.9464
     -1045.4224       -814.6144         21.2504         30.2504
  -5342728.40245  -4013152.14845  24191439.8804   24191444.5324
      3213.6724       2504.1604          9.2504          9.0004
 -14761671.71048 -11375246.73246  22394949.1224   22394952.2984
      1169.6254        911.3964         28.7504         23.0004
   -893661.44744   -464128.79245  25172200.6854   25172206.4624
      1673.8914       1304.3304          6.7504          6.0004
   6189734.71745   7543192.72845  25418309.9894   25418315.5094
     -2614.2344      -2037.0664         10.0004          8.5004
   2572088.22946   6910562.73545  24228662.4664   24228666.6264
     -4049.7344      -3155.6374         12.2504         10.7504
  -2687545.92645   7374574.44745  23800717.4194   23800721.6144
     -3283.9064      -2558.8884         11.2504         10.2504
 -16379991.62846 -12619768.40047  21378878.8254   21378881.5564
     -1001.4844       -780.3774         19.5004         32.0004
 99  4 23  2  1 30.0010000  0  9G 3G17G29G21G 9G22G 6G26G23
 -12372398.02347  -9497081.79246  22886532.5054   22886535.8804
      1907.9844       1486.7414         20.7504         17.2504
 -16966193.56147 -13074176.26447  21362224.0284   21362227.1104
     -1056.2664       -823.0644         21.0004         30.2504
  -5439066.28645  -4088220.46045  24173107.8644   24173113.3494
      3208.9384       2500.4714          9.2504          8.7504
 -14796645.51048 -11402499.03346  22388293.6774   22388297.1104
      1162.0784        905.5154         28.5004         23.2504
   -943755.80643   -503163.18145  25162668.3564   25162673.9234
      1665.8134       1298.0364          5.5004          5.2504
   6268219.48845   7604349.63445  25433245.4664   25433249.7314
     -2618.0474      -2040.0374         11.0004          8.2504
   2693658.21045   7005292.48845  24251796.8964   24251801.4664
     -4054.8754      -3159.6434         11.7504         10.0004
  -2588834.69645   7451492.24145  23819501.3254   23819504.3494
     -3296.7664      -2568.9084         11.7504         10.7504
 -16349803.42446 -12596245.12147  21384623.4114   21384626.1064
     -1010.8914       -787.7074         19.2504         32.0004
 99  4 23  2  2  0.0010000  0  9G 3G17G29G21G 9G22G 6G26G23
 -12429396.18447  -9541495.91346  22875685.8104   22875689.3724
      1891.8754       1474.1884         21.0004         17.7504
 -16934362.24346 -13049372.64847  21368281.1614   21368284.2314
     -1065.7344       -830.4424         19.7504         30.0004
  -5535265.80345  -4163180.97745  24154801.3884   24154806.4274
      3204.2814       2496.8434          9.2504          8.7504
 -14831396.87548 -11429578.00546  22381680.4814   22381683.6924
      1154.5474        899.6474         28.5004         23.2504
   -993605.23043   -542006.78945  25153182.0994   25153186.5404
      1657.2664       1291.3764          5.7504          5.7504
   6346808.68145   7665587.86245  25448200.4034   25448206.5674
     -2621.2034      -2042.4964         11.2504          8.7504
   2815376.48945   7100137.79845  24274958.2474   24274962.9704
     -4059.7504      -3163.4424         11.7504         10.5004
  -2489741.77646   7528707.48345  23838357.9744   23838360.4114
     -3309.4374      -2578.7824         12.0004         11.2504
 -16319334.16546 -12572502.83747  21390421.5604   21390424.2674
     -1020.6254       -795.2924         18.0004         32.0004
 99  4 23  2  2 30.0010000  0  9G 3G17G29G21G 9G22G 6G26G23
 -12485926.44447  -9585545.42746  22864928.6614   22864932.0714
      1876.5944       1462.2814         20.5004         17.7504
 -16902252.88847 -13024352.37147  21374391.5284   21374394.6464
     -1075.0004       -837.6624         21.5004         29.7504
  -5631326.49945  -4238033.28445  24136521.6774   24136526.4114
      3199.6414       2493.2264          9.2504          9.0004
 -14865919.55648 -11456478.78446  22375111.0754   22375114.2744
      1146.7504        893.5714         29.0004         23.2504
  -1043199.07242   -580651.17745  25143744.7314   25143747.4504
      1648.9844       1284.9234          4.7504          4.5004
   6425479.94745   7726890.05145  25463170.9814   25463175.0834
     -2623.5314      -2044.3104         11.5004          7.7504
   2937233.50146   7195091.22045  24298147.6774   24298152.9854
     -4064.0164      -3166.7654         12.5004         10.2504
  -2390284.84845   7606206.35645  23857284.0914   23857286.5174
     -3321.0474      -2587.8294         11.5004         10.7504
 -16288571.71746 -12548532.09247  21396275.5834   21396278.2674
     -1030.1724       -802.7314         17.7504         31.7504
 99  4 23  2  3  0.0010000  0  9G 3G17G29G21G 9G22G 6G26G23
 -12541988.18647  -9629229.87246  22854260.5524   22854264.2904
      1860.9844       1450.1184         20.5004         17.7504
 -16869853.72046 -12999106.27547  21380556.9814   21380559.9114
     -1084.8284       -845.3214         19.7504         29.7504
  -5727236.04745  -4312767.84145  24118270.5054   24118276.4934
      3194.5634       2489.2694          9.2504          9.2504
 -14900190.12848 -11483183.11046  22368589.6464   22368592.9504
      1137.8754        886.6564         28.5004         23.2504
  -1092542.56542   -619100.68245  25134356.1144   25134360.5094
      1640.6564       1278.4334          4.7504          5.2504
   6504224.31545   7788249.20045  25478155.8024   25478161.6494
     -2625.9224      -2046.1734         11.7504          9.0004
   3059220.96546   7290146.27045  24321361.0364   24321366.9314
     -4068.3914      -3170.1754         12.5004         10.2504
  -2290466.78945   7683986.62745  23876279.0674   23876282.8174
     -3333.4374      -2597.4844         11.5004         10.7504
 -16257528.00146 -12524342.18647  21402182.9744   21402185.6574
     -1039.0314       -809.6354         18.0004         32.0004
 99  4 23  2  3 30.0010000  0  9G 3G17G29G21G 9G22G 6G26G23
 -12597588.27547  -9672554.58646  22843680.4504   22843683.4974
      1845.8134       1438.2954         21.2504         18.0004
 -16837161.80647 -12973632.06347  21386778.0444   21386781.0564
     -1094.6564       -852.9794         23.0004         29.5004
  -5822997.58045  -4387387.08945  24100048.2244   24100053.0054
      3189.4534       2485.2884          9.5004          8.5004
 -14934179.59848 -11509668.39546  22362121.7944   22362125.1464
      1127.9694        878.9374         28.7504         23.2504
  -1141629.87542   -657350.32645  25125014.0914   25125020.0674
      1631.7664       1271.5064          4.7504          5.7504
   6583039.85445   7849663.81645  25493153.8104   25493159.5754
     -2628.5474      -2048.2184         11.2504          8.2504
   3181346.03446   7385308.56145  24344600.7314   24344606.1104
     -4073.2504      -3173.9614         12.2504         10.7504
  -2190278.34145   7762055.50845  23895343.8024   23895346.7204
     -3345.6874      -2607.0294         11.7504         10.7504
 -16226231.07447 -12499954.96947  21408138.4194   21408141.0794
     -1047.4844       -816.2224         20.5004         32.0004
 99  4 23  2  4  0.0010000  0  9G 3G17G29G21G 9G22G 6G26G23
 -12652752.68047  -9715539.80346  22833182.3254   22833185.2204
      1831.6724       1427.2774         21.2504         17.7504
 -16804176.01247 -12947928.85147  21393054.8414   21393057.9234
     -1104.7344       -860.8324         20.0004         29.5004
  -5918603.85445  -4461885.34645  24081854.0444   24081859.4234
      3184.2034       2481.1974          9.2504          9.0004
 -14967870.92648 -11535921.36646  22355710.3414   22355713.5874
      1117.9694        871.1444         28.2504         23.0004
  -1190456.25443   -695396.79445  25115721.9894   25115726.8294
      1623.1884       1264.8214          5.0004          4.7504
   6661927.35745   7911134.48845  25508165.5214   25508171.1574
     -2630.8284      -2049.9964         11.0004          8.2504
   3303605.33346   7480575.43245  24367866.7244   24367872.1614
     -4077.5164      -3177.2854         12.7504          9.7504
  -2089739.15646   7840397.69545  23914475.9814   23914479.0524
     -3356.9844      -2615.8324         12.2504         10.7504
 -16194691.61646 -12475378.76747  21414140.2944   21414142.8844
     -1055.2504       -822.2734         17.7504         32.0004
 99  4 23  2  4 30.0010000  0  9G 3G17G29G21G 9G22G 6G26G23
 -12707492.52047  -9758194.19646  22822765.9194   22822769.2004
      1817.1724       1415.9784         21.0004         17.7504
 -16770868.90147 -12921975.27147  21399393.2634   21399396.3564
     -1115.9534       -869.5744         20.7504         29.5004
  -6014057.54045  -4536264.68445  24063690.0834   24063693.3644
      3179.2034       2477.3014          9.7504          9.5004
 -15001261.87048 -11561940.26446  22349356.4504   22349359.7314
      1107.9844        863.3644         28.2504         23.0004
  -1239025.75543   -733242.98945  25106479.8414   25106486.2394
      1614.6094       1258.1374          5.5004          5.0004
   6740888.47345   7972662.50645  25523191.9034   25523198.2674
     -2633.3124      -2051.9324         11.2504          8.0004
   3425997.43746   7575945.80345  24391155.7944   24391161.3494
     -4082.0164      -3180.7914         12.5004         10.0004
  -1988863.22145   7919002.30045  23933672.0134   23933675.0244
     -3368.3124      -2624.6594         11.5004         10.5004
 -16162928.68246 -12450628.43047  21420184.6694   21420187.3764
     -1062.4064       -827.8494         17.7504         31.7504
 99  4 23  2  5  0.0010000  0  9G 3G17G29G21G 9G22G 6G26G23
 -12761775.41247  -9800492.53046  22812436.1224   22812439.1344
      1801.7504       1403.9614         21.0004         18.0004
 -16737220.60247 -12895755.82747  21405795.9814   21405798.9934
     -1127.1254       -878.2794         23.2504         29.2504
  -6109360.48545  -4610526.61845  24045554.0834   24045559.2634
      3174.4384       2473.5884          9.7504          9.5004
 -15034353.17148 -11587725.67546  22343059.0914   22343062.3604
      1098.3134        855.8284         28.7504         23.0004
  -1287329.77543   -770882.44145  25097287.9194   25097294.0244
      1605.5944       1251.1124          6.0004          5.7504
   6819932.20945   8034254.97645  25538233.4274   25538236.8024
     -2636.3444      -2054.2944         10.7504          8.0004
   3548527.53146   7671423.69945  24414473.3884   24414478.2394
     -4086.5944      -3184.3594         12.5004         10.7504
  -1887629.01645   7997886.06745  23952935.9504   23952940.8604
     -3380.6094      -2634.2414         11.5004         10.2504
 -16130943.02146 -12425704.53947  21426271.2314   21426273.7864
     -1070.0474       -833.8034         17.7504         31.7504
 99  4 23  2  5 30.0010000  0  9G 3G17G29G21G 9G22G 6G26G23
 -12815591.95347  -9842427.47546  22802194.7164   22802198.2084
      1786.0004       1391.6884         20.2504         18.0004
 -16703241.56747 -12869278.66047  21412262.2244   21412265.2124
     -1138.0164       -886.7654         22.0004         29.2504
  -6204523.17945  -4684679.24645  24027445.7474   24027449.7554
      3169.7974       2469.9724         10.0004          9.0004
 -15067168.12348 -11613295.74946  22336814.5994   22336817.8454
      1089.6414        849.0714         28.2504         23.0004
  -1335361.11444   -808309.35345  25088147.2474   25088150.6694
      1596.6414       1244.1364          6.5004          5.7504
   6899070.36345   8095920.97645  25553293.0674   25553297.9194
     -2639.4534      -2056.7174          9.7504          8.0004
   3671196.59746   7767009.87545  24437816.5754   24437822.2244
     -4091.0944      -3187.8654         13.0004         10.0004
  -1786027.50445   8077056.06245  23972270.3804   23972273.6494
     -3392.6564      -2643.6284         11.5004         10.2504
 -16098719.38346 -12400595.21647  21432403.2084   21432405.8684
     -1078.1564       -840.1224         18.0004         31.7504
 99  4 23  2  6  0.0010000  0  9G 3G17G29G21G 9G22G 6G26G23
 -12868926.69747  -9883986.99046  22792045.9114   22792048.9354
      1769.6884       1378.9774         21.2504         17.7504
 -16668933.93147 -12842545.44647  21418790.8724   21418794.0604
     -1148.9844       -895.3124         21.0004         29.2504
  -6299546.32745  -4758723.12645  24009363.0994   24009367.1424
      3165.4224       2466.5634         10.0004          9.2504
 -15099744.58748 -11638679.98646  22330615.5994   22330618.8104
      1082.4064        843.4334         28.5004         23.2504
  -1383128.08944   -845530.29445  25079057.7634   25079064.4894
      1588.0474       1237.4394          6.7504          6.5004
   6978294.62345   8157654.10845  25568368.5834   25568375.7244
     -2642.0164      -2058.7134          9.7504          7.5004
   3793997.83646   7862699.04345  24461184.5214   24461189.8064
     -4095.4694      -3191.2744         12.7504         10.0004
  -1684072.87245   8156501.21445  23991672.0054   23991675.9894
     -3404.1724      -2652.6014         11.7504         10.2504
 -16066247.68946 -12375292.60147  21438582.3254   21438584.8804
     -1086.5624       -846.6724         18.2504         31.5004
 99  4 23  2  6 30.0010000  0  9G 3G17G29G21G 9G22G 6G26G23
 -12921752.81347  -9925150.17346  22781993.0914   22781996.1494
      1752.6254       1365.6824         21.0004         18.0004
 -16634289.96547 -12815550.15347  21425383.1774   21425386.2124
     -1159.8444       -903.7744         20.5004         29.2504
  -6394438.32645  -4832664.83445  23991305.7714   23991310.1774
      3161.2194       2463.2874         10.7504         10.0004
 -15132094.32748 -11663887.55546  22324459.5754   22324463.0214
      1074.7344        837.4554         28.7504         23.0004
  -1430625.80844   -882541.41345  25070019.8804   25070028.1104
      1579.1094       1230.4754          7.2504          6.0004
   7057611.90545   8219459.71645  25583461.8564   25583468.3494
     -2645.1724      -2061.1734          9.7504          8.0004
   3916936.68346   7958495.46545  24484579.8884   24484585.9934
     -4099.6874      -3194.5624         12.7504          9.7504
  -1581757.56845   8236227.38545  24011141.6144   24011144.7904
     -3416.3444      -2662.0864         11.2504         10.2504
 -16033504.59447 -12349778.50947  21444813.1774   21444816.0134
     -1095.8444       -853.9044         20.2504         31.2504
 99  4 23  2  7  0.0010000  0  9G 3G17G29G21G 9G22G 6G26G23
 -12974082.30247  -9965926.37146  22772035.5524   22772039.2204
      1735.9224       1352.6664         21.0004         18.0004
 -16599336.96946 -12788314.06147  21432034.6694   21432037.7394
     -1170.6254       -912.1754         19.5004         29.2504
  -6489206.63645  -4906510.19545  23973271.7394   23973276.5324
      3156.3914       2459.5254         10.7504          9.7504
 -15164220.19248 -11688920.67546  22318346.3884   22318349.6694
      1066.8134        831.2824         28.7504         23.2504
  -1477874.25245   -919358.25945  25061028.1614   25061035.5014
      1570.6414       1223.8764          7.5004          6.7504
   7137013.19445   8281330.70045  25598572.1854   25598577.9384
     -2648.4534      -2063.7304         10.0004          7.7504
   4039987.83546   8054379.37145  24507995.2784   24508000.7864
     -4103.9694      -3197.8984         12.5004          9.7504
  -1479091.33745   8316227.01245  24030678.6694   24030681.0954
     -3428.0624      -2671.2184         11.0004         10.7504
 -16000485.62747 -12324049.44947  21451096.4744   21451099.2284
     -1105.5624       -861.4774         21.2504         31.2504
 99  4 23  2  7 30.0010000  0  9G 3G17G29G21G 9G22G 6G26G23
 -13025920.69747 -10006319.90746  22762170.6534   22762173.8764
      1719.6564       1339.9924         21.0004         18.0004
 -16564059.57746 -12760825.18947  21438747.6614   21438750.7434
     -1181.5474       -920.6864         19.0004         29.5004
  -6583830.22145  -4980242.71945  23955265.2314   23955269.5094
      3151.4694       2455.6904         10.5004          9.7504
 -15196116.80148 -11713775.15246  22312276.5284   22312279.7864
      1059.2504        825.3904         29.2504         23.5004
  -1524880.76445   -955986.60945  25052082.1304   25052086.3024
      1562.7504       1217.7274          8.0004          6.0004
   7216495.55845   8343264.93145  25613697.1614   25613702.5054
     -2650.6564      -2065.4464          9.2504          8.0004
   4163163.94746   8150360.63545  24531435.0674   24531440.0484
     -4108.1254      -3201.1364         12.7504          9.7504
  -1376097.35045   8396482.06145  24050277.6614   24050280.3104
     -3438.3754      -2679.2534         11.2504         10.5004
 -15967190.46947 -12298105.17047  21457432.3494   21457435.1384
     -1114.3124       -868.2954         21.5004         31.2504
 99  4 23  2  8  0.0010000  0  9G 3G17G29G21G 9G22G 6G26G23
 -13077263.38647 -10046327.17846  22752400.4894   22752403.6184
      1703.4064       1327.3304         21.2504         18.2504
 -16528443.47347 -12733072.39147  21445525.2474   21445528.2714
     -1192.8284       -929.4764         20.0004         29.5004
  -6678291.29045  -5053848.63745  23937289.8964   23937292.8254
      3146.0164       2451.4414         10.7504          9.7504
 -15227771.75248 -11738441.32546  22306252.8884   22306256.1574
      1050.9694        818.9374         29.0004         23.5004
  -1571630.44545   -992414.87545  25043186.7784   25043191.1384
      1553.9064       1210.8364          9.0004          7.0004
   7296057.06445   8405260.85445  25628837.2394   25628843.2044
     -2653.3444      -2067.5414          8.7504          7.2504
   4286479.56446   8246450.61645  24554901.4354   24554907.3174
     -4112.8754      -3204.8384         12.5004         10.0004
  -1272795.07245   8476977.31545  24069934.9034   24069937.7044
     -3448.5164      -2687.1554         11.5004         10.5004
 -15933622.08947 -12271947.99747  21463820.0994   21463822.8644
     -1123.4844       -875.4424         21.2504         31.2504
 99  4 23  2  8 30.0020000  0  9G 3G17G29G21G 9G22G 6G26G23
 -13128121.04247 -10085956.49346  22742722.6044   22742725.6504
      1687.0634       1314.5944         22.0004         18.2504
 -16492489.36047 -12705056.20847  21452367.1354   21452370.1704
     -1204.1094       -938.2674         23.2504         29.5004
  -6772586.40445  -5127325.24545  23919345.6584   23919349.4084
      3139.8754       2446.6564         10.5004          9.7504
 -15259166.41048 -11762904.66946  22300278.6114   22300281.7174
      1041.9384        811.8994         29.5004         23.7504
  -1618109.32745  -1028632.03945  25034341.9554   25034345.7174
      1544.5784       1203.5674          9.2504          7.5004
   7375698.85545   8467319.29445  25643992.8074   25643999.0414
     -2655.7344      -2069.4034          9.5004          8.2504
   4409938.43946   8342652.24445  24578395.0494   24578403.1394
     -4117.4224      -3208.3814         12.7504          9.7504
  -1169174.73945   8557720.40645  24089653.8074   24089656.7364
     -3459.2344      -2695.5074         11.0004         10.0004
 -15899784.65147 -12245581.16247  21470259.0964   21470261.8854
     -1132.2034       -882.2364         25.0004         31.2504
 99  4 23  2  9  0.0020000  0  9G 3G17G29G21G 9G22G 6G26G23
 -13178485.64047 -10125201.61846  22733138.5024   22733141.5254
      1670.6094       1301.7744         21.2504         18.5004
 -16456190.42747 -12676771.33347  21459274.5884   21459277.6824
     -1215.9224       -947.4724         22.0004         29.2504
  -6866673.82745  -5200640.01045  23901441.6584   23901447.0024
      3132.7034       2441.0674         11.0004          9.7504
 -15290301.31848 -11787165.61046  22294353.9084   22294357.0144
      1033.8594        805.6054         29.5004         24.0004
  -1664300.81145  -1064625.38545  25025552.2214   25025558.1044
      1534.7344       1195.8974          9.0004          7.0004
   7455397.45745   8529421.99645  25659158.8304   25659165.6044
     -2657.4374      -2070.7314          7.7504          7.0004
   4533532.93246   8438959.52345  24601913.9864   24601919.4474
     -4122.1564      -3212.0704         12.0004          9.2504
  -1065247.13446   8638702.90045  24109430.6274   24109433.5924
     -3469.2814      -2703.3364         12.2504         11.0004
 -15865691.65746 -12219015.19947  21476746.9004   21476749.7014
     -1140.5944       -888.7744         18.2504         32.0004
 99  4 23  2  9 30.0020000  0  9G 3G17G29G21G 9G22G 6G26G23
 -13228360.81547 -10164065.36746  22723647.5724   22723650.9824
      1654.3284       1289.0874         21.7504         18.7504
 -16419542.21447 -12648214.28947  21466248.6044   21466251.7324
     -1227.2974       -956.3354         25.7504         29.2504
  -6960550.15345  -5273790.26645  23883577.8304   23883583.0924
      3125.5784       2435.5154         10.7504         10.0004
 -15321202.09648 -11811244.11646  22288473.5574   22288476.7564
      1026.0164        799.4934         29.5004         24.0004
  -1710182.65645  -1100377.37545  25016820.9084   25016826.2754
      1523.8914       1187.4474          8.7504          7.7504
   7535139.38945   8591558.48245  25674333.1664   25674338.0184
     -2658.7504      -2071.7534          7.5004          8.0004
   4657261.27446   8535371.09545  24625459.3544   24625464.4634
     -4126.4374      -3215.4064         12.5004          9.2504
   -961013.15345   8719924.18245  24129265.7214   24129268.3574
     -3479.9844      -2711.6764         10.7504         10.2504
 -15831354.43146 -12192258.91947  21483281.1354   21483283.8544
     -1148.8124       -895.1794         17.7504         32.0004
 99  4 23  2 10  0.0020000  0  9G 3G17G29G21G 9G22G 6G26G23
 -13277752.89947 -10202552.68146  22714248.3144   22714251.3264
      1638.7194       1276.9244         21.7504         18.2504
 -16382560.81947 -12619397.62447  21473285.7994   21473288.7994
     -1237.9694       -964.6514         25.7504         29.2504
  -7054214.72845  -5346775.54445  23865754.1194   23865758.8654
      3118.9384       2430.3414         10.7504          9.7504
 -15351865.79248 -11835137.88546  22282638.4794   22282641.7834
      1018.2664        793.4544         29.7504         24.0004
  -1755740.33545  -1135876.72545  25008151.8544   25008155.8964
      1513.5474       1179.3874          9.0004          8.0004
   7614916.91445   8653722.66045  25689514.5804   25689519.2914
     -2659.5004      -2072.3384          8.0004          6.7504
   4781106.88945   8631874.07245  24649026.0644   24649031.9124
     -4129.7504      -3217.9874         11.7504          9.0004
   -856447.93045   8801403.51045  24149164.1664   24149168.2444
     -3491.0164      -2720.2724         11.2504         10.0004
 -15796766.81246 -12165307.53447  21489862.9164   21489865.7874
     -1156.8444       -901.4374         17.7504         32.0004
 99  4 23  2 10 30.0020000  0  9G 3G17G29G21G 9G22G 6G26G23
 -13326675.75847 -10240674.37746  22704939.0414   22704942.3114
      1622.7504       1264.4814         22.2504         19.0004
 -16345260.19347 -12590332.20447  21480384.0724   21480387.2254
     -1248.8594       -973.1374         22.7504         29.2504
  -7147677.50045  -5419603.56945  23847968.2294   23847973.4904
      3111.7664       2424.7524         10.7504         10.2504
 -15382291.95848 -11858846.55746  22276848.4164   22276851.5454
      1010.1094        787.0984         29.2504         24.2504
  -1800993.37845  -1171138.77945  24999539.9244   24999544.6004
      1503.2194       1171.3394          9.2504          8.5004
   7694712.03644   8715900.61845  25704698.6044   25704703.2214
     -2660.3754      -2073.0194          6.2504          6.5004
   4905044.02245   8728448.36945  24672610.7214   24672616.3814
     -4132.8594      -3220.4104         11.7504          9.0004
   -751546.37645   8883144.97345  24169126.1114   24169129.4044
     -3502.3594      -2729.1114         11.7504         10.7504
 -15761942.19646 -12138171.47047  21496489.6744   21496492.4864
     -1165.0004       -907.7924         18.2504         31.7504
 99  4 23  2 11  0.0020000  0  9G 3G17G29G21G 9G22G 6G26G23
 -13375126.42347 -10278428.11946  22695719.2444   22695722.5724
      1607.0944       1252.2814         22.0004         19.0004
 -16307633.49647 -12561012.70747  21487544.2294   21487547.3344
     -1259.6094       -981.5144         26.0004         29.0004
  -7240928.29245  -5492266.39845  23830222.6044   23830225.9204
      3104.9844       2419.4684         10.5004         10.0004
 -15412479.32248 -11882369.15746  22271104.0574   22271107.4204
      1002.2034        780.9384         29.7504         24.0004
  -1845939.07745  -1206161.31445  24990987.3224   24990990.7214
      1493.0164       1163.3894          9.2504          7.7504
   7774538.11345   8778102.63745  25719889.2524   25719896.6394
     -2661.6414      -2074.0064          7.7504          6.7504
   5029074.57145   8825095.44445  24696213.1354   24696218.6434
     -4135.9374      -3222.8084         11.7504          9.2504
   -646316.11445   8965142.53545  24189150.2994   24189153.6394
     -3513.2344      -2737.5854         11.7504         10.7504
 -15726872.27247 -12110844.25347  21503163.3074   21503166.0024
     -1173.0314       -914.0504         21.5004         31.5004
 99  4 23  2 11 30.0020000  0  9G 3G17G29G21G 9G22G 6G26G23
 -13423101.16147 -10315811.01346  22686589.4324   22686592.5024
      1590.9844       1239.7284         22.7504         19.0004
 -16269691.06748 -12531447.18447  21494764.2364   21494767.3424
     -1269.9064       -989.5374         30.5004         28.7504
  -7333984.25545  -5564777.41345  23812515.4794   23812519.9674
      3098.7344       2414.5984         11.0004         10.2504
 -15442422.61748 -11905701.56846  22265406.0184   22265409.0644
       993.8914        774.4604         29.7504         24.2504
  -1890579.89445  -1240946.31245  24982492.0414   24982496.2714
      1483.0634       1155.6334          9.0004          7.5004
   7854410.18843   8840340.59645  25735088.5644   25735093.7444
     -2663.2034      -2075.2234          6.0004          6.5004
   5153198.63445   8921815.35345  24719833.3544   24719838.8144
     -4139.0314      -3225.2194         11.2504          9.0004
   -540749.40045   9047402.29445  24209239.3614   24209241.9984
     -3524.5784      -2746.4254         11.2504         10.2504
 -15691563.82946 -12083331.18247  21509882.3544   21509885.1434
     -1180.9064       -920.1874         17.7504         31.5004
 99  4 23  2 12  0.0020000  0  9G 3G17G29G21G 9G22G 6G26G23
 -13470588.55847 -10352814.16446  22677552.9864   22677556.1624
      1574.7034       1227.0414         22.7504         18.7504
 -16231439.25448 -12501640.58347  21502043.1584   21502046.3224
     -1280.2814       -997.6224         31.7504         28.7504
  -7426860.44445  -5637148.35545  23794841.1274   23794845.8264
      3092.9064       2410.0574         11.2504         10.2504
 -15472117.80648 -11928840.65546  22259755.1434   22259757.9904
       985.6094        768.0074         30.0004         24.2504
  -1934929.33745  -1275504.21545  24974052.8934   24974057.8034
      1473.3594       1148.0724          8.7504          7.0004
   7934330.20745   8902615.76345  25750297.5414   25750303.4824
     -2665.1094      -2076.7094          8.5004          7.5004
   5277410.91845   9018604.04945  24743469.7524   24743476.8694
     -4142.0004      -3227.5324         11.5004          9.5004
   -434852.38345   9129919.41545  24229391.4164   24229395.4244
     -3535.1874      -2754.6924         11.5004         10.5004
 -15656024.47146 -12055638.17647  21516645.4864   21516648.1934
     -1188.3594       -925.9944         17.7504         31.5004
 99  4 23  2 12 30.0020000  0  9G 3G17G29G21G 9G22G 6G26G23
 -13517579.47747 -10389430.45346  22668610.7754   22668613.6934
      1557.9064       1213.9534         23.2504         19.0004
 -16192874.66148 -12471590.25547  21509381.8774   21509385.0644
     -1290.7974      -1005.8164         31.7504         28.5004
  -7519556.42345  -5709378.84645  23777201.5644   23777206.6044
      3086.7664       2405.2724         11.5004         10.7504
 -15501564.02148 -11951785.73546  22254151.8544   22254154.8424
       977.4844        761.6764         30.0004         24.2504
  -1978978.56845  -1309828.23045  24965670.2294   24965673.0884
      1463.1564       1140.1224          9.2504          7.2504
   8014318.29244   8964944.09945  25765518.5574   25765524.2054
     -2667.4844      -2078.5594          6.5004          6.5004
   5401718.00045   9115466.55545  24767125.0964   24767131.5884
     -4145.0784      -3229.9314         10.7504          8.7504
   -328641.51745   9212681.09045  24249601.9864   24249605.3264
     -3545.5314      -2762.7524         11.7504         10.7504
 -15620263.76846 -12027772.69547  21523450.2524   21523452.9244
     -1195.7504       -931.7534         18.0004         31.7504
 99  4 23  2 13  0.0020000  0  9G 3G17G29G21G 9G22G 6G26G23
 -13564062.03447 -10425650.61046  22659765.8614   22659769.0844
      1540.7034       1200.5484         23.0004         19.2504
 -16153993.75248 -12441293.45447  21516780.6824   21516783.7994
     -1301.2974      -1013.9984         32.2504         28.5004
  -7612069.79145  -5781467.06645  23759597.2834   23759600.7994
      3080.6884       2400.5364         11.7504         11.0004
 -15530769.40148 -11974543.15246  22248594.1194   22248597.1544
       969.3444        755.3334         30.2504         24.2504
  -2022721.81545  -1343913.76245  24957346.1974   24957349.7484
      1452.9224       1132.1474          9.7504          8.0004
   8094375.17145   9027325.99945  25780752.9554   25780757.5494
     -2669.7344      -2080.3124          8.7504          7.7504
   5526113.19245   9212397.77545  24790796.6584   24790802.0964
     -4148.0004      -3232.2084         11.0004          9.2504
   -222120.07845   9295684.79245  24269871.9794   24269875.5764
     -3556.0784      -2770.9704         10.7504         10.2504
 -15584282.40846 -11999735.27747  21530297.3224   21530300.1464
     -1203.0314       -937.4274         18.0004         31.5004
 99  4 23  2 13 30.0020000  0  9G 3G17G29G21G 9G22G 6G26G23
 -13610021.99547 -10461463.55046  22651020.0104   22651022.5414
      1523.5634       1187.1924         23.2504         19.2504
 -16114792.47148 -12410747.00447  21524240.4554   21524243.7134
     -1311.9374      -1022.2894         32.5004         28.5004
  -7704398.93246  -5853411.71645  23742027.1114   23742031.1074
      3074.8134       2395.9584         12.0004         10.7504
 -15559718.02348 -11997100.50046  22243085.2604   22243088.1784
       960.7504        748.6364         30.5004         24.5004
  -2066156.42745  -1377758.84245  24949081.1114   24949085.9514
      1443.0004       1124.4164         11.0004          8.2504
   8174496.30244   9089757.91845  25795999.2364   25796007.4204
     -2671.3444      -2081.5674          7.2504          6.5004
   5650599.20745   9309399.73845  24814485.8854   24814490.5724
     -4150.8444      -3234.4244         10.7504          8.7504
   -115276.02445   9378939.88145  24290204.3074   24290207.6704
     -3566.5474      -2779.1274         10.7504         10.0004
 -15548078.99646 -11971524.82647  21537186.5884   21537189.3184
     -1210.4224       -943.1864         18.2504         31.2504
 99  4 23  2 14  0.0020000  0  9G 3G17G29G21G 9G22G 6G26G23
 -13655477.43447 -10496883.36646  22642370.2214   22642373.3384
      1507.0944       1174.3594         23.2504         19.0004
 -16075269.76248 -12379950.09547  21531761.4244   21531764.7524
     -1322.7034      -1030.6784         32.2504         28.2504
  -7796549.74546  -5925217.43945  23724491.5184   23724495.2094
      3068.7344       2391.2224         12.5004         11.2504
 -15588409.23848 -12019457.26446  22237625.4394   22237628.4984
       952.1564        741.9404         30.7504         24.5004
  -2109294.74845  -1411373.04045  24940872.2054   24940877.0454
      1433.0634       1116.6724         11.7504          8.5004
   8254655.49245   9152219.56645  25811253.4794   25811260.0534
     -2672.3754      -2082.3704          7.7504          6.5004
   5775170.06345   9406467.83745  24838190.8304   24838197.5924
     -4153.7504      -3236.6884         10.7504          7.7504
     -8125.22446   9462433.95545  24310595.0414   24310599.7524
     -3576.4694      -2786.8594         12.7504         11.2504
 -15511656.21846 -11943143.44247  21544117.7754   21544120.4124
     -1217.4534       -948.6654         18.2504         30.7504
 99  4 23  2 14 30.0020000  0  9G 3G17G29G21G 9G22G 6G26G23
 -13700435.78247 -10531915.82146  22633814.6354   22633817.1894
      1490.2194       1161.2094         24.0004         19.2504
 -16035413.11848 -12348892.98047  21539345.8074   21539348.9004
     -1334.4224      -1039.8094         30.7504         28.2504
  -7888511.13446  -5996875.52645  23706991.7684   23706995.5414
      3062.1254       2386.0714         12.2504         11.2504
 -15616840.48348 -12041611.45946  22232215.3544   22232218.3654
       943.4844        735.1834         30.5004         24.5004
  -2152128.87645  -1444750.21345  24932720.8224   24932724.6434
      1422.8134       1108.6854         11.2504          8.0004
   8334837.59845   9214699.01245  25826511.4164   25826519.9634
     -2672.8444      -2082.7354          7.7504          8.0004
   5899832.63245   9503607.33745  24861913.5024   24861918.9394
     -4156.8914      -3239.1364         10.7504          7.7504
     99322.94546   9546159.78545  24331041.5414   24331044.9984
     -3586.5944      -2794.7484         12.2504         11.2504
 -15475020.50347 -11914596.13547  21551089.2214   21551091.8934
     -1224.8914       -954.4604         20.2504         31.0004
 99  4 23  2 15  0.0020000  0  8G 3G17G29G21G 9G 6G26G23
 -13744886.77447 -10566552.94246  22625356.2134   22625359.1894
      1473.1414       1147.9024         23.7504         19.2504
 -15995202.77748 -12317560.25047  21546997.7134   21547000.8894
     -1346.3594      -1049.1114         32.2504         28.2504
  -7980277.48146  -6068381.67145  23689528.3304   23689533.5214
      3055.5784       2380.9704         12.7504         11.2504
 -15645016.67248 -12063566.91046  22226853.4084   22226856.5144
       934.8134        728.4254         30.2504         24.5004
  -2194658.65145  -1477890.15645  24924628.0104   24924632.5574
      1412.1724       1100.3944         11.0004          7.0004
   6024594.18345   9600824.02445  24885654.0184   24885661.1704
     -4160.7814      -3242.1674         10.2504          7.7504
    207065.57145   9630115.06945  24351543.5644   24351545.9204
     -3596.3284      -2802.3344         11.2504         10.2504
 -15438158.80546 -11885872.73647  21558103.7294   21558106.4244
     -1232.6414       -960.4994         18.2504         31.0004
 99  4 23  2 15 30.0020000  0  9G 3G17G29G21G 9G31G 6G26G23
 -13788829.99747 -10600794.39746  22616993.5414   22616996.1434
      1456.3284       1134.8014         24.0004         19.5004
 -15954628.70048 -12285944.09647  21554718.7214   21554721.7914
     -1358.6254      -1058.6694         32.5004         28.0004
  -8071849.95546  -6139736.71045  23672103.7994   23672107.9944
      3049.1884       2375.9904         12.7504         11.2504
 -15672935.20248 -12085321.57946  22221540.7684   22221543.8504
       926.6254        722.0454         30.5004         24.5004
  -2236858.85845  -1510773.38945  24916596.9004   24916600.7324
      1401.0944       1091.7614         11.0004          8.0004
    -65540.37155                  25353781.5414
      2846.8754                          8.5004
   6149475.20145   9698133.82345  24909418.6114   24909424.8114
     -4164.6414      -3245.1754         10.0004          7.5004
    315093.46045   9714292.59245  24372101.0184   24372105.5644
     -3605.5004      -2809.4814         11.0004         10.0004
 -15401064.30146 -11856967.93547  21565162.3074   21565164.9674
     -1240.4064       -966.5504         18.7504         30.7504
 99  4 23  2 16  0.0020000  0  9G 3G17G29G21G 9G31G 6G26G23
 -13832259.55947 -10634635.59146  22608729.3224   22608731.8774
      1439.1094       1121.3844         23.7504         19.2504
 -15913684.75148 -12254039.72647  21562510.0334   21562513.3034
     -1370.8594      -1068.2024         31.7504         28.5004
  -8163220.88946  -6210934.74245  23654715.9474   23654719.3344
      3042.2504       2370.5844         13.0004         11.2504
 -15700618.70048 -12106893.11446  22216272.8074   22216275.7954
       919.0944        716.1774         30.5004         24.5004
  -2278714.65545  -1543388.20045  24908631.8774   24908636.0724
      1389.4064       1082.6544         10.0004          8.5004
   -150831.20345                  25337550.6274
      2839.2034                          8.0004
   6274470.71945   9795532.75845  24933204.7444   24933210.9554
     -4168.2034      -3247.9504         10.2504          7.7504
    423394.74745   9798683.17645  24392709.7214   24392713.3654
     -3614.3124      -2816.3474         11.5004         11.0004
 -15363735.39547 -11827880.47847  21572266.0104   21572268.7174
     -1248.0784       -972.5284         23.2504         30.7504
 99  4 23  2 16 30.0020000  0  9G 3G17G29G21G 9G31G 6G26G23
 -13875168.11047 -10668070.81346  22600564.1194   22600566.7684
      1421.2974       1107.5044         24.2504         19.5004
 -15872376.55048 -12221851.52647  21570370.6434   21570373.7254
     -1383.0004      -1077.6624         32.2504         28.2504
  -8254382.17946  -6281969.40745  23637368.3224   23637372.9394
      3034.9844       2364.9234         12.7504         11.0004
 -15728080.47548 -12128291.87346  22211046.9244   22211049.9944
       911.5314        710.2844         30.2504         24.7504
  -2320222.61245  -1575731.94745  24900733.2524   24900737.6934
      1377.7814       1073.5964         10.7504          8.0004
   -235896.69845    -55223.90255  25321363.1274   25321368.0844
      2831.8284       2206.6194          8.0004          8.0004
   6399559.28445   9893004.25945  24957008.9554   24957015.0024
     -4171.0624      -3250.1794         10.0004          7.2504
    531953.65245   9883274.50945  24413368.2754   24413372.4244
     -3623.1564      -2823.2394         11.0004         10.7504
 -15326169.27047 -11798608.17747  21579414.6044   21579417.2524
     -1256.6094       -979.1764         25.5004         30.7504
 99  4 23  2 17  0.0020000  0  9G 3G17G29G21G 9G31G 6G26G23
 -13917541.49747 -10701089.01446  22592500.5724   22592503.6894
      1403.5634       1093.6854         23.5004         19.5004
 -15830721.20148 -12189392.81947  21578297.4714   21578300.6464
     -1394.0004      -1086.2344         32.0004         28.0004
  -8345328.51746  -6352836.56545  23620061.6664   23620066.0494
      3027.9694       2359.4564         12.7504         11.0004
 -15755311.64448 -12149510.94146  22205864.8074   22205868.0534
       903.7034        704.1844         30.0004         24.5004
  -2361387.29845  -1607808.22445  24892899.9714   24892906.3224
      1366.3594       1064.6964         11.0004          8.5004
   -320734.26945   -121331.00645  25305219.0574   25305223.4044
      2823.5164       2200.1424          8.2504          7.0004
   6524730.05345   9990539.81745  24980826.8464   24980833.1394
     -4173.6414      -3252.1874          9.2504          7.2504
    640780.14445   9968074.33745  24434077.1824   24434081.0144
     -3632.0474      -2830.1664         11.2504         10.5004
 -15288344.94747 -11769134.67647  21586612.3854   21586615.0574
     -1265.0314       -985.7394         24.2504         30.7504
 99  4 23  2 17 30.0020000  0  9G 3G17G29G21G 9G31G 6G26G23
 -13959379.26347 -10733689.84546  22584539.5334   22584542.6044
      1385.4694       1079.5864         24.2504         19.7504
 -15788732.56648 -12156674.41147  21586287.6434   21586290.8654
     -1405.3444      -1095.0734         32.5004         28.0004
  -8436050.14246  -6423528.64245  23602797.9394   23602801.6194
      3019.9224       2353.1864         12.7504         10.7504
 -15782300.85248 -12170541.47246  22200728.9164   22200731.9754
       895.5944        697.8654         30.2504         24.7504
  -2402211.22845  -1639619.03845  24885131.4554   24885137.1154
      1355.3594       1056.1244         11.2504          8.2504
   -405296.57645   -187223.63545  25289127.1664   25289132.5334
      2813.6564       2192.4594          8.5004          7.7504
   6649972.19745  10088130.95945  25004660.4944   25004666.6704
     -4175.8914      -3253.9414          9.5004          6.5004
    749886.08545  10053091.92945  24454839.5104   24454844.1744
     -3641.8284      -2837.7884         11.2504          9.7504
 -15250264.80247 -11739461.83547  21593858.7134   21593861.4674
     -1273.7344       -992.5204         23.5004         30.7504
 99  4 23  2 18  0.0020000  0  9G 3G17G29G21G 9G31G 6G26G23
 -14000675.49547 -10765868.70346  22576680.7444   22576683.7914
      1367.8444       1065.8524         24.5004         19.7504
 -15746406.50048 -12123693.06947  21594341.8774   21594345.0184
     -1416.2814      -1103.5964         32.0004         28.0004
  -8526525.23346  -6494028.62445  23585580.6194   23585585.0494
      3011.8914       2346.9284         12.5004         11.0004
 -15809044.73748 -12191380.84046  22195639.8694   22195642.9754
       887.2504        691.3644         30.2504         24.7504
  -2442714.80445  -1671180.17545  24877424.1114   24877428.7174
      1344.9384       1048.0034         11.0004          7.7504
   -489554.28145   -252878.91345  25273093.5574   25273099.1934
      2803.8444       2184.8134          8.2504          7.2504
   6775279.42545  10185772.81145  25028505.7214   25028509.9984
     -4177.7504      -3255.3904          9.2504          7.0004
    859286.86045  10138339.22645  24475658.3694   24475662.1314
     -3651.4844      -2845.3124         11.5004         10.5004
 -15211925.90147 -11709587.36347  21601154.4864   21601157.2294
     -1282.0944       -999.0344         23.2504         30.7504
 99  4 23  2 18 30.0020000  0  9G 3G17G29G21G 9G31G 6G26G23
 -14041453.89347 -10797644.05546  22568920.9794   22568923.6394
      1350.5004       1052.3384         24.5004         19.7504
 -15703758.76648 -12090461.08047  21602457.5964   21602460.6074
     -1427.0474      -1111.9854         32.2504         27.7504
  -8616774.93946  -6564352.95545  23568407.2994   23568410.8144
      3004.6094       2341.2544         12.5004         11.5004
 -15835534.00348 -12212021.80746  22190599.1504   22190602.2094
       878.5314        684.5704         30.5004         25.0004
  -2482908.61545  -1702499.95245  24869774.8694   24869779.9204
      1334.4064       1039.7974          9.7504          7.0004
   -573535.57645   -318318.78345  25257112.8544   25257118.2214
      2794.6254       2177.6304          7.7504          7.2504
   6900631.74245  10283449.79045  25052359.9794   25052366.5064
     -4179.3754      -3256.6564          9.2504          7.0004
    968973.43646  10223809.26345  24496530.7994   24496534.4794
     -3661.2974      -2852.9594         12.2504         11.0004
 -15173342.96147 -11679522.73947  21608496.4794   21608499.3144
     -1290.2344      -1005.3774         20.2504         30.7504
 99  4 23  2 19  0.0020000  0  9G 3G17G29G21G 9G31G 6G26G23
 -14081712.15347 -10829014.10546  22561259.9714   22561263.0644
      1333.4224       1039.0304         24.2504         20.0004
 -15660784.93648 -12056974.98247  21610635.5254   21610638.4204
     -1438.0474      -1120.5564         31.7504         28.0004
  -8706804.80746  -6634506.05345  23551274.6894   23551278.2874
      2997.3284       2335.5804         12.7504         11.2504
 -15861757.78748 -12232455.90246  22185608.7914   22185611.9904
       869.8594        677.8134         30.5004         25.0004
  -2522775.59645  -1733565.05945  24862188.4394   24862190.6434
      1323.2034       1031.0674          9.0004          6.5004
   -657221.02345   -383528.18145  25241187.3464   25241191.6354
      2784.3594       2169.6314          8.7504          7.7504
   7026048.77445  10381177.21345  25076225.3144   25076230.8344
     -4181.7034      -3258.4704          8.7504          7.5004
   1078958.18546  10309511.63745  24517459.8144   24517464.4434
     -3670.9534      -2860.4834         12.2504         10.0004
 -15134523.57647 -11649273.87147  21615883.6194   21615886.4084
     -1297.5164      -1011.0514         20.7504         31.0004
 99  4 23  2 19 30.0020000  0  9G 3G17G29G21G 9G31G 6G26G23
 -14121469.15847 -10859993.57346  22553694.3614   22553697.3144
      1316.7194       1026.0154         24.0004         19.7504
 -15617475.71448 -12023227.55147  21618876.9244   21618880.1234
     -1449.4224      -1129.4204         31.5004         27.7504
  -8796622.68846  -6704493.91445  23534182.7684   23534187.1624
      2990.4694       2330.2354         12.5004         11.5004
 -15887740.81848 -12252702.40346  22180664.5644   22180667.7294
       862.1414        671.7984         31.0004         25.2504
  -2562301.23645  -1764364.19245  24854667.0964   24854673.2484
      1311.5314       1021.9724         10.0004          7.2504
   -740616.74345   -448511.79445  25225317.2994   25225321.2364
      2775.3594       2162.6184          8.2504          8.0004
   7151526.80045  10478952.20045  25100104.1434   25100109.2174
     -4183.7664      -3260.0774          9.2504          7.5004
   1189220.96445  10395430.64045  24538441.7914   24538445.2834
     -3680.0474      -2867.5694         11.5004         10.0004
 -15095502.58746 -11618867.91047  21623309.0724   21623311.8034
     -1304.0164      -1016.1164         19.5004         31.0004
 99  4 23  2 20  0.0020000  0  9G 3G17G29G21G 9G31G 6G26G23
 -14160717.16247 -10890576.40646  22546225.8774   22546228.6074
      1299.7814       1012.8174         24.7504         19.7504
 -15573822.35148 -11989211.95147  21627183.6974   21627186.7564
     -1460.6564      -1138.1744         32.2504         27.7504
  -8886243.87146  -6774328.52645  23517128.3144   23517131.5724
      2984.3134       2325.4384         13.0004         11.5004
 -15913485.85648 -12272763.44846  22175765.1744   22175767.9514
       854.0944        665.5284         31.0004         25.2504
  -2601461.47245                  24847215.5254
      1299.0474                         10.7504
   -823748.41745   -513289.63945  25209498.6194   25209502.3694
      2766.7814       2155.9334          8.7504          7.7504
   7277072.58845  10576779.89445  25123994.1744   25124000.0214
     -4185.7504      -3261.6234          8.2504          6.5004
   1299754.67845  10481560.78845  24559475.6434   24559479.3814
     -3688.7814      -2874.3754         11.2504         10.0004
 -15056284.74746 -11588308.55947  21630771.9324   21630774.6504
     -1310.4534      -1021.1324         18.2504         30.7504
 99  4 23  2 20 30.0020000  0  9G 3G17G29G21G 9G31G 6G26G23
 -14199446.34147 -10920754.95746  22538856.0024   22538858.9204
      1281.9694        998.9374         24.7504         20.0004
 -15529831.70648 -11954933.53747  21635554.9794   21635558.1434
     -1472.1874      -1147.1594         32.2504         27.5004
  -8975675.72646  -6844015.59446  23500110.1894   23500114.0804
      2977.4384       2320.0814         12.7504         12.0004
 -15938988.02148 -12292635.24646  22170912.4714   22170915.5064
       846.0474        659.2574         31.2504         25.2504
  -2640241.84845                  24839835.4554
      1286.3444                         11.0004
   -906609.03045   -577856.27445  25193730.0254   25193735.2294
      2756.8594       2148.2024          9.2504          8.0004
   7402673.82645  10674650.87345  25147896.4474   25147903.9164
     -4187.8914      -3263.2914          8.7504          6.2504
   1410544.82245  10567890.75645  24580558.9864   24580563.7794
     -3697.4224      -2881.1084         11.5004          9.7504
 -15016875.21446 -11557599.83447  21638271.1824   21638273.7954
     -1316.9694      -1026.2094         18.2504         31.0004
 99  4 23  2 21  0.0020000  0  9G 3G17G29G21G 9G31G 6G26G23
 -14237646.90147 -10950521.61146  22531586.5104   22531589.7914
      1264.5474        985.3614         24.0004         20.0004
 -15485501.36948 -11920390.43147  21643990.6824   21643993.7524
     -1483.3124      -1155.8284         32.2504         27.5004
  -9064894.29746  -6913536.50446  23483132.2914   23483136.1114
      2970.2814       2314.5054         13.5004         12.2504
 -15964263.41748 -12312330.34146  22166102.7364   22166105.7254
       838.8914        653.6814         31.2504         25.2504
  -2678657.15745                  24832525.0414
      1274.5634                          9.7504
   -989171.79745   -642190.87045  25178019.1744   25178022.9244
      2747.2344       2140.7024          9.2504          8.2504
   7528330.99845  10772565.35545  25171807.9714   25171813.2684
     -4189.1564      -3264.2784          8.2504          6.7504
   1521582.64345  10654413.70345  24601688.9164   24601692.6664
     -3705.2344      -2887.1964         11.7504         10.2504
 -14977278.14546 -11526744.98147  21645806.3074   21645809.0374
     -1322.9534      -1030.8734         18.2504         31.0004
 99  4 23  2 21 30.0020000  0  9G 3G17G29G21G 9G31G 6G26G23
 -14275314.23147 -10979872.74946  22524418.6824   22524421.7294
      1246.5784        971.3604         24.7504         20.2504
 -15440829.45348 -11885581.16247  21652491.4004   21652494.5534
     -1494.5474      -1164.5824         32.0004         27.2504
  -9153887.87646  -6982882.06446  23466197.3934   23466201.3774
      2962.6884       2308.5884         14.0004         12.2504
 -15989318.72048 -12331853.93946  22161334.8384   22161337.9674
       831.4224        647.8614         31.5004         25.2504
  -2716715.94845    -13805.08855  24825282.1824   24825288.1934
      1262.9694        984.1314          9.2504          7.2504
  -1071447.71545   -706301.88545  25162362.2684   25162366.1704
      2737.9224       2133.4464          9.7504          8.5004
   7654022.60945  10870506.73645  25195726.0024   25195729.7874
     -4190.2034      -3265.0934          8.0004          6.2504
   1632866.90546  10741128.68745  24622865.7444   24622869.7054
     -3713.5784      -2893.6974         12.2504         10.5004
 -14937489.16546 -11495740.58947  21653378.0184   21653380.6314
     -1329.7034      -1036.1324         18.2504         30.7504
 99  4 23  2 22  0.0020000  0  9G 3G17G29G21G 9G31G 6G26G23
 -14312440.93947 -11008802.62846  22517353.7834   22517356.8544
      1228.5164        957.2854         24.7504         20.5004
 -15395834.47548 -11850520.15847  21661053.6194   21661056.7604
     -1505.1874      -1172.8734         31.7504         27.0004
  -9242648.51046  -7052046.13746  23449306.9634   23449310.3614
      2954.4534       2302.1714         14.2504         13.0004
 -16014146.21048 -12351200.01646  22156610.1584   22156613.0764
       823.6884        641.8344         30.7504         25.5004
  -2754441.01445    -43201.17745  24818103.6354   24818108.1464
      1252.0314        975.6094         10.0004          8.0004
  -1153441.38945   -770193.00945  25146759.4634   25146763.0844
      2728.1254       2125.8124         10.0004          8.5004
   7779732.07745  10968461.97245  25219647.5104   25219655.6464
     -4190.5004      -3265.3254          8.0004          6.7504
   1744391.19646  10828030.70545  24644088.1354   24644090.7714
     -3721.4224      -2899.8094         12.2504         10.2504
 -14897493.29146 -11464574.98047  21660988.9004   21660991.4434
     -1336.6564      -1041.5504         18.0004         31.0004
 99  4 23  2 22 30.0020000  0  9G 3G17G29G21G 9G31G 6G26G23
 -14349021.21947 -11037306.72646  22510392.8074   22510396.0764
      1210.2504        943.0524         24.2504         20.2504
 -15350515.87148 -11815206.97047  21669677.5494   21669680.6894
     -1516.1254      -1181.3964         31.7504         27.0004
  -9331144.34546  -7121003.84346  23432466.4944   23432470.0454
      2945.2814       2295.0244         14.2504         12.5004
 -16038741.78048 -12370365.37946  22151929.8614   22151932.8384
       816.0944        635.9174         31.2504         25.5004
  -2791836.73745    -72340.65545  24810987.5024   24810992.5534
      1240.9534        966.9764         10.2504          8.2504
  -1235137.05045   -833851.87245  25131213.4634   25131217.1544
      2718.2664       2118.1294         10.0004          8.0004
   7905452.19845  11066425.56345  25243571.1894   25243578.5644
     -4191.0474      -3265.7514          7.7504          6.2504
   1856151.82846  10915116.86545  24665355.2524   24665358.7794
     -3729.4064      -2906.0314         12.2504         10.2504
 -14857292.05046 -11433249.34747  21668638.9324   21668641.6154
     -1343.4374      -1046.8344         18.5004         31.0004
 99  4 23  2 23  0.0020000  0  9G 3G17G29G21G 9G31G 6G26G23
 -14385053.55847 -11065383.83846  22503535.9634   22503539.0104
      1191.7814        928.6614         24.7504         20.5004
 -15304869.18048 -11779638.13247  21678364.0334   21678367.3034
     -1527.1254      -1189.9684         31.7504         26.7504
  -9419367.06546  -7189748.75246  23415678.2684   23415681.3504
      2936.1564       2287.9144         14.2504         13.0004
 -16063108.21948 -12389352.19447  22147293.1584   22147296.2404
       808.2034        629.7694         31.2504         25.7504
  -2828891.30045   -101214.24545  24803935.9554   24803941.1704
      1229.0474        957.6994          9.7504          8.0004
  -1316536.54845   -897280.02645  25115723.5724   25115728.2834
      2708.2664       2110.3374          9.7504          7.7504
   8031204.05245  11164413.84445  25267501.3464   25267507.0414
     -4192.5784      -3266.9444          7.5004          6.5004
   1968160.37846  11002396.24145  24686670.1584   24686672.7834
     -3737.9374      -2912.6794         12.2504         10.0004
 -14816880.82947 -11401760.08747  21676329.1744   21676331.8344
     -1350.7974      -1052.5694         21.2504         30.5004
 99  4 23  2 23 30.0020000  0  9G 3G17G29G21G 9G31G 6G26G23
 -14420531.20147 -11093028.73646  22496784.8694   22496787.6354
      1173.3284        914.2824         25.0004         20.7504
 -15258890.47548 -11743810.57947  21687113.4394   21687116.5924
     -1538.0624      -1198.4904         31.2504         26.7504
  -9507316.12446  -7258280.40646  23398941.9794   23398945.4714
      2927.1564       2280.9014         14.7504         13.2504
 -16087233.74248 -12408151.29346  22142702.0574   22142705.0684
       800.1094        623.4624         30.7504         25.5004
  -2865579.77545   -129802.61145  24796954.1894   24796960.0964
      1216.9064        948.2394          9.2504          7.5004
  -1397630.90045   -960470.38945  25100291.5184   25100297.8224
      2698.0164       2102.3504          9.0004          7.5004
   8157013.52545  11262447.08145  25291442.2994   25291450.5414
     -4194.7664      -3268.6494          7.7504          6.7504
   2080428.43746  11089877.79745  24708033.9394   24708037.5254
     -3746.4064      -2919.2784         12.2504         10.5004
 -14776245.36947 -11370096.09847  21684061.4944   21684064.4124
     -1358.2504      -1058.3774         21.7504         30.2504
 99  4 23  2 24  0.0020000  0  9G 3G17G29G21G 9G31G 6G26G23
 -14455453.06247 -11120240.56246  22490139.3694   22490142.3694
      1154.9224        899.9394         24.5004         20.5004
 -15212582.84248 -11707726.72247  21695925.2604   21695928.3544
     -1549.1254      -1207.1104         31.2504         26.7504
  -9594996.51446  -7326602.71746  23382257.0494   23382260.7294
      2918.3284       2274.0224         14.7504         13.2504
 -16111113.13048 -12426758.59146  22138158.0024   22138161.1544
       792.0164        617.1554         30.7504         25.5004
  -2901901.13045   -158104.83845  24790042.0884   24790047.0574
      1204.5314        938.5964          9.5004          7.5004
  -1478408.07945  -1023413.58245  25084920.3854   25084924.5214
      2687.1254       2093.8644          9.5004          8.2504
   8282885.71544  11360529.18445  25315394.8774   25315402.5924
     -4196.6724      -3270.1344          7.2504          6.0004
   2192941.12045  11177550.00545  24729444.5024   24729449.0844
     -3754.4694      -2925.5604         11.7504         10.2504
 -14735385.25447 -11338257.05147  21691837.2134   21691839.9904
     -1365.5474      -1064.0624         26.0004         30.2504
 99  4 23  2 24 30.0020000  0  9G 3G17G29G21G 9G31G 8G26G23
 -14489820.08247 -11147020.02746  22483599.6434   22483602.7134
      1136.4534        885.5484         24.7504         20.5004
 -15165929.32748 -11671373.34347  21704803.2914   21704806.5144
     -1561.0474      -1216.4004         31.2504         26.7504
  -9682413.93746  -7394720.10446  23365622.0644   23365626.0614
      2909.7814       2267.3624         14.7504         13.2504
 -16134750.95448 -12445177.66246  22133660.0104   22133663.1274
       784.0164        610.9214         31.2504         25.5004
  -2937843.04245   -186111.49745  24783203.3074   24783207.6434
      1191.6724        928.5754         10.0004          7.5004
  -1558858.98545  -1086102.56245  25069611.3224   25069614.8504
      2676.4064       2085.5114         10.5004          8.2504
    -40026.68455                  25348548.5804
      2354.7504                          7.5004
   2305706.13145  11265418.81245  24750902.6274   24750906.5644
     -3763.0784      -2932.2694         11.2504         10.2504
 -14694304.23748 -11306245.87447  21699654.5884   21699657.2714
     -1373.2034      -1070.0284         29.0004         30.2504
 99  4 23  2 25  0.0020000  0  9G 3G17G29G21G 9G31G 8G26G23
 -14523640.10547 -11173373.28246  22477163.9634   22477166.9514
      1117.9384        871.1204         24.5004         20.5004
 -15118918.85948 -11634741.81947  21713748.9714   21713752.2054
     -1573.2034      -1225.8734         31.2504         26.5004
  -9769589.64946  -7462649.13746  23349032.9944   23349036.2174
      2901.7664       2261.1164         15.0004         13.2504
 -16158151.24048 -12463411.63747  22129206.9714   22129209.9004
       775.7504        604.4814         31.2504         25.7504
  -2973398.91245   -213817.30745  24776436.5644   24776442.7404
      1178.4844        918.3004          8.5004          7.2504
  -1638987.40745  -1148540.27845  25054362.7754   25054366.2794
      2665.4534       2076.9764          9.5004          8.0004
   -110664.70345                  25335106.5104
      2354.2974                          8.0004
   2418729.44345  11353488.91045  24772410.5964   24772413.8894
     -3771.8594      -2939.1114         11.2504          9.5004
 -14652983.98148 -11274048.27547  21707517.4944   21707520.1894
     -1381.6564      -1076.6154         30.2504         29.7504
